[[{"header":{"parameterUnit":"m.s-1","parameterCategory":1,"la1":30.6,"la2":28.766,"lo1":-90.7593,"lo2":-88.6598,"dy":0.0162,"dx":0.0183,"nx":116,"ny":114,"refTime":"2023-05-11T12:00:00:Z","depth":0,"parameterNumber":2,"parameterNumberName":"U-component_of_WINDS"},"data":[0.0,0.0,0.0,0.0,0.0,0.0,0.0,0.0,0.0,0.0,0.0,0.0,0.0,0.0,0.0,0.0,0.0,0.0,0.0,0.0,0.0,0.0,0.0,0.0,0.0,0.0,0.0,0.0,0.0,0.0,0.0,0.0,0.0,0.0,0.0,0.0,0.0,0.0,0.0,0.0,0.0,0.0,0.0,0.0,0.0,0.0,0.0,0.0,0.0,0.0,0.0,0.0,0.0,0.0,0.0,0.0,0.0,0.0,0.0,0.0,0.0,0.0,0.0,0.0,0.0,0.0,0.0,0.0,0.0,0.0,0.0,0.0,0.0,0.0,0.0,0.0,0.0,0.0,0.0,0.0,0.0,0.0,0.0,0.0,0.0,0.0,0.0,0.0,0.0,0.0,0.0,0.0,0.0,0.0,0.0,0.0,0.0,0.0,0.0,0.0,0.0,0.0,0.0,0.0,0.0,0.0,0.0,0.0,0.0,0.0,0.0,0.0,0.0,0.0,0.0,0.0,0.0,0.0,0.0,0.0,0.0,0.0,0.0,0.0,0.0,0.0,0.0,0.0,0.0,0.0,0.0,0.0,0.0,0.0,0.0,0.0,0.0,0.0,0.0,0.0,0.0,0.0,0.0,0.0,0.0,0.0,0.0,0.0,0.0,0.0,0.0,0.0,0.0,0.0,0.0,0.0,0.0,0.0,0.0,0.0,0.0,0.0,0.0,0.0,0.0,0.0,0.0,0.0,0.0,0.0,0.0,0.0,0.0,0.0,0.0,0.0,0.0,0.0,0.0,0.0,0.0,0.0,0.0,0.0,0.0,0.0,0.0,0.0,0.0,0.0,0.0,0.0,0.0,0.0,0.0,0.0,0.0,0.0,0.0,0.0,0.0,0.0,0.0,0.0,0.0,0.0,0.0,0.0,0.0,0.0,0.0,0.0,0.0,0.0,0.0,0.0,0.0,0.0,0.0,0.0,0.0,0.0,0.0,0.0,0.0,0.0,0.0,0.0,0.0,0.0,0.0,0.0,0.0,0.0,0.0,0.0,0.0,0.0,0.0,0.0,0.0,0.0,0.0,0.0,0.0,0.0,0.0,0.0,0.0,0.0,0.0,0.0,0.0,0.0,0.0,0.0,0.0,0.0,0.0,0.0,0.0,0.0,0.0,0.0,0.0,0.0,0.0,0.0,0.0,0.0,0.0,0.0,0.0,0.0,0.0,0.0,0.0,0.0,0.0,0.0,0.0,0.0,0.0,0.0,0.0,0.0,0.0,0.0,0.0,0.0,0.0,0.0,0.0,0.0,0.0,0.0,0.0,0.0,0.0,0.0,0.0,0.0,0.0,0.0,0.0,0.0,0.0,0.0,0.0,0.0,0.0,0.0,0.0,0.0,0.0,0.0,0.0,0.0,0.0,0.0,0.0,0.0,0.0,0.0,0.0,0.0,0.0,0.0,0.0,0.0,0.0,0.0,0.0,0.0,0.0,0.0,0.0,0.0,0.0,0.0,0.0,0.0,0.0,0.0,0.0,0.0,0.0,0.0,0.0,0.0,0.0,0.0,0.0,0.0,0.0,0.0,0.0,0.0,0.0,0.0,0.0,0.0,0.0,0.0,0.0,0.0,0.0,0.0,0.0,0.0,0.0,0.0,0.0,0.0,0.0,0.0,0.0,0.0,0.0,0.0,0.0,0.0,0.0,0.0,0.0,0.0,0.0,0.0,0.0,0.0,0.0,0.0,0.0,0.0,0.0,0.0,0.0,0.0,0.0,0.0,0.0,0.0,0.0,0.0,0.0,0.0,0.0,0.0,0.0,0.0,0.0,0.0,0.0,0.0,0.0,0.0,0.0,0.0,0.0,0.0,0.0,0.0,0.0,0.0,0.0,0.0,0.0,0.0,0.0,0.0,0.0,0.0,0.0,0.0,0.0,0.0,0.0,0.0,0.0,0.0,0.0,0.0,0.0,0.0,0.0,0.0,0.0,0.0,0.0,0.0,0.0,0.0,0.0,0.0,0.0,0.0,0.0,0.0,0.0,0.0,0.0,0.0,0.0,0.0,0.0,0.0,0.0,0.0,0.0,0.0,0.0,0.0,0.0,0.0,0.0,0.0,0.0,0.0,0.0,0.0,0.0,0.0,0.0,0.0,0.0,0.0,0.0,0.0,0.0,0.0,0.0,0.0,0.0,0.0,0.0,0.0,0.0,0.0,0.0,0.0,0.0,0.0,0.0,0.0,0.0,0.0,0.0,0.0,0.0,0.0,0.0,0.0,0.0,0.0,0.0,0.0,0.0,0.0,0.0,0.0,0.0,0.0,0.0,0.0,0.0,0.0,0.0,0.0,0.0,0.0,0.0,0.0,0.0,0.0,0.0,0.0,0.0,0.0,0.0,0.0,0.0,0.0,0.0,0.0,0.0,0.0,0.0,0.0,0.0,0.0,0.0,0.0,0.0,0.0,0.0,0.0,0.0,0.0,0.0,0.0,0.0,0.0,0.0,0.0,0.0,0.0,0.0,0.0,0.0,0.0,0.0,0.0,0.0,0.0,0.0,0.0,0.0,0.0,0.0,0.0,0.0,0.0,0.0,0.0,0.0,0.0,0.0,0.0,0.0,0.0,0.0,0.0,0.0,0.0,0.0,0.0,0.0,0.0,0.0,0.0,0.0,0.0,0.0,0.0,0.0,0.0,0.0,0.0,0.0,0.0,0.0,0.0,0.0,0.0,0.0,0.0,0.0,0.0,0.0,0.0,0.0,0.0,0.0,0.0,0.0,0.0,0.0,0.0,0.0,0.0,0.0,0.0,0.0,0.0,0.0,0.0,0.0,0.0,0.0,0.0,0.0,0.0,0.0,0.0,0.0,0.0,0.0,0.0,0.0,0.0,0.0,0.0,0.0,0.0,0.0,0.0,0.0,0.0,0.0,0.0,0.0,0.0,0.0,0.0,0.0,0.0,0.0,0.0,0.0,0.0,0.0,0.0,0.0,0.0,0.0,0.0,0.0,0.0,0.0,0.0,0.0,0.0,0.0,0.0,0.0,0.0,0.0,0.0,0.0,0.0,0.0,0.0,0.0,0.0,0.0,0.0,0.0,0.0,0.0,0.0,0.0,0.0,0.0,0.0,0.0,0.0,0.0,0.0,0.0,0.0,0.0,0.0,0.0,0.0,0.0,0.0,0.0,0.0,0.0,0.0,0.0,0.0,0.0,0.0,0.0,0.0,0.0,0.0,0.0,0.0,0.0,0.0,0.0,0.0,0.0,0.0,0.0,0.0,0.0,0.0,0.0,0.0,0.0,0.0,0.0,0.0,0.0,0.0,0.0,0.0,0.0,0.0,0.0,0.0,0.0,0.0,0.0,0.0,0.0,0.0,0.0,0.0,0.0,0.0,0.0,0.0,0.0,0.0,0.0,0.0,0.0,0.0,0.0,0.0,0.0,0.0,0.0,0.0,0.0,0.0,0.0,0.0,0.0,0.0,0.0,0.0,0.0,0.0,0.0,0.0,0.0,0.0,0.0,0.0,0.0,0.0,0.0,0.0,0.0,0.0,0.0,0.0,0.0,0.0,0.0,0.0,0.0,0.0,0.0,0.0,0.0,0.0,0.0,0.0,0.0,0.0,0.0,0.0,0.0,0.0,0.0,0.0,0.0,0.0,0.0,0.0,0.0,0.0,0.0,0.0,0.0,0.0,0.0,0.0,0.0,0.0,0.0,0.0,0.0,0.0,0.0,0.0,0.0,0.0,0.0,0.0,0.0,0.0,0.0,0.0,0.0,0.0,0.0,0.0,0.0,0.0,0.0,0.0,0.0,0.0,0.0,0.0,0.0,0.0,0.0,0.0,0.0,0.0,0.0,0.0,0.0,0.0,0.0,0.0,0.0,0.0,0.0,0.0,0.0,0.0,0.0,0.0,0.0,0.0,0.0,0.0,0.0,0.0,0.0,0.0,0.0,0.0,0.0,0.0,0.0,0.0,0.0,0.0,0.0,0.0,0.0,0.0,0.0,0.0,0.0,0.0,0.0,0.0,0.0,0.0,0.0,0.0,0.0,0.0,0.0,0.0,0.0,0.0,0.0,0.0,0.0,0.0,0.0,0.0,0.0,0.0,0.0,0.0,0.0,0.0,0.0,0.0,0.0,0.0,0.0,0.0,0.0,0.0,0.0,0.0,0.0,0.0,0.0,0.0,0.0,0.0,0.0,0.0,0.0,0.0,0.0,0.0,0.0,0.0,0.0,0.0,0.0,0.0,0.0,0.0,0.0,0.0,0.0,0.0,0.0,0.0,0.0,0.0,0.0,0.0,0.0,0.0,0.0,0.0,0.0,0.0,0.0,0.0,0.0,0.0,0.0,0.0,0.0,0.0,0.0,0.0,0.0,0.0,0.0,0.0,0.0,0.0,0.0,0.0,0.0,0.0,0.0,0.0,0.0,0.0,0.0,0.0,0.0,0.0,0.0,0.0,0.0,0.0,0.0,0.0,0.0,0.0,0.0,0.0,0.0,0.0,0.0,0.0,0.0,0.0,0.0,0.0,0.0,0.0,0.0,0.0,0.0,0.0,0.0,0.0,0.0,0.0,0.0,0.0,0.0,0.0,0.0,0.0,0.0,0.0,0.0,0.0,0.0,0.0,0.0,0.0,0.0,0.0,0.0,0.0,0.0,0.0,0.0,0.0,0.0,0.0,0.0,0.0,0.0,0.0,0.0,0.0,0.0,0.0,0.0,0.0,0.0,0.0,0.0,0.0,0.0,0.0,0.0,0.0,0.0,0.0,0.0,0.0,0.0,0.0,0.0,0.0,0.0,0.0,0.0,0.0,0.0,0.0,0.0,0.0,0.0,0.0,0.0,0.0,0.0,0.0,0.0,0.0,0.0,0.0,0.0,0.0,0.0,0.0,0.0,0.0,0.0,0.0,0.0,0.0,0.0,0.0,0.0,0.0,0.0,0.0,0.0,0.0,0.0,0.0,0.0,0.0,0.0,0.0,0.0,0.0,0.0,0.0,0.0,0.0,0.0,0.0,0.0,0.0,0.0,0.0,0.0,0.0,0.0,0.0,0.0,0.0,0.0,0.0,0.0,0.0,0.0,0.0,0.0,0.0,0.0,0.0,0.0,0.0,0.0,0.0,0.0,0.0,0.0,0.0,0.0,0.0,0.0,0.0,0.0,0.0,0.0,0.0,0.0,0.0,0.0,0.0,0.0,0.0,0.0,0.0,0.0,0.0,0.0,0.0,0.0,0.0,0.0,0.0,0.0,0.0,0.0,0.0,0.0,0.0,0.0,0.0,0.0,0.0,0.0,0.0,0.0,0.0,0.0,0.0,0.0,0.0,0.0,0.0,0.0,0.0,0.0,0.0,0.0,0.0,0.0,0.0,0.0,0.0,0.0,0.0,0.0,0.0,0.0,0.0,0.0,0.0,0.0,0.0,0.0,0.0,0.0,0.0,0.0,0.0,0.0,0.0,0.0,0.0,0.0,0.0,0.0,0.0,0.0,0.0,0.0,0.0,0.0,0.0,0.0,0.0,0.0,0.0,0.0,0.0,0.0,0.0,0.0,0.0,0.0,0.0,0.0,0.0,0.0,0.0,0.0,0.0,0.0,0.0,0.0,0.0,0.0,0.0,0.0,0.0,0.0,0.0,0.0,0.0,0.0,0.0,0.0,0.0,0.0,0.0,0.0,0.0,0.0,0.0,0.0,0.0,0.0,0.0,0.0,0.0,0.0,0.0,0.0,0.0,0.0,0.0,0.0,0.0,0.0,0.0,0.0,0.0,0.0,0.0,0.0,0.0,0.0,0.0,0.0,0.0,0.0,0.0,0.0,0.0,0.0,0.0,0.0,0.0,0.0,0.0,0.0,0.0,0.0,0.0,0.0,0.0,0.0,0.0,0.0,0.0,0.0,0.0,0.0,0.0,0.0,0.0,0.0,0.0,0.0,0.0,0.0,0.0,0.0,0.0,0.0,0.0,0.0,0.0,0.0,0.0,0.0,0.0,0.0,0.0,0.0,0.0,0.0,0.0,0.0,0.0,0.0,0.0,0.0,0.0,0.0,0.0,0.0,0.0,0.0,0.0,0.0,0.0,0.0,0.0,0.0,0.0,0.0,0.0,0.0,0.0,-1.7883,0.0,0.0,0.0,0.0,0.0,0.0,0.0,0.0,0.0,0.0,0.0,0.0,0.0,0.0,0.0,0.0,0.0,0.0,0.0,0.0,0.0,0.0,0.0,0.0,0.0,0.0,0.0,0.0,0.0,0.0,0.0,0.0,0.0,0.0,0.0,0.0,0.0,0.0,-1.9283,-1.9635,-2.0087,-2.0614,-2.0076,-1.9322,-1.8308,0.0,0.0,0.0,0.0,0.0,0.0,0.0,0.0,0.0,0.0,0.0,0.0,0.0,0.0,0.0,0.0,0.0,0.0,0.0,0.0,0.0,0.0,0.0,0.0,0.0,0.0,0.0,0.0,0.0,0.0,0.0,0.0,0.0,0.0,0.0,0.0,0.0,0.0,0.0,0.0,0.0,0.0,0.0,0.0,0.0,0.0,0.0,0.0,0.0,0.0,0.0,0.0,0.0,0.0,0.0,0.0,0.0,0.0,0.0,0.0,0.0,0.0,0.0,0.0,0.0,0.0,0.0,0.0,0.0,0.0,0.0,-1.825,0.0,0.0,0.0,0.0,0.0,0.0,0.0,0.0,0.0,0.0,0.0,0.0,0.0,0.0,0.0,0.0,0.0,0.0,0.0,0.0,0.0,0.0,0.0,-1.6338,-1.6054,-1.6431,-1.6214,-1.626,0.0,0.0,0.0,0.0,0.0,0.0,-1.8958,-1.9634,-1.9987,-2.0087,-2.0388,-2.1066,-2.2071,-2.2723,-2.2138,-2.0474,-2.0,0.0,0.0,0.0,0.0,0.0,0.0,0.0,0.0,0.0,0.0,0.0,0.0,0.0,0.0,0.0,0.0,0.0,0.0,0.0,0.0,0.0,0.0,0.0,0.0,0.0,0.0,0.0,0.0,0.0,0.0,0.0,0.0,0.0,0.0,0.0,0.0,0.0,0.0,0.0,0.0,0.0,0.0,0.0,0.0,0.0,0.0,0.0,0.0,0.0,0.0,0.0,0.0,0.0,0.0,0.0,0.0,0.0,0.0,0.0,0.0,0.0,0.0,0.0,-2.3158,-2.3619,-2.391,-2.4456,-2.4456,-2.3935,-2.1945,-2.0263,-1.8907,0.0,0.0,0.0,0.0,0.0,0.0,0.0,0.0,0.0,0.0,0.0,0.0,0.0,0.0,0.0,0.0,0.0,0.0,0.0,0.0,0.0,0.0,-1.7302,-1.7261,-1.6713,-1.686,-1.7147,-1.746,0.0,0.0,0.0,0.0,0.0,-1.966,-2.0289,-2.0817,-2.1267,-2.2723,-2.3778,-2.4374,-2.5435,-2.5285,-2.4017,-2.1702,-2.0758,-2.0881,0.0,0.0,0.0,0.0,0.0,0.0,0.0,0.0,0.0,0.0,0.0,0.0,0.0,0.0,0.0,0.0,0.0,0.0,0.0,0.0,0.0,0.0,0.0,0.0,0.0,0.0,0.0,0.0,0.0,0.0,0.0,0.0,0.0,0.0,0.0,0.0,0.0,0.0,0.0,0.0,0.0,-1.8179,-1.6932,0.0,0.0,0.0,0.0,0.0,0.0,0.0,0.0,0.0,0.0,0.0,0.0,0.0,-2.2672,-2.3238,-2.4633,-2.516,-2.4884,-2.6561,-2.7223,-2.7018,-2.7364,-2.7626,-2.7642,-2.6744,0.0,-2.1744,-2.1267,0.0,0.0,0.0,0.0,0.0,0.0,0.0,0.0,0.0,0.0,0.0,0.0,0.0,0.0,0.0,0.0,0.0,0.0,0.0,0.0,0.0,-1.7833,-1.7811,-1.758,-1.8778,-1.9237,-1.8426,-1.9124,0.0,0.0,0.0,-1.9699,-2.0288,-2.0239,-2.0916,-2.2422,-2.4079,-2.5511,-2.6666,-2.7168,-2.7293,-2.7032,-2.556,-2.3934,-2.2222,-2.1182,0.0,0.0,0.0,0.0,0.0,0.0,0.0,0.0,0.0,0.0,0.0,0.0,0.0,0.0,0.0,0.0,0.0,0.0,0.0,0.0,0.0,0.0,0.0,0.0,0.0,0.0,0.0,0.0,0.0,0.0,0.0,0.0,0.0,0.0,0.0,0.0,0.0,0.0,0.0,-1.971,-2.0163,-1.8344,-1.9736,-2.0266,0.0,0.0,0.0,0.0,0.0,0.0,0.0,0.0,0.0,-2.4854,-2.5231,-2.5708,-2.6278,-2.7172,-2.7884,-2.8366,-2.9386,-2.9986,-3.0113,-3.0164,-3.0304,-3.0407,-2.953,-2.822,-2.6485,-2.3966,-2.2372,-2.1518,0.0,0.0,0.0,0.0,-2.0388,-2.0914,0.0,0.0,0.0,0.0,0.0,0.0,0.0,0.0,0.0,0.0,0.0,0.0,-1.8494,-1.8895,-1.9135,-1.9269,-2.0832,-2.1217,-1.9751,-2.0165,-2.0128,-1.9443,-1.942,-1.9825,-2.0691,-2.1066,-2.2246,-2.4148,-2.5988,-2.7519,-2.875,-2.9026,-2.9302,-2.9553,-2.9277,-2.7318,-2.4117,-2.322,-2.2451,-2.1695,0.0,0.0,0.0,0.0,0.0,0.0,0.0,0.0,0.0,0.0,0.0,0.0,0.0,0.0,0.0,0.0,0.0,0.0,0.0,0.0,0.0,0.0,0.0,0.0,0.0,0.0,0.0,0.0,0.0,0.0,0.0,0.0,0.0,0.0,0.0,0.0,0.0,-2.11,-2.204,-1.9812,-2.1637,-2.2299,0.0,0.0,0.0,0.0,0.0,0.0,-2.6335,-2.6668,-2.72,-2.8075,-2.8291,-2.8662,-2.9269,-2.9693,-3.0416,-3.1345,-3.1717,-3.2166,-3.2592,-3.2332,-3.2347,-3.2566,-3.1504,-3.0903,-3.0417,-2.6467,-2.433,-2.3527,-2.2824,-2.2623,-2.2753,-2.2447,-2.2673,-2.3251,0.0,0.0,0.0,0.0,0.0,0.0,0.0,0.0,0.0,0.0,0.0,-1.8935,-1.9648,-2.1067,-2.2042,-2.2195,-2.2628,-2.2501,-2.154,-2.0568,-1.9845,-1.9419,-1.9525,-1.993,-2.0691,-2.3703,-2.5887,-2.7067,-2.9277,-3.0407,-3.0507,-3.1537,-3.1738,-3.1286,-3.1788,-3.0181,-2.7017,-2.5904,-2.4541,-2.3098,-2.2018,0.0,0.0,0.0,0.0,0.0,0.0,0.0,0.0,0.0,0.0,0.0,0.0,0.0,0.0,0.0,0.0,0.0,0.0,0.0,0.0,0.0,0.0,0.0,0.0,0.0,0.0,0.0,0.0,0.0,0.0,0.0,0.0,0.0,0.0,0.0,0.0,0.0,0.0,-2.0759,-2.3283,0.0,0.0,0.0,0.0,-2.548,-2.6628,-2.7535,-2.8057,-2.9051,-2.9796,-3.0227,-3.0996,-3.1643,-3.2173,-3.2702,-3.3013,-3.3064,-3.3425,-3.3749,-3.3985,-3.3522,-3.3564,-3.3917,-3.2684,-3.2239,-3.2168,-2.861,-2.7128,-2.6952,-2.5812,-2.5745,-2.6122,-2.5034,-2.4983,-2.536,0.0,0.0,0.0,0.0,0.0,0.0,0.0,0.0,-1.6903,-1.8066,-1.8651,-1.9545,-2.1163,-2.2751,-2.3833,-2.4237,-2.5359,-2.5011,-2.2677,-2.2237,-2.1404,-1.9983,-2.0071,-2.1004,-2.2803,-2.5041,-2.7077,-2.89,-3.0382,-3.1486,-3.2215,-3.2591,-3.2667,-3.2491,-3.2692,-3.1913,-3.0357,-2.89,-2.7373,-2.5726,-2.4283,-2.3052,0.0,0.0,0.0,0.0,0.0,0.0,0.0,0.0,0.0,0.0,0.0,0.0,0.0,0.0,0.0,0.0,0.0,0.0,0.0,0.0,0.0,0.0,0.0,0.0,0.0,0.0,0.0,0.0,0.0,0.0,0.0,0.0,0.0,0.0,0.0,0.0,0.0,-2.449,-2.693,0.0,-2.6419,-2.6511,-2.7051,-2.7994,-2.9118,-3.0346,-3.1641,-3.2046,-3.2658,-3.3513,-3.3465,-3.3506,-3.3673,-3.3882,-3.3986,-3.3986,-3.4085,-3.4189,-3.4272,-3.3979,-3.3979,-3.4246,-3.3136,-3.2714,-3.2628,-3.0913,-2.9681,-2.88,-2.7645,-2.7344,-2.7469,-2.7067,-2.7268,-2.772,0.0,0.0,0.0,0.0,0.0,0.0,0.0,0.0,-1.6951,-1.8043,-1.9186,-2.0653,-2.2636,-2.4604,-2.602,-2.6554,-2.722,-2.6445,-2.362,-2.2872,-2.1869,-2.036,-2.1197,-2.256,-2.4506,-2.6575,-2.8536,-3.0331,-3.1612,-3.2616,-3.3345,-3.3545,-3.3621,-3.3621,-3.3621,-3.342,-3.2968,-3.1712,-3.0005,-2.7996,-2.6314,-2.5178,-2.4288,0.0,0.0,0.0,0.0,0.0,0.0,0.0,0.0,0.0,0.0,0.0,0.0,0.0,0.0,0.0,0.0,0.0,0.0,0.0,0.0,0.0,0.0,0.0,0.0,0.0,0.0,0.0,0.0,0.0,0.0,0.0,0.0,0.0,0.0,0.0,-2.8472,-2.8066,-3.0125,-3.1007,-2.9657,-2.9647,-3.009,-3.0947,-3.1888,-3.3012,-3.4371,-3.4424,-3.4711,-3.5286,-3.492,-3.4607,-3.4397,-3.4397,-3.4397,-3.4397,-3.4397,-3.4397,-3.4397,-3.4189,-3.4189,-3.433,-3.3524,-3.3203,-3.3261,-3.249,-3.1563,-3.0452,-2.9365,-2.8825,-2.8674,-2.8674,-2.89,-2.9189,0.0,0.0,0.0,0.0,0.0,0.0,-1.6997,-1.7116,-1.7569,-1.8804,-2.0592,-2.2341,-2.3928,-2.6697,-2.8642,-2.916,-2.8123,-2.6574,-2.4435,-2.2367,-2.1042,-2.0625,-2.2815,-2.4556,-2.5711,-2.8423,-3.0357,-3.1436,-3.3093,-3.3897,-3.3897,-3.4474,-3.468,-3.468,-3.468,-3.468,-3.47,-3.4148,-3.239,-2.9804,-2.8072,-2.7369,-2.7042,0.0,0.0,0.0,0.0,0.0,0.0,0.0,0.0,0.0,0.0,0.0,0.0,0.0,0.0,0.0,0.0,0.0,0.0,0.0,0.0,0.0,0.0,0.0,0.0,0.0,0.0,0.0,0.0,0.0,0.0,0.0,0.0,0.0,-2.6544,-2.9637,-3.1667,-3.1182,-3.2646,-3.3247,-3.2084,-3.2489,-3.3247,-3.4371,-3.4999,-3.5574,-3.6096,-3.6123,-3.5887,-3.5365,-3.5338,-3.5025,-3.4424,-3.445,-3.4424,-3.4397,-3.4424,-3.4424,-3.4397,-3.4189,-3.423,-3.4356,-3.3937,-3.3852,-3.4011,-3.3235,-3.2587,-3.1968,-3.0968,-3.0281,-2.9818,-2.9818,-2.9804,-2.9804,0.0,0.0,0.0,0.0,0.0,0.0,-1.7406,-1.7557,-1.7779,-1.8217,-2.0972,-2.3196,-2.4018,-2.6993,-2.8959,-2.9106,-2.7779,-2.6145,-2.4353,-2.2683,-2.2168,-2.299,-2.4023,-2.5862,-2.8574,-2.9779,-3.111,-3.2616,-3.347,-3.3897,-3.3897,-3.4474,-3.468,-3.468,-3.468,-3.468,-3.468,-3.455,-3.4048,-3.3144,-3.0683,-2.9202,-2.8298,0.0,0.0,0.0,0.0,0.0,0.0,0.0,0.0,0.0,0.0,0.0,0.0,0.0,0.0,0.0,0.0,0.0,0.0,0.0,0.0,0.0,0.0,0.0,0.0,0.0,0.0,0.0,0.0,0.0,0.0,0.0,0.0,-2.9542,-2.9735,-3.1667,-3.3352,-3.4031,-3.526,-3.594,-3.5626,-3.5338,-3.5286,-3.56,-3.6201,-3.6593,-3.675,-3.675,-3.6698,-3.6541,-3.6123,-3.56,-3.5051,-3.5443,-3.5208,-3.4397,-3.4842,-3.4816,-3.4397,-3.4356,-3.4356,-3.4397,-3.4272,-3.3913,-3.3426,-3.3204,-3.2437,-3.1445,-3.1147,-3.0726,-3.0216,-3.0216,-3.0164,-3.0011,0.0,0.0,0.0,0.0,0.0,0.0,-1.7594,-1.7557,-1.7637,-1.8029,-2.12,-2.3536,-2.3855,-2.6755,-2.8597,-2.8374,-2.7036,-2.5425,-2.3511,-2.2809,-2.303,-2.428,-2.5728,-2.7634,-3.008,-3.1135,-3.224,-3.342,-3.4198,-3.46,-3.46,-3.5152,-3.5529,-3.5755,-3.5755,-3.5881,-3.6056,-3.5604,-3.5403,-3.5228,-3.3169,-3.1662,-3.0507,-2.8925,-2.7848,-2.7094,-2.6945,-2.6824,-2.6424,-2.4952,0.0,0.0,0.0,0.0,0.0,0.0,0.0,0.0,0.0,0.0,0.0,0.0,0.0,0.0,0.0,0.0,0.0,0.0,0.0,0.0,0.0,0.0,0.0,0.0,-3.1315,-3.3117,-3.4084,-3.4685,-3.5443,-3.6593,-3.7325,-3.7639,-3.7403,-3.7063,-3.6959,-3.7168,-3.7508,-3.7717,-3.7717,-3.7717,-3.7612,-3.7377,-3.6802,-3.6332,-3.6018,-3.607,-3.5783,-3.5129,-3.5469,-3.5338,-3.4763,-3.4763,-3.4633,0.0,-3.4397,-3.4131,-3.3695,-3.3461,-3.2757,0.0,0.0,0.0,0.0,0.0,-3.0177,-3.0088,0.0,0.0,0.0,0.0,0.0,0.0,-1.751,-1.7398,-1.7427,-1.8108,-2.1223,-2.3405,-2.3331,-2.5977,-2.7544,-2.7042,-2.5912,-2.4431,-2.2493,-2.2945,-2.3873,-2.5202,-2.7759,-2.9729,-3.0859,-3.2441,-3.3495,-3.3997,-3.5056,-3.5583,-3.5608,-3.6257,-3.6857,-3.7287,-3.7335,-3.7586,-3.7939,-3.7056,-3.6653,-3.6505,-3.5525,-3.4324,-3.3011,-3.1009,-3.0013,-2.9596,-2.8674,-2.8226,-2.7854,-2.6766,0.0,0.0,0.0,0.0,0.0,0.0,0.0,0.0,0.0,0.0,0.0,0.0,0.0,0.0,0.0,0.0,0.0,0.0,0.0,0.0,0.0,0.0,0.0,0.0,-3.4705,-3.6358,-3.8579,-3.7978,-3.7639,-3.8606,-3.8762,-3.8606,-3.8057,-3.8057,-3.8292,-3.8789,-3.8815,-3.8815,-3.8815,0.0,0.0,0.0,0.0,-3.7273,-3.7194,-3.6671,-3.6332,-3.6201,-3.6201,-3.5913,-3.5391,-3.5391,-3.5077,-3.4502,-3.4502,-3.4424,-3.4267,-3.3796,-3.3221,-3.2581,-3.1603,-3.0881,-3.0444,-3.0216,-3.0164,-3.0126,0.0,0.0,0.0,0.0,0.0,0.0,-1.694,-1.7393,-1.778,-1.813,-2.0563,-2.212,-2.1762,-2.3929,-2.541,-2.531,-2.3853,-2.292,-2.2945,-2.3898,-2.5553,-2.7985,-2.9905,-3.1436,-3.2566,-3.3796,-3.4449,-3.4575,-3.5655,-3.6207,-3.6279,-3.7211,-3.7739,-3.7839,-3.8061,-3.8111,-3.799,-3.8252,-3.8079,-3.7663,-3.7705,-3.6117,-3.3696,-3.3269,-3.2265,-3.1069,-3.1295,-3.1054,-3.0463,-2.9234,-2.9046,-2.8933,-2.684,-2.5167,0.0,0.0,0.0,0.0,0.0,0.0,0.0,0.0,0.0,0.0,0.0,0.0,0.0,0.0,0.0,0.0,0.0,0.0,0.0,-3.4575,-3.6332,-3.8031,-3.9834,-3.952,-3.8998,-3.8736,-3.9128,-3.9207,-3.8606,-3.8998,-3.9311,-3.9442,-3.9442,-3.9442,-3.9442,-3.9442,-3.939,-3.9285,-3.9181,-3.8867,-3.8397,-3.8266,-3.7743,-3.6828,0.0,0.0,-3.594,-3.594,-3.5652,-3.5129,-3.5129,-3.4607,-3.3744,-3.3639,-3.3221,-3.2594,-3.1472,-3.0965,-3.0861,-3.066,-3.0508,-3.0292,0.0,0.0,0.0,0.0,0.0,0.0,-1.7473,-1.7508,-1.764,-1.8132,-2.0119,-2.1325,-2.0866,-2.2455,-2.3421,-2.3055,-2.2117,-2.2196,-2.3847,-2.5034,-2.6866,-2.9615,-3.1361,-3.2616,-3.347,-3.4575,-3.5082,-3.5082,-3.5956,-3.6405,-3.643,-3.7211,-3.7739,-3.8015,-3.8465,-3.8693,-3.8894,-3.9017,-3.884,-3.8466,-3.8559,-3.7523,-3.5906,-3.5353,-3.4449,-3.3445,-3.3169,-3.3068,-3.2817,-3.1013,-3.0838,-3.0848,-2.8575,-2.7268,-2.6323,0.0,0.0,0.0,0.0,0.0,0.0,0.0,0.0,0.0,0.0,0.0,0.0,0.0,0.0,-2.9818,-3.1395,0.0,-3.567,-3.722,-3.8658,-3.9913,-4.0749,-4.0644,-4.0252,-3.9625,-3.9834,-3.9782,-3.9207,-3.9442,-3.973,-3.9991,-4.0017,-4.0017,-4.0017,-4.0017,-4.0017,-4.0017,-3.9756,-3.9599,-3.9573,-3.8998,-3.8423,-3.7848,-3.7586,-3.7142,-3.6541,-3.6541,-3.6096,-3.5286,-3.4972,-3.4371,-3.3561,-3.3273,-3.296,-3.2646,-3.2071,-3.1679,-3.1327,-3.0877,-3.066,-3.052,0.0,0.0,0.0,0.0,0.0,0.0,0.0,-1.77,-1.7523,-1.8252,-1.9724,-2.0576,-2.0217,-2.0998,-2.1381,-2.0874,-2.0909,-2.2092,-2.4775,-2.6113,-2.8021,-3.0809,-3.2516,-3.3596,-3.4048,-3.5152,-3.5658,-3.5658,-3.6358,-3.6732,-3.6757,-3.7362,-3.7914,-3.8341,-3.8869,-3.9321,-3.9724,-3.9626,-3.9398,-3.9045,-3.9164,-3.8734,-3.7964,-3.7107,-3.6254,-3.5357,-3.4424,-3.4073,-3.3822,-3.224,-3.1863,-3.1763,-3.0041,-2.9428,-2.8862,-2.6565,-2.5871,0.0,0.0,0.0,0.0,0.0,0.0,0.0,0.0,-2.8069,-2.9116,-3.0085,-3.1229,-3.2748,-3.4826,-3.6488,-3.8004,-3.952,-4.054,-4.1193,-4.1298,-4.1219,-4.0958,-4.0461,-4.0514,-4.0383,-3.9808,-3.986,-4.0122,-4.0566,-4.0592,-4.0592,-4.0592,-4.0592,-4.0592,-4.0592,-4.0174,-4.0148,-4.0592,-3.9442,-3.8893,-3.8893,-3.8214,-3.7665,-3.7168,-3.7168,-3.6619,-3.56,-3.4868,-3.4319,-3.3875,-3.3273,-3.3012,-3.3012,-3.2908,-3.2594,-3.2084,-3.1357,-3.1073,-3.097,0.0,0.0,0.0,0.0,0.0,0.0,0.0,0.0,-1.8124,-1.8831,-1.9204,-1.9487,-1.9651,-1.9278,-1.903,-1.9082,-2.0849,-2.295,-2.536,-2.7017,-2.9151,-3.1913,-3.3646,-3.4575,-3.4625,-3.5705,-3.6329,-3.6329,-3.7312,-3.7814,-3.7839,-3.8919,-3.9446,-3.9496,-3.9803,-3.9879,-3.9749,-4.0414,-4.0287,-3.9699,-4.0388,-3.9746,-3.836,-3.8233,-3.7076,-3.5408,-3.4806,-3.3395,-3.1888,-3.2641,-3.2265,-3.1512,-3.1763,-3.1307,-3.0213,-2.7817,-2.6914,-2.6257,-2.4419,-2.4835,-2.6189,-2.7828,-2.8395,-2.9303,0.0,-3.3189,-3.3897,-3.546,-3.6493,-3.7306,-3.8083,-3.8841,-3.9547,-4.0226,-4.0435,-4.0697,-4.1246,-4.0853,-4.0488,-4.0435,-4.088,-4.0984,-4.0383,-4.0801,-4.1141,-4.1219,-4.1219,-4.1219,-4.1219,-4.1219,-4.1219,-4.1219,-4.1167,-4.1167,-4.1219,-4.0069,-3.952,-3.9494,-3.8423,-3.7874,-3.7795,-3.7795,-3.7456,-3.675,-3.5678,-3.5155,-3.5051,-3.445,-3.4214,-3.4162,-3.3692,-3.3456,-3.3326,-3.2685,-3.2358,-3.2121,0.0,0.0,0.0,0.0,0.0,0.0,0.0,0.0,0.0,-1.8794,-1.9076,-1.9261,-1.9342,-1.8827,-1.8559,-1.8684,-1.9926,-2.2048,-2.5253,-2.6832,-2.9001,-3.2089,-3.352,-3.4399,-3.468,-3.5479,-3.6031,-3.6405,-3.6883,-3.7061,-3.7061,-3.7864,-3.8391,-3.8718,-3.9196,-3.9498,-3.9749,-4.0236,-4.0134,-3.9749,-4.0593,-4.0104,-3.884,-3.8521,-3.6964,-3.4762,-3.3658,-3.255,0.0,-3.0874,-3.0863,-3.116,-3.1347,-3.1012,-3.0228,-2.8478,-2.7459,-2.6833,-2.6383,-2.6901,-2.7966,-2.9765,-3.0984,-3.2166,-3.3938,-3.527,-3.6352,-3.7079,-3.8361,-3.9442,-3.9651,-4.0461,-4.1063,0.0,-4.1219,-4.1402,-4.1324,-4.0801,-4.0305,-3.9991,-4.0174,-4.0357,-4.0409,-4.0958,-4.1324,-4.1324,-4.1324,-4.1324,-4.1324,-4.1324,-4.1324,-4.1324,-4.1324,-4.1324,-4.1324,-4.0488,-4.0069,-4.0069,-3.8919,-3.837,-3.837,-3.8057,-3.7377,-3.641,-3.526,-3.4763,-3.4737,-3.4162,-3.411,-3.4371,-3.4136,-3.4058,-3.3953,-3.3038,-3.2659,-3.2553,0.0,0.0,0.0,0.0,0.0,0.0,0.0,0.0,0.0,0.0,-1.8833,-1.8865,-1.872,-1.8383,-1.8166,-1.8093,-1.9055,-2.1095,-2.4514,-2.6195,-2.8398,-3.1411,-3.2918,-3.3847,-3.4248,-3.5056,-3.5683,-3.6132,-3.648,-3.6631,-3.6656,-3.7161,-3.7613,-3.8015,-3.8442,-3.8843,-3.922,-3.9626,-3.9576,-3.9398,-4.0385,-3.9921,-3.8656,-3.8114,-3.6148,-3.3546,-3.2507,-3.1504,-3.0443,-2.9164,-2.9214,-2.9847,-3.0113,-3.005,-2.9639,-2.8405,-2.7445,-2.7011,-2.8142,-2.8939,-2.998,-3.1913,-3.3798,-3.5373,-3.6096,-3.7474,-3.873,-3.9042,-3.992,-4.0671,-4.0671,-4.135,-4.1794,-4.1376,-4.1664,-4.1847,-4.1585,-4.0775,-3.9991,-3.9442,-3.9233,-3.9285,-3.9677,-4.054,-4.1141,-4.1298,-4.1324,-4.1324,-4.1324,-4.1324,-4.1324,-4.1324,-4.1324,-4.1324,-4.1324,-4.0723,-4.0409,-4.0409,-3.9416,-3.8867,-3.8684,-3.8161,-3.7429,-3.6541,-3.5547,-3.5129,-3.5077,-3.4528,-3.4528,-3.4842,-3.4711,-3.4659,-3.4528,-3.3535,-3.3169,-3.3143,0.0,0.0,0.0,0.0,0.0,0.0,0.0,0.0,0.0,0.0,0.0,0.0,0.0,-1.7557,-1.7435,-1.6899,-1.8461,-2.0516,-2.2925,-2.5227,-2.753,-2.9754,-3.1938,-3.3119,-3.3162,-3.468,-3.5508,-3.5533,-3.6634,-3.7161,-3.7161,-3.7713,-3.799,-3.8015,-3.8015,-3.804,-3.8114,-3.8656,-3.8704,-3.8559,-3.9884,-3.9251,-3.7459,-3.691,-3.458,-3.1707,-3.192,-3.0241,-2.7956,-2.82,-2.7738,-2.719,-2.8073,-2.862,-2.8676,-2.743,-2.6652,-2.6745,-2.9099,-3.0632,-3.2097,-3.4565,-3.6907,-3.882,-3.9969,-4.07,-4.1533,-4.2579,-4.203,-4.1298,-4.1298,-4.1324,-4.1324,-4.1324,-4.1324,-4.1533,-4.2107,-4.0697,-3.9416,-3.8815,-3.8266,-3.7952,0.0,-3.9468,-4.0697,-4.1272,-4.1324,-4.1324,-4.1324,-4.1324,-4.1324,-4.1324,-4.1324,-4.1324,-4.1324,-4.0723,-4.0409,-4.0409,-3.986,-3.9285,-3.8684,-3.8161,-3.7874,-3.7821,-3.7194,-3.6933,-3.6881,-3.6279,-3.6044,-3.5992,-3.5469,-3.526,-3.5208,-3.458,-3.4345,-3.4267,0.0,0.0,0.0,0.0,0.0,0.0,0.0,0.0,0.0,0.0,0.0,0.0,0.0,0.0,0.0,0.0,-1.7314,-1.8707,-2.1036,-2.3424,-2.5569,-2.753,-3.0055,-3.1612,-3.1938,-3.3244,-3.4098,-3.4449,-3.5203,-3.5554,-3.5554,-3.5755,-3.6031,-3.6335,-3.6784,-3.7136,-3.7487,-3.8035,-3.7985,-3.7632,-3.8031,-3.7371,-3.5962,-3.4451,-3.2486,-3.0269,0.0,-2.7267,-2.6107,-2.5732,-2.5786,-2.6142,-2.6848,-2.6956,-2.6843,-2.681,-2.7419,-2.8601,-3.1057,-3.3141,-3.5148,-3.7586,-3.9311,-4.0644,-4.1402,-4.203,-4.2239,-4.1455,-4.0795,-4.0084,-3.9181,-3.9144,-3.9297,-3.952,-4.0566,-4.1376,-4.1559,-4.1115,-4.0095,-3.837,-3.8318,0.0,0.0,0.0,0.0,-4.0644,-4.0723,-4.0906,-4.1298,-4.1324,-4.1324,-4.1324,-4.1324,-4.1324,-4.1324,-4.1115,-4.101,-4.101,-4.0069,-3.9285,-3.8684,-3.8161,-3.79,-3.7874,-3.7273,-3.7011,-3.6959,-3.6358,-3.6096,-3.6096,-3.5913,-3.56,-3.5312,-3.5469,-3.5312,-3.492,0.0,0.0,0.0,0.0,0.0,0.0,0.0,0.0,0.0,0.0,0.0,0.0,0.0,0.0,0.0,0.0,0.0,-1.7531,-1.93,-2.1414,-2.323,-2.4664,-2.7168,-2.8699,-2.9026,-3.0532,-3.1461,-3.1838,-3.2591,-3.3068,-3.3201,-3.3201,-3.3602,-3.4329,-3.4751,-3.5203,-3.573,-3.5974,-3.5768,-3.5259,-3.5105,-3.4384,-3.3152,-3.15,-2.9884,0.0,-2.6191,-2.5134,-2.4622,-2.4142,-2.4612,-2.546,-2.5961,-2.6395,-2.6844,-2.7478,-2.876,-3.0615,-3.3442,-3.56,-3.756,-3.9677,-4.1089,-4.1977,-4.2185,-4.2291,-4.1977,-4.0435,-3.9433,-3.8451,-3.6996,-3.6867,-3.7174,-3.7756,-3.9013,-4.0118,-4.088,-4.0644,-3.9913,-3.8658,-3.8449,-3.8214,0.0,0.0,0.0,-4.0331,-4.0618,-4.0984,-4.1585,-4.1428,-4.1402,-4.1611,-4.1428,-4.1324,-4.1324,-4.1324,-4.1324,-4.1298,-4.0148,-3.9416,-3.8998,-3.824,-3.79,-3.7874,-3.7482,-3.7325,-3.7299,-3.6907,-3.675,-3.6724,-3.6515,-3.6201,-3.5913,-3.6044,-3.5887,-3.5495,0.0,0.0,0.0,0.0,0.0,0.0,0.0,0.0,0.0,0.0,0.0,0.0,0.0,0.0,0.0,0.0,0.0,0.0,-1.7676,-1.9403,-2.0705,-2.1368,-2.3552,-2.4725,-2.475,-2.6866,-2.7971,-2.7971,-2.9076,-2.988,-3.0407,-3.0407,-3.0934,-3.1913,-3.1938,-3.2265,-3.2784,-3.2491,-3.2082,-3.1563,-3.1279,-3.0482,-2.9314,-2.8219,-2.7045,-2.5746,-2.4563,-2.3913,-2.3599,-2.3675,-2.4326,-2.5223,-2.5615,-2.7006,-2.8629,-2.9336,-3.0712,-3.2763,-3.6201,-3.8004,-3.9285,-4.0958,-4.2186,-4.2866,-4.2265,-4.1664,-4.0906,-3.973,-3.8031,-3.6323,-3.4816,-3.4568,-3.4989,-3.6174,-3.699,-3.8162,-4.0148,-3.9599,-3.9128,0.0,0.0,0.0,0.0,0.0,0.0,-4.0435,0.0,-4.1585,-4.2238,-4.1664,-4.1611,-4.2185,-4.1611,-4.1324,-4.1324,-4.1324,-4.1324,-4.1298,-4.0174,-3.9651,-3.9573,-3.8449,-3.7926,-3.79,-3.79,-3.79,-3.79,-3.79,-3.79,-3.7848,-3.7273,-3.7037,-3.6933,-3.6384,-3.6175,-3.607,0.0,0.0,0.0,0.0,0.0,0.0,0.0,0.0,0.0,0.0,0.0,0.0,0.0,0.0,0.0,0.0,0.0,0.0,-1.6435,-1.8215,-1.9506,-2.0132,-2.2339,-2.3722,-2.4205,-2.5536,-2.6239,-2.6239,-2.7002,-2.7429,-2.7555,-2.7555,-2.7706,-2.7982,-2.8348,-2.8624,-2.8812,-2.9126,-2.8962,-2.8445,-2.8104,-2.7538,-2.6714,-2.5658,-2.5014,-2.462,-2.3725,-2.3462,-2.3727,-2.4602,-2.6065,-2.7471,-2.7117,-2.8213,-3.0022,-3.194,-3.3692,-3.56,-3.824,-4.0095,-4.1402,-4.1847,-4.25,-4.2762,-4.1768,-4.0749,-3.9599,-3.8004,-3.5729,-3.3711,-3.2712,-3.3054,-3.3883,-3.5345,-3.7841,0.0,-4.0932,-4.1925,0.0,-4.0409,-4.0723,-4.0801,-4.0043,-4.0775,0.0,0.0,-4.1481,-4.1742,-4.2762,-4.2265,-4.2004,-4.2211,-4.1611,-4.1324,-4.1324,-4.1324,-4.1324,-4.1298,-4.0566,-3.9991,-3.9573,-3.8841,-3.8292,-3.79,-3.79,-3.79,-3.79,-3.79,-3.79,-3.7874,-3.7743,-3.7403,-3.7037,-3.7325,-3.7168,-3.675,0.0,0.0,0.0,0.0,0.0,0.0,0.0,0.0,0.0,0.0,0.0,0.0,0.0,0.0,0.0,0.0,0.0,0.0,0.0,-1.7497,-1.8262,-1.861,-2.0334,-2.1214,-2.1037,-2.2343,-2.305,-2.305,-2.3658,-2.4186,-2.4664,-2.4664,-2.494,-2.5418,-2.5711,-2.5963,-2.6214,-2.6264,-2.6113,0.0,0.0,-2.4766,-2.4589,-2.373,-2.3614,-2.3821,-2.3281,-2.3994,-2.5274,-2.6245,-2.7893,-2.9562,-2.9745,-3.1339,-3.3456,-3.5025,-3.6671,-3.8449,-4.054,-4.1821,-4.2552,-4.2552,-4.2396,-4.1768,-3.986,-3.8527,-3.709,-3.4816,-3.2791,-3.1149,-3.0561,-3.0976,-3.1988,-3.3604,-3.6359,-3.8804,-4.0331,-4.1821,-4.2448,-4.1664,-4.2134,0.0,-4.1611,-4.216,-4.2657,0.0,-4.2396,-4.2448,-4.3337,-4.2866,-4.2657,-4.297,-4.2369,-4.1951,-4.169,-4.1428,-4.1324,-4.1298,-4.0697,-4.0122,-3.9599,-3.9259,-3.8789,-3.8266,0.0,-3.8266,-3.824,-3.8004,-3.79,-3.79,-3.79,-3.7691,-3.7429,-3.7769,-3.7691,-3.7403,0.0,0.0,0.0,0.0,0.0,0.0,0.0,0.0,0.0,0.0,-1.8062,0.0,0.0,0.0,0.0,0.0,0.0,0.0,0.0,0.0,-1.7364,-1.7416,-1.8433,-1.8533,-1.7586,-1.9033,-1.9811,-1.9811,-2.0339,-2.1069,-2.197,-2.197,-2.2498,-2.3452,-2.3452,-2.3703,-2.4098,-2.3653,-2.3477,-2.3477,-2.2498,-2.2393,-2.2844,0.0,-2.2711,-2.3289,-2.3245,-2.4798,-2.701,-2.8092,-2.9855,-3.1731,-3.2803,-3.5077,-3.7508,-3.824,-3.9547,-4.1115,-4.2788,-4.3258,-4.3206,-4.3049,-4.2108,-4.0461,-3.7639,-3.5992,-3.4293,-3.1548,-3.0006,-2.9083,-2.8723,-2.9144,-3.0197,-3.1988,-3.4225,-3.6665,-3.9416,-4.0827,-4.1925,-4.2997,-4.3206,-4.3258,-4.3258,-4.3258,-4.3441,-4.3938,-4.352,-4.3467,-4.3964,-4.3441,-4.3284,-4.3624,-4.3232,-4.2709,-4.2107,-4.1638,-4.1402,-4.1298,-4.0775,-4.0252,-3.973,-3.973,-3.939,-3.8841,-3.8841,0.0,-3.8789,-3.824,-3.8057,-3.8109,-3.7978,-3.7952,-3.8004,-3.7926,-3.79,-3.79,0.0,0.0,0.0,0.0,0.0,0.0,0.0,0.0,0.0,0.0,-1.8257,-1.8607,0.0,0.0,0.0,0.0,0.0,0.0,0.0,0.0,0.0,-1.8486,-1.8833,-1.9108,-1.9334,-1.966,-1.9811,-1.9811,-1.9911,-2.0037,-2.0238,-2.0238,-2.0338,-2.0539,-2.0539,-2.0589,-2.0665,-2.0564,-2.0815,-2.1245,-2.1069,-2.132,-2.182,-2.2171,0.0,0.0,-2.3504,-2.4561,-2.6025,-2.8811,-3.1902,-3.4659,-3.5312,-3.7194,-3.9442,-4.0984,-4.1977,-4.284,-4.4095,-4.446,-4.4225,-4.3258,-4.1794,-3.9939,-3.756,-3.5391,-3.3326,-3.1392,-2.9693,-2.8525,-2.8481,-2.931,-3.0749,-3.2974,-3.525,-3.7763,-4.0618,-4.2004,-4.2971,0.0,-4.4147,-4.4434,-4.4434,-4.4434,0.0,0.0,0.0,-4.4487,-4.4565,-4.4042,-4.3337,-4.2552,-4.2814,-4.2526,-4.1481,-4.1847,-4.1768,-4.1324,-4.1219,-4.0853,-4.0278,-4.0278,-3.9965,-3.9442,-3.9442,0.0,-3.9416,-3.8815,-3.8867,-3.9233,-3.8266,-3.8161,-3.8527,-3.8057,-3.79,-3.79,0.0,0.0,0.0,0.0,0.0,0.0,0.0,-1.7097,-1.7105,-1.7727,-1.8279,-1.8481,-1.8229,-1.8358,-1.8284,0.0,0.0,0.0,0.0,0.0,0.0,-1.8784,-1.9208,-1.9233,-1.8858,-1.9208,-1.9384,-1.9384,0.0,-1.9535,-1.9811,-1.9811,-1.9811,-1.9811,-1.9811,-1.9962,-2.0264,-1.9936,-2.0464,-2.1493,-2.1245,-2.1594,-2.2343,-2.2619,0.0,0.0,-2.3581,-2.4648,-2.6174,-2.8369,-3.1263,-3.4241,-3.6018,-3.837,-4.0592,-4.1115,-4.2526,-4.3964,-4.4225,-4.4513,-4.446,-4.331,-4.1272,-3.8762,-3.5887,-3.3456,-3.1209,-2.9205,-2.8106,-2.7575,-2.7889,-2.8908,-3.0241,-3.1967,-3.3666,-3.5992,-3.9468,-4.0697,-4.1899,-4.3676,-4.4382,-4.4668,-4.4668,-4.4668,-4.4668,0.0,0.0,-4.4668,-4.4668,-4.446,-4.4068,-4.352,-4.3467,-4.3049,-4.2213,-4.2186,-4.1873,-4.1324,-4.1324,-4.101,-4.0435,-4.0749,-4.0566,-4.0043,-4.0043,0.0,-3.9991,-3.9416,-3.9155,-3.9076,-3.8527,-3.8475,-3.8658,-3.8109,-3.8083,-3.8292,0.0,0.0,0.0,0.0,0.0,0.0,0.0,-1.7027,-1.6988,-1.8182,-1.8255,-1.8279,-1.853,-1.8555,-1.8505,0.0,0.0,0.0,0.0,0.0,0.0,0.0,0.0,0.0,-1.841,0.0,0.0,-1.9359,-1.9359,0.0,0.0,0.0,0.0,0.0,-2.0037,-2.0313,-2.0842,-2.0363,-2.0991,0.0,0.0,-2.2246,0.0,0.0,0.0,0.0,0.0,-2.4808,-2.6252,-2.7746,-2.9829,-3.2202,-3.4737,-3.7769,-4.0357,-4.0122,-4.2004,-4.4147,-4.3938,-4.4278,-4.4487,-4.3467,-4.0853,-3.7691,-3.4502,-3.1888,-2.9474,-2.7314,-2.6844,-2.7,-2.7411,-2.8386,-2.9493,-3.0682,-3.1796,-3.3875,-3.7841,-3.9076,-4.0618,-4.3363,-4.4304,0.0,-4.4668,-4.4668,0.0,0.0,0.0,0.0,-4.4668,-4.4668,-4.467,-4.4539,-4.4225,-4.3676,-4.284,-4.2526,-4.2004,-4.1324,-4.1324,-4.1063,-4.0618,-4.1089,-4.0984,-4.0435,-4.054,0.0,0.0,-3.9965,-3.9494,-3.905,-3.8815,-3.8789,-3.8815,-3.8089,-3.8193,-3.8585,0.0,0.0,0.0,0.0,0.0,0.0,0.0,-1.7031,-1.7515,-1.861,-1.8433,-1.8581,-1.956,-1.966,-1.9459,0.0,0.0,0.0,0.0,0.0,0.0,0.0,0.0,0.0,0.0,0.0,0.0,-2.0541,-2.0541,0.0,0.0,0.0,0.0,0.0,0.0,-2.0918,-2.1418,-2.1368,0.0,0.0,0.0,0.0,0.0,0.0,0.0,0.0,0.0,-2.484,-2.5216,-2.7561,-2.8569,-2.9013,-3.0309,-3.3781,-3.7586,-3.8579,-4.054,-4.2605,-4.3651,-4.4278,-4.4591,-4.3964,-4.0853,-3.7325,-3.4868,-3.215,-2.9578,-2.7777,-2.7411,-2.7438,-2.749,-2.8046,-2.8926,-3.0224,-3.1232,-3.3183,-3.6919,-3.8673,-4.0488,-4.2814,0.0,0.0,-4.4668,-4.4668,0.0,0.0,0.0,0.0,-4.4668,-4.4668,-4.4487,-4.3964,-4.4408,-4.3885,-4.2316,-4.2709,-4.2396,-4.1324,-4.1324,-4.1298,-4.1246,-4.1298,-4.0984,-4.0435,-4.0984,0.0,0.0,-4.0357,-4.0305,-4.0148,-3.9102,-3.905,-3.9342,-3.8013,-3.8054,-3.8538,0.0,0.0,0.0,0.0,0.0,0.0,-1.7168,-1.7091,-1.7525,-1.9082,-1.8859,-1.8858,-1.971,-1.9811,-1.971,-1.951,0.0,0.0,0.0,0.0,0.0,0.0,0.0,0.0,0.0,0.0,-2.0087,-2.0691,-2.0691,0.0,0.0,0.0,0.0,0.0,0.0,-2.1496,-2.197,-2.1619,0.0,0.0,0.0,0.0,0.0,0.0,0.0,0.0,0.0,0.0,-2.5522,-2.6498,-2.7288,-2.7941,-2.8377,-3.032,-3.2855,-3.5365,-3.8475,-4.1298,-4.2108,-4.3781,-4.4879,-4.3258,-4.0357,-3.7299,-3.4946,-3.1914,-2.9222,-2.7777,-2.749,-2.749,-2.749,-2.7673,-2.8323,-2.9689,-2.9934,-3.1187,-3.4767,-3.6052,-3.7808,-4.1063,-4.2474,0.0,0.0,0.0,0.0,0.0,0.0,0.0,-4.4642,-4.4668,-4.4617,-4.4382,-4.4617,-4.4068,-4.2683,-4.2918,-4.2448,-4.1324,-4.1324,-4.1324,-4.1324,-4.1324,-4.1193,-4.0984,-4.1219,0.0,0.0,-4.0958,-4.054,-3.9886,-3.9442,-3.9181,-3.8972,-3.8095,-3.8147,-3.8585,0.0,0.0,0.0,0.0,0.0,-1.6185,-1.7363,-1.7241,-1.7629,-1.9275,-1.9179,-1.9182,-1.9683,-1.9734,-1.9759,-1.9811,-1.9434,0.0,0.0,0.0,0.0,0.0,0.0,0.0,0.0,0.0,-2.0365,-2.0943,-2.1094,-2.1471,0.0,0.0,0.0,0.0,0.0,0.0,0.0,0.0,0.0,0.0,0.0,0.0,0.0,0.0,0.0,0.0,0.0,0.0,0.0,0.0,0.0,-2.6994,-2.6994,-2.7706,-2.9179,-3.2437,-3.6123,-3.9337,-4.0305,-4.2422,-4.3964,-4.2317,-3.9494,-3.6619,-3.4607,-3.1496,-2.8726,-2.7699,-2.749,-2.749,-2.749,-2.749,-2.7897,-2.9135,-2.9074,-2.9944,-3.2922,-3.4094,-3.5781,-3.8998,0.0,-4.1899,0.0,-4.4434,0.0,0.0,0.0,0.0,-4.4696,-4.4565,-4.4565,-4.4668,-4.4565,-4.4016,-4.3023,-4.284,-4.2265,-4.1324,-4.1324,-4.1324,-4.1324,-4.1324,-4.1219,-4.1036,0.0,0.0,0.0,-4.0963,-4.0389,-3.9551,-3.9407,-3.9042,-3.8491,-3.7805,-3.7961,-3.835,0.0,0.0,0.0,0.0,0.0,0.0,-1.7243,-1.7509,-1.797,-1.9063,-1.9316,-1.9447,-1.9578,-1.9604,-1.9656,-1.9811,-1.9786,0.0,0.0,0.0,0.0,0.0,0.0,0.0,0.0,0.0,-2.0943,-2.1468,-2.202,-2.2543,-2.307,-2.2518,-2.2297,-2.2297,0.0,0.0,0.0,0.0,0.0,0.0,0.0,0.0,0.0,0.0,0.0,0.0,0.0,0.0,0.0,0.0,0.0,0.0,0.0,-2.6242,-2.7295,-3.02,-3.3456,-3.6515,-3.8266,-4.0017,-4.135,-4.1324,-3.8292,-3.5025,-3.3875,-3.0895,-2.8229,-2.762,-2.749,-2.749,-2.749,-2.749,-2.7766,-2.8573,-2.9048,-2.9948,-3.1868,-3.3447,-3.5051,0.0,0.0,-3.9651,-4.2028,-4.3729,0.0,0.0,0.0,0.0,-4.4668,-4.4199,-4.4147,-4.4642,-4.4173,-4.3598,-4.3023,-4.2448,-4.1873,-4.1324,-4.1324,-4.1324,-4.1324,-4.1324,-4.0984,0.0,0.0,0.0,0.0,-4.0091,-3.9878,-3.9551,-3.9043,-3.8633,-3.8282,-3.7126,-3.7279,-3.7855,0.0,0.0,0.0,0.0,0.0,0.0,0.0,-1.7749,-1.8307,-1.9111,-1.9261,-1.9342,-1.9578,-1.9604,-1.9656,-1.9811,-1.9459,0.0,0.0,0.0,0.0,0.0,0.0,0.0,0.0,-2.0388,-2.0715,-2.2046,-2.1845,-2.2221,-2.3095,-2.292,-2.2844,-2.2819,-2.2443,-2.2163,0.0,0.0,0.0,0.0,0.0,0.0,0.0,0.0,0.0,0.0,0.0,0.0,0.0,0.0,0.0,0.0,0.0,0.0,0.0,-2.883,-3.1104,-3.3442,-3.4842,-3.6462,-3.756,-3.6776,-3.5025,-3.3221,-3.2071,-3.0032,-2.8229,-2.762,-2.749,-2.749,-2.749,-2.749,-2.8001,-2.9601,-2.9996,-3.054,-3.192,0.0,0.0,-3.6802,-4.0095,-4.2683,0.0,0.0,0.0,0.0,0.0,0.0,-4.4642,-4.3807,-4.3546,-4.4121,-4.3598,-4.3023,-4.2448,-4.2265,-4.1873,-4.1324,-4.1097,-4.1097,-4.1324,-4.1097,0.0,0.0,0.0,0.0,0.0,-3.9677,-3.9088,-3.8501,-3.8309,-3.795,-3.7458,-3.7138,-3.7143,-3.7318,0.0,0.0,0.0,0.0,0.0,0.0,0.0,-1.7989,-1.8423,-1.9032,-1.9105,-1.921,-1.9499,-1.9525,-1.9604,-1.9785,-1.9484,0.0,0.0,0.0,0.0,0.0,0.0,0.0,-2.1468,-2.0991,-2.1267,-2.2322,-2.2171,-2.2472,-2.3095,-2.3095,-2.2995,-2.2794,-2.2644,-2.231,0.0,0.0,0.0,0.0,0.0,0.0,-2.312,0.0,0.0,0.0,0.0,0.0,0.0,0.0,0.0,0.0,0.0,0.0,0.0,0.0,-2.9091,-3.057,-3.2437,-3.4031,-3.4972,-3.4267,-3.3064,-3.181,-3.0869,-2.9327,-2.7941,-2.7568,-2.749,-2.749,-2.749,-2.749,-2.8054,-2.9705,-2.9977,-3.0372,-3.1529,0.0,0.0,-3.675,0.0,0.0,0.0,0.0,0.0,0.0,0.0,0.0,-4.4642,-4.3859,-4.3415,-4.3546,-4.2997,-4.2526,-4.2211,-4.1951,-4.1664,-4.1324,-4.1147,-4.1097,-4.1147,-4.1097,0.0,0.0,0.0,0.0,0.0,-3.8946,-3.8335,-3.8005,-3.7789,-3.7384,-3.6968,-3.6875,-3.6828,-3.6828,0.0,0.0,0.0,0.0,0.0,0.0,0.0,-1.8229,-1.8446,-1.8927,-1.8999,-1.9105,-1.9368,-1.9394,-1.9525,-1.9785,0.0,0.0,0.0,0.0,0.0,0.0,0.0,0.0,-2.1594,-2.202,-2.2297,-2.2372,-2.2819,-2.307,-2.3095,-2.3095,-2.2819,-2.2368,-2.284,-2.2401,-2.1336,-2.1935,-2.2511,-2.3008,-2.3766,-2.3697,0.0,0.0,0.0,0.0,0.0,0.0,0.0,0.0,0.0,0.0,0.0,0.0,0.0,0.0,0.0,0.0,0.0,-3.2333,-3.3169,-3.3169,-3.194,-3.0607,-3.0022,-2.8665,0.0,-2.749,-2.749,-2.7516,-2.7542,-2.7542,-2.796,-2.9196,-2.9431,-2.9823,0.0,-3.2176,0.0,0.0,-3.9808,0.0,0.0,0.0,0.0,0.0,0.0,0.0,-4.4668,-4.4173,-4.3598,-4.3049,-4.2474,-4.2185,-4.2159,-4.1585,-4.1324,-4.1324,-4.1274,-4.1097,-4.0896,-4.1097,0.0,0.0,0.0,0.0,0.0,-3.8074,-3.769,-3.7833,-3.7329,-3.6953,-3.6662,-3.6452,-3.6405,-3.6452,0.0,0.0,0.0,0.0,0.0,0.0,0.0,0.0,0.0,0.0,-1.8999,-1.9105,-1.9368,-1.9394,-1.9525,0.0,0.0,0.0,0.0,0.0,0.0,0.0,0.0,0.0,-2.2694,-2.2046,-2.2096,-2.292,-2.2619,-2.2694,-2.3095,-2.3095,-2.2985,-2.274,-2.2889,-2.2729,-2.2381,-2.2948,-2.3337,-2.3642,-2.4342,-2.4525,0.0,0.0,0.0,0.0,-2.4044,-2.4776,0.0,0.0,0.0,0.0,0.0,0.0,0.0,0.0,-2.749,-2.7646,-2.8325,0.0,-2.8926,-2.8926,-2.8647,-2.8273,0.0,-2.7735,-2.7456,-2.7356,-2.7423,-2.762,-2.8098,-2.8177,-2.8699,-3.032,-3.0947,-3.1301,-3.1562,-3.4162,0.0,-4.0566,-4.2317,-4.331,0.0,0.0,0.0,0.0,0.0,-4.4668,-4.4668,-4.4173,-4.3598,-4.3049,-4.2474,-4.1951,-4.1533,-4.1376,-4.1324,-4.1324,-4.0846,-4.0744,-4.0896,-4.0542,0.0,0.0,0.0,0.0,-3.8023,-3.7264,-3.689,-3.6748,-3.6653,-3.6531,-3.6452,-3.6405,-3.6405,-3.6405,0.0,0.0,0.0,0.0,0.0,0.0,0.0,0.0,0.0,0.0,0.0,-1.9105,-1.9368,-1.9394,0.0,0.0,0.0,0.0,0.0,0.0,0.0,0.0,0.0,-2.1895,-2.2719,-2.2171,-2.2146,-2.2719,-2.2694,-2.2819,-2.3095,-2.3095,-2.3155,-2.3275,-2.3367,-2.3249,-2.2934,-2.3322,-2.354,-2.3747,-2.4486,0.0,0.0,0.0,0.0,0.0,-2.4103,-2.4645,0.0,-2.5863,-2.6624,-2.739,0.0,0.0,0.0,0.0,-2.7456,-2.7456,-2.7315,-2.7356,-2.7568,-2.7863,-2.7673,-2.7568,-2.7762,-2.7598,-2.739,-2.739,-2.7598,-2.7918,-2.8333,-2.842,-2.8961,-3.0749,-3.1026,0.0,0.0,0.0,-3.8187,-4.1402,-4.2788,0.0,0.0,0.0,0.0,0.0,0.0,-4.4668,-4.4668,-4.4434,-4.3885,-4.3049,-4.2709,-4.216,-4.1324,-4.1147,-4.1097,-4.1097,-4.0694,-4.0491,-4.0542,-4.0338,-4.0084,0.0,0.0,0.0,-3.7733,-3.7152,-3.6726,-3.6405,-3.6405,-3.6405,-3.6405,-3.6405,-3.6405,-3.6405,0.0,0.0,0.0,0.0,0.0,0.0,0.0,0.0,0.0,0.0,0.0,0.0,0.0,0.0,0.0,0.0,0.0,0.0,0.0,0.0,0.0,0.0,-2.192,-2.187,-2.2393,-2.2418,-2.2418,-2.2418,-2.297,-2.3246,-2.3246,-2.3215,-2.3343,-2.3628,-2.3782,-2.3652,-2.3344,-2.3504,-2.3649,-2.3836,-2.4596,0.0,0.0,0.0,0.0,0.0,0.0,0.0,0.0,-2.5826,-2.6568,-2.7315,-2.7281,0.0,0.0,0.0,0.0,0.0,-2.7182,-2.7351,-2.7725,-2.8116,-2.7907,-2.7725,-2.8082,-2.772,-2.7289,-2.7356,-2.7755,-2.811,-2.8317,-2.856,-2.9291,-3.0973,0.0,0.0,-3.5861,-3.7116,-3.8658,-4.1376,-4.2631,0.0,0.0,0.0,0.0,0.0,0.0,-4.4668,-4.4668,-4.4643,-4.4121,-4.3049,-4.2892,-4.2344,-4.1274,-4.0997,-4.0896,-4.0846,-4.0542,-4.0338,-4.0134,-4.0287,-4.0058,0.0,0.0,0.0,-3.7713,-3.7262,-3.6832,-3.6405,-3.6405,-3.6405,-3.6405,-3.6405,-3.6405,-3.6405,0.0,0.0,0.0,0.0,0.0,0.0,0.0,0.0,0.0,0.0,0.0,0.0,0.0,0.0,0.0,0.0,0.0,0.0,0.0,0.0,0.0,-2.2945,-2.2443,-2.2447,-2.297,-2.297,-2.297,-2.297,-2.3577,-2.3879,-2.3879,-2.3698,-2.3473,-2.3286,-2.3192,-2.3434,-2.3904,-2.3912,-2.4378,-2.5095,-2.5261,0.0,0.0,0.0,0.0,0.0,0.0,0.0,0.0,-2.6274,-2.6799,-2.7281,-2.7113,0.0,0.0,0.0,0.0,0.0,-2.7618,-2.798,-2.8116,-2.759,-2.7866,-2.8082,-2.7352,-2.7266,-2.7188,-2.6884,-2.7352,-2.7936,-2.811,-2.9362,-3.0811,-3.2228,0.0,-3.7168,0.0,0.0,-4.135,-4.3258,0.0,0.0,0.0,0.0,0.0,0.0,0.0,-4.4668,-4.4668,-4.4278,-4.3702,-4.3049,-4.2346,-4.162,-4.0946,-4.0946,-4.0795,-4.0542,-4.0287,-4.0134,-4.0083,-3.9878,-3.9272,0.0,0.0,-3.7612,-3.6656,-3.6581,-3.648,-3.6405,-3.6405,-3.6405,-3.6405,-3.6405,-3.6405,-3.6405,0.0,0.0,0.0,0.0,0.0,0.0,0.0,0.0,0.0,0.0,0.0,0.0,0.0,0.0,0.0,0.0,0.0,0.0,0.0,0.0,-2.2072,-2.307,-2.2569,-2.2422,-2.2644,-2.2669,-2.2819,-2.3095,-2.3703,-2.4004,-2.4004,-2.3995,-2.3683,-2.3215,-2.3634,-2.3673,-2.3458,-2.3652,-2.4165,-2.4822,0.0,0.0,0.0,0.0,0.0,0.0,0.0,0.0,0.0,0.0,-2.6841,-2.7146,-2.7146,0.0,0.0,0.0,0.0,0.0,-2.7156,-2.7601,-2.8135,-2.8083,-2.8464,-2.8691,-2.7919,-2.7721,-2.7687,-2.7481,-2.7908,-2.8466,-2.8928,-3.0439,-3.246,-3.5087,0.0,-3.9181,-4.1402,-4.1481,-4.1847,0.0,0.0,0.0,0.0,0.0,0.0,0.0,0.0,0.0,-4.3833,-4.3546,-4.3154,-4.2579,-4.2215,-4.1645,-4.0896,-4.0744,-4.0542,-4.0287,-4.0032,-3.9878,-3.9878,-3.9473,-3.8969,-3.8467,0.0,-3.7538,-3.6857,-3.6857,-3.6681,-3.6405,-3.6405,-3.6405,-3.6405,-3.6405,-3.6405,-3.6405,0.0,0.0,0.0,0.0,0.0,0.0,0.0,0.0,0.0,0.0,0.0,0.0,0.0,0.0,0.0,0.0,0.0,0.0,0.0,-2.1828,-2.189,-2.301,-2.2844,-2.2648,-2.2468,-2.2648,-2.2924,-2.3296,-2.4029,-2.4349,-2.4254,-2.4082,-2.3725,-2.3377,-2.3923,-2.3746,-2.3087,-2.3465,-2.3919,-2.441,0.0,0.0,0.0,0.0,0.0,0.0,0.0,0.0,0.0,0.0,0.0,0.0,0.0,0.0,0.0,-2.7079,-2.7146,-2.7206,-2.6788,-2.7281,-2.802,-2.8513,-2.8918,-2.9229,-2.9236,-2.9051,-2.8846,-2.9031,-2.923,-2.9448,-2.9825,-3.1759,-3.4334,-3.7541,-3.9494,-4.0958,-4.1977,-4.2108,-4.2448,0.0,0.0,0.0,0.0,0.0,0.0,0.0,0.0,0.0,-4.3049,-4.2892,-4.2605,-4.2238,-4.1979,-4.1539,-4.0795,-4.0414,-4.0109,-3.988,-3.965,-3.9421,-3.9295,-3.8868,-3.8592,-3.8492,-3.8015,-3.7513,-3.6985,-3.6985,-3.6782,-3.6405,-3.6405,-3.6405,-3.6405,-3.6405,-3.6405,-3.6405,0.0,0.0,0.0,0.0,0.0,0.0,0.0,0.0,0.0,0.0,0.0,0.0,0.0,0.0,0.0,0.0,0.0,0.0,0.0,-2.1854,-2.2164,-2.2884,-2.3535,-2.3627,-2.3045,-2.3602,-2.3904,-2.3929,-2.4983,-2.5319,-2.501,-2.3831,-2.3474,-2.3722,-2.3312,-2.3136,-2.3215,-2.3758,-2.4198,-2.4623,-2.5162,0.0,0.0,0.0,0.0,0.0,0.0,0.0,0.0,0.0,0.0,0.0,0.0,0.0,-2.7281,-2.7045,-2.7146,-2.7283,-2.7268,-2.7561,-2.7985,-2.8359,-2.8739,-2.9507,-3.1304,-3.1368,-3.1134,-3.1786,-3.1527,-3.1019,-3.0381,-3.3327,-3.6418,-3.8344,-4.1428,-4.3781,-4.4408,0.0,0.0,0.0,0.0,0.0,0.0,0.0,0.0,0.0,0.0,0.0,-4.3023,-4.2526,-4.2264,-4.2211,-4.1435,-4.0821,-4.0542,-3.9753,-3.9398,-3.9347,-3.9095,-3.8642,-3.8115,-3.809,-3.7789,-3.7312,-3.7262,-3.6935,-3.6455,-3.6455,-3.643,-3.6405,-3.6405,-3.6405,-3.6405,-3.6405,-3.6405,-3.6405,0.0,0.0,0.0,0.0,0.0,0.0,0.0,0.0,0.0,0.0,0.0,0.0,0.0,0.0,0.0,0.0,0.0,0.0,0.0,-2.231,-2.2559,-2.2909,-2.361,-2.3904,-2.3647,-2.3879,-2.433,-2.4983,-2.5084,-2.5003,-2.4773,-2.4132,-2.3839,-2.3926,-2.3914,-2.3667,-2.3247,-2.3904,-2.4345,-2.4656,-2.5253,-2.5904,0.0,0.0,0.0,0.0,0.0,0.0,0.0,0.0,-2.6602,-2.6714,-2.6943,-2.7045,-2.7113,-2.7011,-2.6977,-2.6901,-2.682,-2.7157,-2.7779,-2.8875,-2.9397,-2.9985,-3.1161,-3.1826,-3.2332,-3.2803,-3.329,-3.3579,-3.3471,-3.5556,-3.79,-3.9991,-4.2317,-4.433,-4.5637,0.0,0.0,0.0,0.0,0.0,0.0,0.0,0.0,0.0,0.0,0.0,-4.1977,-4.1768,-4.1638,-4.1638,-4.1151,-4.0665,-4.0279,-3.9624,-3.8941,-3.8231,-3.8314,-3.8216,-3.799,-3.7638,-3.7387,-3.7161,-3.6883,-3.6606,-3.6405,-3.6405,-3.6405,-3.6405,-3.6405,-3.6405,-3.6405,-3.6405,-3.6405,-3.6405,0.0,0.0,0.0,0.0,0.0,0.0,0.0,0.0,0.0,0.0,0.0,0.0,0.0,0.0,0.0,0.0,0.0,0.0,-2.2328,-2.2604,-2.2886,-2.3065,-2.3829,-2.433,-2.4506,-2.4506,-2.4782,-2.536,-2.4743,-2.4496,-2.4549,-2.3919,-2.3847,-2.4235,-2.4261,-2.4077,-2.3733,-2.432,-2.4624,-2.4806,-2.5361,-2.5904,0.0,0.0,0.0,0.0,0.0,0.0,0.0,0.0,-2.6291,-2.6392,-2.6595,-2.6654,-2.668,-2.6858,-2.668,-2.6426,-2.6257,-2.6499,-2.7122,-2.8594,-2.9478,-3.0429,-3.197,-3.3335,-3.4488,-3.5203,-3.537,-3.5429,-3.5654,-3.7059,0.0,0.0,-4.2788,-4.4565,-4.5741,0.0,0.0,0.0,0.0,0.0,0.0,0.0,0.0,0.0,0.0,0.0,0.0,-4.1324,-4.1219,-4.1036,-4.0787,-4.0352,-3.9734,-3.9062,-3.8309,-3.7475,-3.7484,-3.7487,-3.7462,-3.7086,-3.6983,-3.6958,-3.6581,-3.6405,-3.6405,-3.6405,-3.6405,-3.6405,-3.6405,-3.6405,-3.6405,-3.6405,-3.6405,-3.6405,0.0,0.0,0.0,0.0,0.0,0.0,0.0,0.0,0.0,0.0,0.0,0.0,0.0,0.0,0.0,0.0,0.0,0.0,-2.2197,-2.2635,-2.3065,-2.3484,-2.4339,-2.5084,-2.5586,-2.5586,-2.5335,-2.4775,-2.4065,-2.397,-2.4466,-2.3088,-2.3271,-2.4779,-2.4102,-2.4174,-2.4803,-2.4997,-2.5099,-2.5133,-2.5478,-2.5861,-2.6213,0.0,0.0,0.0,0.0,0.0,0.0,0.0,-2.5611,-2.5644,-2.5843,-2.5902,-2.6003,-2.6561,-2.6333,-2.5869,-2.5678,-2.5611,-2.5954,-2.7297,-2.8759,-3.0763,-3.4237,-3.6286,-3.7933,-3.9422,-3.7853,-3.6268,-3.6314,-3.7629,0.0,-4.0252,-4.284,-4.4668,0.0,0.0,0.0,0.0,0.0,0.0,0.0,0.0,0.0,0.0,0.0,0.0,0.0,-4.1298,-4.1036,-4.0435,-4.0164,-3.9659,-3.8774,-3.7995,-3.7475,-3.7161,-3.6681,-3.6405,-3.6405,-3.6405,-3.6405,-3.6405,-3.6405,-3.6405,-3.6405,-3.6405,-3.6405,-3.6405,-3.6405,-3.6405,-3.6405,-3.6405,-3.6405,-3.6405,0.0,0.0,0.0,0.0,0.0,0.0,0.0,0.0,0.0,0.0,0.0,0.0,0.0,0.0,0.0,0.0,0.0,0.0,-2.2328,-2.2972,-2.3423,-2.3634,-2.4753,-2.5435,-2.5586,-2.5586,-2.5159,-2.4255,-2.4017,-2.3985,-2.4135,-2.3836,-2.3945,-2.4459,-2.474,-2.4633,-2.4268,-2.4691,-2.4964,-2.5099,-2.52,-2.5555,-2.6015,0.0,0.0,0.0,0.0,0.0,0.0,0.0,0.0,0.0,-2.6266,-2.6139,-2.5812,-2.6527,-2.651,-2.6316,-2.6248,-2.6905,-2.7972,-2.953,-3.1139,-3.314,-3.6335,-3.7169,-3.8037,-4.0612,-4.0287,-3.9352,-3.8965,-3.9774,0.0,-4.0984,-4.2788,0.0,0.0,0.0,0.0,0.0,0.0,0.0,0.0,0.0,0.0,0.0,0.0,0.0,0.0,-4.0697,-4.0592,-4.0435,-3.9628,-3.8871,-3.8236,-3.7625,-3.7081,-3.6656,-3.648,-3.6405,-3.6405,-3.6405,-3.6405,-3.6405,-3.6405,-3.6405,-3.6405,-3.6405,-3.6405,-3.6405,-3.6405,-3.6405,-3.6405,-3.6405,-3.6405,-3.6405,0.0,0.0,0.0,0.0,0.0,0.0,0.0,0.0,0.0,0.0,-2.0757,-2.1305,0.0,0.0,0.0,0.0,0.0,0.0,-2.2462,-2.3147,-2.3737,-2.4221,-2.5128,-2.5711,-2.5971,-2.5711,-2.5285,-2.4632,-2.4431,-2.433,-2.433,-2.4367,-2.4386,-2.4402,-2.4969,-2.4891,-2.4341,-2.4749,-2.5018,-2.5188,-2.5105,-2.5384,-2.5781,0.0,0.0,0.0,0.0,0.0,0.0,0.0,0.0,0.0,-2.5862,-2.5778,-2.5669,-2.5895,-2.6038,-2.6147,-2.6147,-2.7091,-2.85,-3.0164,-3.225,-3.4678,-3.7763,-3.8813,-3.9854,-4.2265,-4.1926,-4.1258,-4.1311,-4.1331,0.0,-4.1925,0.0,0.0,0.0,0.0,0.0,0.0,0.0,0.0,0.0,0.0,0.0,0.0,0.0,0.0,0.0,-4.0095,-3.9991,-3.973,-3.8936,-3.821,-3.7646,-3.7146,-3.6732,-3.6405,-3.6405,-3.6405,-3.6405,-3.6405,-3.6405,-3.6405,-3.6405,-3.6405,-3.6405,-3.6405,-3.6405,-3.6405,-3.6405,-3.6405,-3.6405,-3.6405,-3.6405,-3.6405,0.0,0.0,0.0,0.0,0.0,0.0,0.0,0.0,0.0,0.0,-2.0879,-2.1201,0.0,0.0,0.0,0.0,0.0,0.0,0.0,-2.3288,-2.4067,-2.5084,-2.5494,-2.5912,-2.6474,-2.5971,-2.5661,-2.5661,-2.5109,-2.48,-2.48,-2.4721,-2.4623,-2.4541,-2.4969,-2.5046,-2.4837,-2.4997,-2.5154,-2.5311,-2.5125,-2.5247,-2.5606,-2.5805,0.0,0.0,0.0,0.0,0.0,0.0,0.0,0.0,-2.5034,-2.5184,-2.5435,-2.4926,-2.5184,-2.5611,-2.5661,-2.6737,-2.8221,-2.9935,-3.2714,-3.5808,-3.8686,-4.0823,-4.2541,-4.3746,-4.2903,-4.219,-4.3174,-4.232,-4.1821,-4.284,0.0,0.0,0.0,0.0,0.0,0.0,0.0,0.0,0.0,0.0,0.0,0.0,0.0,0.0,0.0,-3.9599,-3.9364,-3.8815,-3.8239,-3.7646,-3.7108,-3.664,-3.6405,-3.6405,-3.6405,-3.6405,-3.6405,-3.6405,-3.6405,-3.6405,-3.6405,-3.6405,-3.6405,-3.6405,-3.6405,-3.6405,-3.6405,-3.6405,-3.6405,-3.6405,-3.6405,-3.6405,0.0,0.0,0.0,0.0,0.0,0.0,0.0,0.0,0.0,0.0,0.0,0.0,0.0,0.0,0.0,0.0,0.0,0.0,0.0,-2.4001,-2.4795,-2.5453,-2.6038,-2.6373,-2.6499,-2.6373,-2.6298,-2.6298,-2.5285,-2.48,-2.48,-2.5029,-2.4971,-2.4623,-2.5364,-2.5458,-2.5031,-2.4905,-2.5119,-2.5487,-2.4885,-2.4912,-2.5394,-2.5571,-2.5805,0.0,0.0,0.0,0.0,0.0,0.0,0.0,-2.546,-2.5234,-2.4926,-2.4825,-2.5184,-2.5686,-2.6172,-2.79,-3.0037,-3.1962,-3.5375,-3.8608,-3.9677,-4.0927,-4.1905,-4.1977,-4.2733,-4.3336,-4.3127,-4.284,-4.2735,0.0,0.0,0.0,0.0,0.0,0.0,0.0,0.0,0.0,0.0,0.0,0.0,0.0,0.0,0.0,-3.9651,-3.9599,-3.9547,-3.9416,-3.8058,-3.7236,-3.7108,-3.664,-3.6405,0.0,-3.6405,-3.6405,-3.6405,-3.6405,-3.6405,-3.6405,-3.6405,-3.6405,-3.6405,-3.6405,-3.6405,-3.6405,-3.6405,-3.6405,-3.6405,-3.6405,-3.6405,-3.6405,0.0,0.0,0.0,0.0,0.0,0.0,0.0,0.0,0.0,0.0,0.0,0.0,0.0,0.0,0.0,0.0,0.0,0.0,0.0,0.0,-2.5154,-2.5877,-2.6108,-2.6258,-2.6327,-2.6361,-2.6361,-2.6361,-2.5854,-2.5611,-2.5611,-2.5786,-2.5602,-2.5103,-2.585,-2.5787,-2.5124,-2.5267,-2.5397,-2.5441,-2.5046,-2.5059,-2.53,-2.543,-2.5571,-2.577,-2.5875,0.0,0.0,0.0,0.0,0.0,0.0,0.0,-2.475,-2.4474,-2.4808,-2.541,-2.6273,-2.8077,-3.0507,-3.3835,-3.6463,-3.8589,-3.9676,-4.0388,-4.0873,-4.1131,-4.2398,-4.3363,-4.3075,-4.2788,-4.2605,0.0,0.0,0.0,0.0,0.0,0.0,0.0,0.0,0.0,0.0,0.0,0.0,0.0,0.0,-4.0514,-3.9651,-3.9599,-3.9599,-3.9599,-3.8523,-3.78,-3.7544,-3.7045,-3.6681,-3.6405,-3.6405,-3.6405,-3.6405,-3.6681,-3.6656,-3.643,-3.6681,-3.6656,-3.6405,-3.6405,-3.6405,-3.6405,-3.6405,-3.6405,-3.6405,-3.6405,-3.6405,-3.6405,0.0,0.0,0.0,0.0,0.0,0.0,0.0,0.0,0.0,0.0,0.0,0.0,0.0,0.0,0.0,0.0,0.0,0.0,0.0,0.0,0.0,-2.6084,-2.598,-2.598,-2.6144,-2.6144,-2.6144,-2.6144,-2.6292,-2.6531,-2.6741,-2.6575,-2.6298,-2.5912,-2.6323,-2.6043,-2.5305,-2.5714,-2.5676,-2.5359,-2.53,-2.53,-2.53,-2.53,-2.543,-2.5606,-2.5606,-2.584,-2.6144,-2.6144,0.0,0.0,0.0,0.0,-2.465,-2.4029,-2.4305,-2.5034,-2.6072,-2.7976,-3.0685,-3.5021,-3.6607,-3.7457,-3.8985,-3.9517,-3.9899,-4.0563,-4.1774,-4.2735,-4.2735,-4.2343,0.0,0.0,0.0,0.0,0.0,0.0,0.0,0.0,0.0,0.0,0.0,0.0,0.0,0.0,0.0,-4.0305,-3.9651,-3.9599,-3.9573,-3.942,-3.881,-3.8287,-3.7804,-3.7301,-3.6857,-3.6405,-3.6405,-3.6405,-3.643,-3.6883,-3.6832,-3.643,-3.6883,-3.6832,-3.6405,-3.6405,-3.6405,-3.6405,-3.6405,-3.6405,-3.6405,-3.6405,-3.6405,-3.6405,0.0,0.0,0.0,0.0,0.0,0.0,0.0,0.0,0.0,0.0,-2.1445,-2.1426,0.0,0.0,0.0,0.0,0.0,0.0,0.0,0.0,0.0,-2.5676,-2.584,-2.591,-2.5945,-2.5945,-2.5945,-2.5945,-2.598,-2.6555,-2.7628,-2.6857,-2.67,-2.7077,-2.6675,-2.6311,-2.6045,-2.5955,-2.577,-2.5535,-2.537,-2.53,-2.53,-2.53,-2.543,-2.5606,-2.5606,-2.5746,-2.5945,-2.5945,-2.6,0.0,0.0,0.0,-2.4575,-2.3521,-2.3973,-2.4926,-2.5561,-2.836,-3.1786,-3.4578,-3.5911,-3.6729,-3.7673,-3.8807,-3.9746,0.0,-4.0739,-4.1533,-4.1533,0.0,0.0,0.0,0.0,0.0,0.0,0.0,0.0,0.0,0.0,0.0,0.0,0.0,0.0,0.0,-4.0644,-4.0723,-3.9677,-3.9599,-3.9268,-3.8584,-3.7736,-3.7194,-3.6883,-3.66,-3.648,-3.6405,-3.6405,-3.6405,-3.6405,-3.648,-3.648,-3.6405,-3.648,-3.648,-3.6405,-3.6405,-3.6405,-3.6405,-3.6405,-3.6405,-3.6405,-3.6405,-3.6405,-3.6405,0.0,0.0,0.0,0.0,0.0,0.0,0.0,0.0,0.0,0.0,0.0,-2.2095,0.0,0.0,0.0,0.0,0.0,0.0,0.0,0.0,0.0,-2.5606,-2.5571,-2.5606,-2.5711,-2.5711,-2.5711,-2.5711,-2.6135,-2.6782,-2.7631,-2.7641,-2.7862,-2.8197,-2.7946,-2.7387,-2.6636,-2.6424,-2.6075,-2.5571,-2.5394,-2.53,-2.53,-2.53,-2.5335,-2.543,-2.543,-2.5571,-2.5711,-2.5711,-2.5724,-2.5558,-2.4666,0.0,0.0,0.0,-2.3635,-2.4173,-2.5686,-2.8284,-3.0999,-3.297,-3.4488,-3.5672,-3.6531,-3.7664,-3.8625,-3.8917,-3.9599,-4.0343,0.0,0.0,0.0,0.0,0.0,0.0,0.0,0.0,0.0,0.0,0.0,0.0,0.0,0.0,0.0,0.0,-4.0723,-4.0543,-3.9901,-3.9563,-3.9132,-3.8633,-3.8089,-3.7464,-3.6734,-3.6802,-3.6508,-3.5906,-3.5579,-3.5604,-3.5906,-3.5906,-3.6081,-3.6405,-3.6405,-3.6405,-3.6405,-3.6405,-3.6405,-3.6405,-3.6405,-3.6405,-3.6405,-3.6405,-3.6405,-3.6405,0.0,0.0,0.0,0.0,0.0,0.0,0.0,0.0,0.0,0.0,0.0,0.0,0.0,0.0,0.0,0.0,0.0,0.0,0.0,0.0,0.0,-2.5535,-2.5394,-2.537,-2.5535,-2.5535,-2.5535,-2.5535,-2.6212,-2.7042,-2.7939,-2.851,-2.9048,-2.949,-2.9088,-2.8225,-2.711,-2.6807,-2.6333,-2.567,-2.5263,-2.518,-2.53,-2.5155,-2.518,-2.53,-2.53,-2.5394,-2.5535,-2.5535,-2.5442,-2.5241,-2.4484,-2.4211,0.0,0.0,0.0,-2.3948,-2.5971,-2.7907,-2.9729,-3.1235,-3.2742,-3.4117,-3.5046,0.0,-3.7155,0.0,-3.8545,-3.934,0.0,0.0,0.0,0.0,0.0,0.0,0.0,0.0,0.0,0.0,0.0,0.0,0.0,0.0,0.0,0.0,-4.0363,-4.0002,-3.9748,-3.9262,-3.8807,-3.8364,-3.8123,-3.7473,-3.6463,-3.6528,-3.6207,-3.5483,-3.4931,-3.4881,-3.5282,-3.5157,-3.5504,-3.6157,-3.6355,-3.6405,-3.6405,-3.6405,-3.6405,-3.6405,-3.6405,-3.648,-3.6606,-3.6455,-3.6505,-3.6606,0.0,0.0,0.0,0.0,0.0,0.0,0.0,0.0,0.0,0.0,0.0,0.0,-2.3572,-2.3677,-2.3805,-2.4013,-2.4508,0.0,0.0,0.0,0.0,-2.53,-2.5324,0.0,-2.53,-2.53,-2.53,-2.53,-2.5865,-2.7149,-2.911,-2.9135,-2.9901,-3.1185,-2.9628,-2.8375,-2.7434,-2.6943,-2.6456,-2.5973,-2.4963,-2.4867,-2.5252,-2.4747,-2.4867,-2.53,-2.53,-2.5324,-2.53,0.0,0.0,0.0,0.0,-2.4304,-2.43,0.0,0.0,0.0,-2.6172,-2.7354,-2.8473,-2.9628,-3.0758,-3.1863,-3.2986,0.0,-3.5537,-3.6675,-3.7715,0.0,0.0,0.0,0.0,0.0,0.0,0.0,0.0,0.0,0.0,0.0,0.0,0.0,0.0,0.0,0.0,0.0,-3.9265,-3.9103,-3.8794,-3.8553,-3.8058,-3.7211,-3.6951,-3.6391,-3.5604,-3.5102,-3.5031,-3.5483,-3.4931,-3.468,-3.4705,-3.4223,-3.4575,-3.5583,-3.6132,-3.6405,-3.6405,-3.6405,-3.6405,-3.6405,-3.6405,-3.6732,-3.7086,-3.6606,-3.6732,-3.7061,0.0,0.0,0.0,0.0,0.0,0.0,0.0,0.0,0.0,0.0,0.0,0.0,0.0,-2.4108,-2.4425,-2.4496,-2.4803,0.0,0.0,0.0,0.0,-2.53,-2.53,-2.53,-2.53,-2.53,-2.53,-2.53,-2.5829,-2.6529,-2.7433,-2.8639,-2.939,-2.9674,-2.9877,-2.9388,-2.8363,-2.7903,-2.7421,-2.6931,-2.6287,-2.5973,-2.5829,-2.6142,-2.613,-2.6093,-2.6554,0.0,0.0,0.0,0.0,0.0,0.0,-2.4392,-2.4164,-2.3139,-2.3766,-2.4876,-2.5178,-2.6396,-2.777,-2.8524,-2.9553,-3.0557,-3.1311,-3.2424,-3.3492,-3.4451,-3.5239,0.0,0.0,0.0,0.0,0.0,0.0,0.0,0.0,0.0,0.0,0.0,0.0,0.0,0.0,0.0,0.0,0.0,0.0,-3.8566,-3.8265,-3.7809,-3.7313,-3.6875,-3.664,-3.6351,-3.6081,-3.5177,-3.4956,-3.5483,-3.4931,-3.4856,-3.5207,-3.5006,-3.5353,-3.6056,-3.5906,-3.583,-3.583,-3.583,-3.583,-3.5881,-3.6279,-3.6257,-3.6182,-3.6709,-3.6558,-3.6257,0.0,0.0,0.0,0.0,0.0,0.0,0.0,0.0,-2.355,-2.2873,0.0,0.0,0.0,0.0,-2.4657,-2.467,-2.4885,-2.5076,-2.5218,-2.5264,-2.53,-2.53,-2.53,-2.53,-2.53,-2.53,-2.53,-2.53,-2.6021,-2.6589,-2.7004,-2.8425,-2.9071,-2.9142,-2.9806,-2.9671,-2.896,-2.8903,-2.839,-2.7491,-2.6866,-2.655,-2.6406,-2.6723,-2.6906,-2.7029,-2.7519,0.0,0.0,0.0,0.0,0.0,0.0,0.0,-2.414,-2.3427,-2.4038,-2.4953,-2.488,-2.5902,-2.7128,-2.7469,-2.8247,-2.9151,-2.988,-3.0758,-3.1703,-3.2803,0.0,0.0,0.0,0.0,0.0,0.0,0.0,0.0,0.0,0.0,0.0,0.0,0.0,0.0,0.0,0.0,0.0,0.0,0.0,0.0,-3.7698,-3.722,-3.6875,-3.6615,-3.6276,-3.6182,-3.6405,-3.5278,-3.4956,-3.5483,-3.4931,-3.4881,-3.5232,-3.5232,-3.5454,-3.578,-3.5228,-3.5157,-3.5483,-3.5307,-3.5232,-3.5257,-3.568,-3.5705,-3.5608,-3.6584,-3.6558,-3.6257,0.0,0.0,0.0,0.0,0.0,0.0,0.0,0.0,-2.42,-2.4164,0.0,0.0,0.0,0.0,0.0,-2.4513,-2.4717,-2.4909,-2.5099,-2.5277,-2.5348,-2.5348,0.0,0.0,-2.5348,-2.5348,-2.5348,-2.5348,-2.6369,-2.7276,-2.8076,-2.8524,-2.9178,-2.9917,-2.9376,-2.9116,-2.914,-2.9721,-2.9114,-2.7681,-2.6598,-2.6502,-2.6898,-2.6406,-2.7026,-2.8139,-2.81,-2.7759,0.0,-2.6688,0.0,0.0,0.0,-2.453,-2.4198,-2.4198,-2.4723,-2.5277,0.0,0.0,0.0,-2.6499,-2.6866,0.0,-2.8587,0.0,-3.0206,-3.1813,0.0,0.0,0.0,0.0,0.0,0.0,0.0,0.0,0.0,0.0,0.0,0.0,0.0,0.0,0.0,0.0,0.0,0.0,-3.6709,-3.6803,-3.7062,-3.6849,-3.6615,-3.6405,-3.5855,-3.583,-3.6405,-3.5303,-3.4981,-3.5508,-3.4981,-3.4731,-3.4731,-3.4731,-3.4731,-3.4751,-3.4173,-3.4525,-3.5433,-3.4881,-3.47,-3.47,-3.468,-3.5006,-3.5533,-3.6132,-3.6707,-3.7086,0.0,0.0,0.0,0.0,0.0,-2.2628,-2.2327,-2.315,-2.3666,0.0,0.0,0.0,-2.4705,-2.4839,-2.5061,-2.5392,-2.5488,-2.5611,-2.5805,-2.6225,-2.6441,-2.6441,-2.6441,-2.6441,-2.6441,-2.6181,-2.6181,-2.6441,-2.6467,-2.6743,-2.7251,-2.7912,-2.8344,-2.8592,-2.9371,-2.9444,-2.8895,-2.9041,-2.9123,-2.8987,-2.8153,-2.824,-2.8858,-2.891,-2.8929,0.0,0.0,-2.9401,-2.8109,0.0,-2.7753,-2.6493,0.0,-2.4919,-2.4545,-2.4056,-2.4514,-2.5133,-2.4973,0.0,0.0,0.0,0.0,0.0,0.0,0.0,0.0,0.0,0.0,0.0,0.0,0.0,0.0,0.0,0.0,0.0,0.0,0.0,0.0,0.0,0.0,0.0,0.0,0.0,0.0,0.0,-3.6615,-3.6709,-3.6803,-3.6709,-3.6615,-3.6405,-3.6254,-3.6207,-3.6405,-3.6103,-3.5981,-3.6132,-3.5981,-3.5952,-3.5952,-3.5952,-3.5952,-3.5902,-3.4901,-3.4675,-3.4856,-3.4349,-3.4123,-3.4173,-3.4575,-3.4575,-3.4474,-3.5429,-3.5353,-3.5027,0.0,0.0,0.0,0.0,0.0,-2.2853,-2.2394,-2.3558,-2.4258,0.0,0.0,0.0,-2.5347,-2.5309,-2.5521,-2.6083,-2.5971,-2.6046,-2.6417,-2.6556,-2.6747,-2.6898,-2.6898,-2.6898,-2.6898,-2.6647,-2.6671,-2.6898,-2.6885,-2.6981,-2.7234,-2.7893,-2.8237,-2.8261,-2.9034,-2.9132,-2.8657,-2.8657,-2.8866,-2.9093,-2.8659,-2.8931,-2.9634,-2.978,-3.004,0.0,0.0,0.0,-2.9821,-2.9568,-2.8494,0.0,0.0,0.0,-2.5562,0.0,-2.5172,-2.5575,-2.5251,-2.5526,-2.5959,-2.6181,0.0,0.0,-2.7013,-2.7519,0.0,0.0,0.0,0.0,0.0,0.0,0.0,0.0,0.0,0.0,0.0,0.0,0.0,0.0,0.0,0.0,0.0,-3.5881,-3.6006,-3.6006,-3.6373,-3.6593,-3.6593,-3.6593,-3.6546,-3.6405,-3.6405,-3.6405,-3.6405,-3.6405,-3.6405,-3.6405,-3.6405,-3.6405,-3.6405,-3.6405,-3.6279,-3.5981,-3.5102,-3.46,-3.4324,-3.3796,-3.3545,-3.3596,-3.3897,-3.3847,-3.3696,-3.4756,-3.4756,-3.4405,0.0,0.0,-2.188,-2.188,-2.2947,-2.3655,-2.319,-2.4493,-2.5289,0.0,-2.5217,-2.5885,-2.6124,-2.5769,-2.5846,-2.6623,-2.6308,-2.6323,-2.6914,-2.6585,-2.6585,-2.699,-2.699,-2.699,-2.699,-2.6952,-2.6952,-2.699,-2.743,-2.7708,-2.7897,-2.833,-2.8546,-2.8595,-2.8546,-2.8522,-2.8522,-2.8522,-2.8546,-2.8634,-2.8707,-2.9254,-3.0041,-3.0041,-3.0851,-3.2003,-3.2095,-3.2037,-3.1664,-3.0154,-2.8667,0.0,0.0,0.0,0.0,0.0,-2.6251,-2.6275,-2.5791,-2.5836,-2.6064,0.0,0.0,0.0,-2.714,-2.757,-2.7866,0.0,0.0,0.0,0.0,0.0,0.0,0.0,0.0,0.0,0.0,0.0,0.0,0.0,0.0,0.0,-3.4625,-3.5082,-3.5408,-3.5408,-3.5906,-3.6204,-3.6128,-3.6254,-3.6329,-3.6329,-3.638,-3.6405,-3.6405,-3.6405,-3.6405,-3.6405,-3.6405,-3.6405,-3.6405,-3.6405,-3.6056,-3.5458,-3.4906,-3.4399,-3.3847,-3.3294,-3.3111,-3.3111,-3.3111,-3.3111,-3.3194,-3.404,-3.4345,-3.4284,0.0,-2.2108,-2.2356,-2.2356,-2.3163,-2.3639,-2.324,-2.4003,-2.4601,-2.4421,-2.5526,-2.6513,-2.6927,-2.6662,-2.6688,-2.7265,-2.6837,-2.679,-2.7345,-2.7168,-2.7232,-2.7695,-2.7695,-2.7695,-2.7695,-2.7352,-2.7312,-2.7695,-2.7405,-2.7864,-2.8979,-2.8667,-2.8739,-2.9124,-2.8691,-2.8522,-2.8522,-2.8522,-2.8819,-2.9432,-2.9893,-3.1167,-3.2742,-3.2785,-3.2773,-3.2692,-3.3289,-3.2546,-3.1249,-3.0925,-2.992,-2.8748,0.0,0.0,0.0,-2.6633,0.0,0.0,0.0,0.0,0.0,0.0,0.0,0.0,-2.653,-2.6968,-2.7262,0.0,0.0,0.0,0.0,0.0,0.0,0.0,0.0,0.0,0.0,0.0,0.0,0.0,0.0,0.0,-3.4022,-3.455,-3.4831,-3.4831,-3.4977,-3.4851,-3.4399,-3.5228,-3.5658,-3.5658,-3.6132,-3.6405,-3.6405,-3.6405,-3.6405,-3.6405,-3.6405,-3.6405,-3.6405,-3.6405,-3.6056,-3.5458,-3.4906,-3.4399,-3.3847,-3.3294,-3.3111,-3.3111,-3.3111,-3.3111,-3.3007,-3.244,-3.2204,-3.2216,-2.242,-2.2687,-2.2832,-2.2832,-2.3568,-2.4006,-2.3618,-2.4645,-2.5292,-2.487,-2.5844,-2.6998,-2.8194,-2.7944,-2.7998,-2.871,-2.8004,-2.7658,-2.8029,-2.7638,-2.7661,-2.8216,-2.8492,-2.8639,-2.8583,-2.8356,-2.8238,-2.8203,-2.8238,-2.862,-2.9292,-2.9292,-2.9292,-2.9292,-2.9027,-2.8907,-2.8907,-2.8907,-2.9463,-3.0372,-3.0146,-3.1129,-3.2723,-3.2766,-3.281,-3.2989,-3.3351,-3.2724,-3.1647,-3.1564,-3.1092,0.0,0.0,-2.8645,-2.8149,0.0,-2.6976,-2.6548,0.0,0.0,0.0,-2.6341,0.0,0.0,0.0,-2.6661,-2.6986,-2.7024,-2.7211,0.0,0.0,0.0,0.0,0.0,0.0,0.0,0.0,0.0,0.0,0.0,0.0,0.0,-3.2616,-3.3144,-3.3696,-3.4274,-3.4299,-3.4299,-3.4299,-3.4781,-3.5207,-3.5483,-3.5805,-3.6081,-3.6405,-3.6405,-3.6405,-3.6405,-3.6405,-3.6405,-3.6405,-3.6405,-3.6207,-3.5931,-3.5332,-3.4781,-3.4274,-3.3721,-3.3319,-3.3111,-3.3111,-3.3111,-3.2982,-3.1977,-3.1581,-3.1475,-2.3081,-2.3267,-2.3308,-2.3308,-2.3969,-2.4388,-2.4096,-2.5206,-2.5995,-2.5588,-2.634,-2.7657,-2.9582,-2.9246,-2.9425,-3.0721,-2.9339,-2.854,-2.8966,-2.8153,-2.7908,-2.8425,-2.9085,-2.9319,-2.9193,-2.9265,-2.908,-2.8529,-2.908,-2.9385,-2.948,-2.9899,-2.9917,-2.9581,-2.9388,-2.9364,-2.9436,-2.9381,-3.006,-3.1101,-3.0292,-3.0859,-3.2184,-3.2326,-3.2728,-3.3201,-3.3244,-3.2825,-3.2306,-3.2304,-3.2127,-3.1702,-3.0106,-2.9919,0.0,0.0,0.0,0.0,0.0,0.0,0.0,0.0,0.0,-2.5683,0.0,0.0,0.0,-2.6836,0.0,0.0,0.0,0.0,0.0,0.0,0.0,0.0,0.0,0.0,0.0,0.0,0.0,0.0,0.0,-3.1738,-3.239,-3.3219,-3.347,-3.3721,-3.4073,-3.4399,-3.4731,-3.5182,-3.5282,-3.5604,-3.6078,-3.6204,-3.6207,-3.6207,-3.6355,-3.6405,-3.6405,-3.6405,-3.6355,-3.6182,-3.5683,-3.5132,-3.4525,-3.4073,-3.3571,-3.3111,-3.3111,-3.2982,-3.2723,-3.1713,-3.1226,-3.0847,-2.3185,-2.3515,-2.3805,-2.3805,-2.4199,-2.4467,-2.4425,-2.4594,-2.521,-2.6604,-2.7563,-2.8914,-3.0965,-3.0295,-3.0676,-3.3171,-3.0477,-2.9157,-3.0354,-2.8912,-2.7947,-2.7985,-2.8892,-2.915,-2.8675,-2.9164,-2.9141,-2.8668,-2.9141,-2.9635,-3.0107,-3.0109,-3.0302,-3.0706,-2.9725,-2.9556,-3.0007,-2.969,-3.0202,-3.1217,-3.1357,-3.2056,0.0,-3.3826,-3.3816,-3.3488,-3.3709,-3.3314,-3.2698,0.0,-3.289,-3.2315,0.0,-3.0971,-2.9829,-3.0121,0.0,0.0,0.0,0.0,0.0,0.0,-2.6094,0.0,0.0,0.0,-2.52,-2.5185,0.0,0.0,0.0,0.0,0.0,0.0,0.0,0.0,0.0,0.0,0.0,0.0,0.0,0.0,0.0,-3.1185,-3.1336,-3.1009,-3.1863,-3.2215,-3.1788,-3.3169,-3.4022,-3.4073,-3.455,-3.4806,-3.4901,-3.5357,-3.5583,-3.5608,-3.6132,-3.6405,-3.6405,-3.6405,-3.6107,-3.5583,-3.5533,-3.4906,-3.3997,-3.3922,-3.3571,-3.3111,-3.3111,-3.2568,-3.1669,-3.0711,-2.9806,-2.8973,-2.3719,-2.4052,-2.426,-2.426,-2.4383,-2.4572,-2.4871,-2.6257,-2.7788,-2.9164,-2.9918,-3.1067,-3.2959,-3.2977,-3.3428,-3.5017,0.0,-3.2508,0.0,0.0,-2.9815,-2.993,-3.0141,-3.0067,-2.955,-2.9996,-2.9734,-2.8614,-2.9456,-2.9997,-3.0208,-3.0454,-3.0691,-3.0898,-3.0086,-3.0314,-3.1234,-3.0761,-3.1449,-3.2828,-3.2602,-3.2965,0.0,-3.3479,-3.3358,-3.3339,-3.3727,-3.3371,-3.2847,0.0,-3.3527,0.0,0.0,0.0,0.0,0.0,0.0,0.0,0.0,0.0,0.0,0.0,0.0,0.0,-2.582,0.0,-2.4873,0.0,0.0,0.0,0.0,0.0,0.0,0.0,-2.5624,0.0,0.0,0.0,0.0,0.0,0.0,0.0,0.0,0.0,0.0,0.0,-3.0778,-3.1461,-3.1838,-3.2541,-3.3219,-3.3872,-3.4123,-3.4399,-3.468,-3.4906,-3.5031,-3.5031,-3.5629,-3.56,-3.501,-3.5328,-3.5353,-3.5037,-3.4463,-3.4238,-3.4329,-3.3695,-3.3291,-3.3025,-3.2438,-3.1977,-3.1516,-3.0811,-2.9959,-2.9102,-2.3996,-2.4335,-2.4507,-2.4507,-2.4615,-2.4955,-2.5787,-2.7767,-2.9692,-3.1155,-3.1693,-3.2813,-3.5081,-3.5645,-3.6354,-3.7626,-3.696,-3.601,0.0,0.0,-3.1993,-3.1386,0.0,0.0,0.0,-3.0457,-2.9966,-2.8742,-2.9637,-2.9999,-2.9933,-3.046,-3.0793,-3.0898,-3.0472,-3.0951,-3.1957,-3.1801,-3.245,-3.3682,-3.3506,-3.3601,-3.3814,-3.333,-3.3202,-3.3395,-3.4098,-3.382,-3.3319,-3.4445,-3.4216,0.0,-3.3909,0.0,0.0,0.0,0.0,0.0,-2.9499,0.0,0.0,0.0,0.0,0.0,0.0,0.0,0.0,0.0,0.0,0.0,0.0,0.0,0.0,-2.4619,0.0,-2.5203,0.0,0.0,0.0,0.0,0.0,0.0,0.0,0.0,0.0,0.0,0.0,-3.0703,-3.1712,-3.2064,-3.2591,-3.342,-3.3596,-3.3872,-3.4274,-3.4424,-3.45,-3.45,-3.5006,-3.4823,-3.4006,-3.439,-3.4486,-3.4337,-3.3549,-3.3598,-3.4177,-3.3419,-3.2925,-3.2612,-3.1889,-3.1342,-3.0946,-3.0695,-2.9913,-2.9064,-2.3797,-2.4186,-2.4507,-2.4507,-2.4871,-2.5765,-2.7457,-2.8321,-2.9648,-3.1973,-3.223,-3.3549,-3.71,0.0,0.0,0.0,0.0,-3.8926,-3.8069,0.0,-3.4308,0.0,0.0,-3.2011,0.0,0.0,-2.9578,-2.9073,-2.9555,-2.9578,-2.9163,-2.9897,-3.0487,-3.0913,-3.0869,-3.1181,-3.1741,-3.2471,-3.2804,-3.2897,-3.3661,-3.379,-3.3573,0.0,-3.4125,-3.4022,-3.5056,0.0,0.0,-3.4981,-3.518,0.0,0.0,0.0,0.0,0.0,0.0,0.0,0.0,0.0,0.0,-2.6973,0.0,0.0,0.0,0.0,-2.3828,0.0,0.0,0.0,0.0,0.0,-2.4792,-2.3875,-2.4088,0.0,0.0,0.0,0.0,0.0,0.0,0.0,0.0,0.0,0.0,0.0,0.0,0.0,-3.0593,-3.1662,-3.224,-3.2265,-3.2817,-3.3119,-3.3162,-3.3671,-3.3922,-3.3922,-3.4474,-3.4453,-3.3982,-3.4006,-3.3765,-3.325,-3.3201,-3.3188,-3.3164,-3.3118,-3.2517,-3.1625,-3.1625,-3.072,-2.9536,-2.9969,-2.918,-2.8242,-2.3541,-2.41,-2.4507,-2.4507,-2.4786,-2.583,-2.8363,-3.0329,-3.2371,-3.4695,-3.5292,0.0,0.0,-4.0845,-4.1768,0.0,0.0,-4.1934,-4.0449,-3.7324,0.0,0.0,0.0,-3.1984,0.0,0.0,0.0,-2.8847,-2.8877,-2.8863,-2.8817,-2.9255,-2.9988,-3.0892,-3.0892,-3.1484,-3.2471,-3.3074,0.0,0.0,0.0,-3.447,-3.3995,0.0,0.0,-3.3997,-3.468,-3.4719,0.0,-3.4817,-3.4126,-3.3191,-3.3714,-3.2873,-3.1877,-3.2624,-3.155,0.0,0.0,0.0,-2.7987,-2.8009,0.0,0.0,0.0,0.0,0.0,0.0,0.0,0.0,0.0,0.0,-2.4521,-2.3877,-2.377,-2.353,0.0,0.0,0.0,0.0,0.0,0.0,0.0,0.0,0.0,0.0,-2.7664,0.0,0.0,-3.0533,-3.1339,-3.219,-3.2767,-3.3111,-3.3111,-3.3269,-3.3345,-3.337,-3.3251,-3.2877,-3.232,-3.2065,-3.2004,-3.2095,-3.1403,-3.1667,-3.2529,-3.1536,-3.1084,-3.1019,-3.0398,-3.0011,-2.985,-3.0025,-2.975,-2.9477,-2.387,-2.4226,-2.4561,-2.4735,-2.5418,-2.6779,-2.9195,0.0,0.0,0.0,-3.8983,0.0,-4.2472,0.0,-4.5025,0.0,-4.5444,-4.5046,-4.1945,-3.9533,0.0,-3.6964,-3.4177,0.0,0.0,0.0,0.0,0.0,-2.8571,-2.8563,-2.8704,-2.8927,-2.9485,-3.042,-3.0973,-3.1545,-3.2202,-3.3278,-3.4135,0.0,0.0,-3.5102,0.0,0.0,-3.41,-3.4415,0.0,-3.5061,-3.5055,-3.4629,-3.386,-3.301,-3.3158,-3.2374,-3.1528,-3.2225,-3.1506,-3.0595,-3.0975,-2.9825,0.0,-2.8432,-2.7355,0.0,-2.553,0.0,0.0,0.0,0.0,0.0,0.0,0.0,-2.4072,-2.344,-2.3215,-2.2903,0.0,-2.2478,0.0,0.0,0.0,0.0,0.0,0.0,0.0,-2.6247,-2.6341,0.0,0.0,0.0,-3.0546,-3.1489,-3.2524,-3.3111,-3.3111,-3.3111,-3.3111,-3.3068,-3.245,-3.1874,-3.1495,-3.0914,-3.0773,-3.097,-3.0119,-3.0427,-3.1465,-3.0317,-3.0017,-3.0274,-2.9811,-2.9721,-2.9828,-2.9978,-3.0357,-3.0801,-2.4677,-2.4686,-2.4784,-2.5207,-2.6766,0.0,0.0,0.0,-3.8112,0.0,-4.2915,-4.5415,-4.6981,-4.7902,-4.8511,-4.8902,-4.9644,-4.7898,-4.2589,-4.2868,0.0,0.0,-3.4679,-3.391,-3.2112,0.0,0.0,0.0,0.0,-2.8694,-2.8721,-2.8751,-2.9046,-2.9643,-3.1107,-3.146,-3.1078,-3.31,-3.3952,-3.4093,-3.5669,-3.554,-3.4413,-3.4615,-3.4894,-3.523,-3.5365,-3.5805,-3.6066,-3.453,-3.4318,-3.4508,-3.3426,-3.3101,-3.3051,-3.3051,-3.3051,-3.2801,-3.179,-3.0837,-2.9813,-2.8314,0.0,0.0,0.0,0.0,-2.5792,0.0,0.0,0.0,0.0,0.0,0.0,-2.2708,-2.2542,-2.2377,0.0,0.0,0.0,0.0,0.0,0.0,0.0,0.0,-2.4664,-2.5914,-2.5518,-2.5732,0.0,0.0,-2.9828,-3.0263,-3.2106,-3.3043,-3.3111,-3.3111,-3.3111,-3.3068,-3.2069,-3.1545,-3.1472,-3.048,-3.0034,-2.9973,-2.9497,-2.9598,-3.0041,-2.9541,-2.9345,-2.9389,-2.9911,-2.9814,-2.9456,-2.9891,-3.0905,-3.1988,-2.4487,-2.5591,-2.6584,0.0,-2.7564,-2.882,0.0,0.0,0.0,0.0,-4.4451,-4.6904,-4.7911,-4.83,-4.778,-4.624,-4.6416,0.0,0.0,0.0,0.0,-4.0905,-3.6641,-3.484,-3.6056,-3.2286,0.0,-2.9661,0.0,-2.8342,-2.8894,-2.8428,-2.9023,-3.0558,-3.0996,-3.1317,-3.1595,-3.2865,-3.3528,-3.3768,-3.4361,-3.465,0.0,0.0,-3.4757,-3.513,-3.4535,-3.4675,-3.504,-3.424,-3.3552,-3.2892,-3.2213,-3.1432,-3.0806,-3.0806,-3.0806,-3.0754,-3.0495,-2.9971,-2.9354,-2.8595,-2.7759,-2.6998,0.0,0.0,0.0,0.0,0.0,0.0,0.0,0.0,0.0,-2.3619,-2.3246,-2.2977,0.0,0.0,0.0,-2.2392,0.0,0.0,0.0,-2.3609,-2.3852,-2.4618,-2.4563,-2.4958,0.0,0.0,0.0,-3.0238,-3.1564,-3.2496,-3.3068,-3.3111,-3.3111,-3.3068,-3.1696,-3.1182,-3.1447,-3.0141,-2.9692,-2.9973,-2.9497,-2.9381,-2.9488,-2.9027,-2.8817,-2.8901,-2.974,-3.0402,-3.0864,-3.0988,-3.1464,-3.2029,-2.5195,-2.6514,0.0,-2.7589,0.0,0.0,-3.2619,-3.6225,0.0,-4.2928,-4.6361,0.0,-4.9215,-4.9952,-4.9848,-4.8639,-4.8544,0.0,-4.5027,0.0,0.0,-4.1422,-3.7252,-3.5282,-3.5926,-3.2769,0.0,-2.9684,0.0,-2.8614,-2.8876,-2.8712,-2.9182,-3.0258,-3.0994,-3.1442,-3.1763,-3.2913,-3.3478,-3.3655,-3.4265,0.0,0.0,-3.4881,-3.4817,-3.459,-3.4075,-3.3981,-3.3952,-3.3149,-3.2381,-3.1649,-3.1076,-3.0495,-2.9994,-2.9994,-2.9994,-2.9994,-2.9994,-2.9808,-2.9497,-2.9042,-2.838,-2.7738,-2.7262,-2.7013,-2.6998,0.0,0.0,0.0,0.0,0.0,0.0,0.0,0.0,0.0,0.0,0.0,0.0,0.0,-2.239,0.0,0.0,-2.2852,-2.3075,-2.3519,-2.3519,0.0,0.0,0.0,0.0,-3.0118,-3.1888,-3.2864,-3.3111,-3.3545,-3.3671,-3.3445,-3.1943,-3.1454,-3.1814,-3.0056,-2.9456,-2.9663,-2.9208,-2.8897,-2.869,-2.8421,-2.8421,-2.8731,-2.9849,-3.0988,-3.194,-3.1733,-3.1816,-3.205,-2.6328,-2.7412,0.0,0.0,0.0,0.0,0.0,-3.8275,0.0,-4.4801,0.0,-5.0845,-5.0845,-5.1872,-5.2629,-5.2629,0.0,-5.0654,-4.6722,-4.5716,-4.3686,-4.0074,-3.7761,-3.5891,-3.4577,-3.3105,0.0,0.0,0.0,-2.9188,-2.8962,-2.9207,-2.9388,-2.9664,-3.0954,-3.1581,0.0,-3.305,-3.3536,-3.3603,-3.465,-3.513,-3.518,-3.5176,-3.4689,-3.4052,-3.3699,-3.3325,-3.2836,-3.1948,-3.1266,-3.0693,-3.0242,-3.0037,-2.9994,-2.9994,-2.9994,-2.9994,-2.9994,-2.9994,-2.9891,-2.9497,-2.9001,-2.8524,-2.8173,-2.7759,-2.7496,-2.7496,-2.7123,-2.6646,0.0,0.0,0.0,0.0,0.0,0.0,0.0,0.0,0.0,0.0,0.0,0.0,0.0,0.0,-2.2461,-2.2714,-2.2789,0.0,0.0,0.0,0.0,-2.9998,-3.2379,0.0,-3.3294,0.0,-3.4225,-3.3876,-3.2324,-3.1814,-3.2101,-3.0184,-2.9311,-2.927,-2.8752,-2.8338,-2.8028,-2.809,-2.8483,-2.9187,-3.0387,-3.1629,-3.2628,-3.2215,-3.207,-3.2076,-2.6875,0.0,0.0,0.0,0.0,-3.4101,-3.7857,-4.1331,-4.4091,-4.5906,-5.0225,-5.313,-5.313,-5.182,-5.0998,-5.0998,-4.9866,0.0,0.0,0.0,0.0,-4.4593,-4.0912,-3.8697,-3.8521,-3.5742,-3.3205,0.0,0.0,-2.9347,-2.9745,-2.9051,-2.9404,-3.0581,-3.0637,-3.1091,-3.1779,-3.305,0.0,-3.3019,-3.4107,-3.4831,-3.5108,-3.3966,-3.3956,-3.4294,-3.2511,-3.1646,-3.1368,-3.2013,-3.134,-3.0286,-3.0643,-3.0436,-2.9994,-2.9994,-2.9994,-2.9994,-2.9994,-2.9994,-2.9973,-2.9891,-2.9249,-2.869,-2.9001,-2.8711,-2.838,-2.838,-2.8007,-2.7552,-2.7143,0.0,0.0,0.0,0.0,0.0,0.0,0.0,0.0,0.0,0.0,0.0,0.0,0.0,0.0,0.0,0.0,0.0,0.0,0.0,0.0,0.0,-3.1572,0.0,0.0,0.0,-3.3131,-3.3952,-3.1919,-3.0976,-3.1064,-2.983,-2.9311,-2.9249,-2.8421,-2.8214,-2.8524,-2.8897,-2.9994,-3.1409,-3.1712,-3.2132,-3.2669,-3.2644,-3.2431,-3.226,-2.8008,0.0,0.0,0.0,0.0,0.0,0.0,-4.1968,-4.4777,-4.5531,-4.7719,-4.9463,-5.0308,-5.0489,-5.0576,-5.0576,-4.9914,-4.8707,-4.6932,-4.4735,-4.357,-4.3654,-4.0948,0.0,-3.7122,-3.5664,-3.3465,-3.0574,0.0,0.0,-2.9132,-2.8949,-2.9332,-3.0214,-3.1266,-3.1977,0.0,0.0,0.0,-3.4487,-3.4693,-3.5422,-3.6121,-3.4823,-3.4455,-3.445,-3.3109,-3.1806,-3.0843,-3.1389,-3.0887,-3.0066,-3.033,-3.0202,-2.9994,-2.9994,-2.9994,-2.9994,-2.9994,-2.9994,-2.9994,-2.9994,-2.9477,-2.9021,-2.9249,-2.8938,-2.8607,-2.8607,-2.8442,-2.8152,-2.7696,-2.6848,0.0,0.0,0.0,0.0,0.0,0.0,0.0,0.0,0.0,0.0,0.0,0.0,0.0,0.0,0.0,0.0,0.0,0.0,0.0,0.0,0.0,0.0,0.0,0.0,0.0,-3.277,-3.1744,-3.1105,-3.0815,-2.98,-2.9042,-2.8566,-2.8359,-2.84,-2.869,-2.9622,-3.0822,-3.1988,-3.1988,-3.2277,-3.2669,-3.2669,-3.244,-3.2076,0.0,-3.0403,0.0,0.0,-3.459,0.0,-3.8555,-4.1855,-4.437,-4.5087,-4.5483,-4.6173,-4.74,-4.908,-5.0127,-5.0127,-5.0032,-4.9086,-4.6932,-4.4534,-4.2867,-4.2148,-4.054,-3.8354,-3.5554,-3.5285,-3.3586,0.0,0.0,0.0,0.0,-2.892,-2.9448,0.0,0.0,0.0,0.0,0.0,-3.4991,-3.5571,-3.5085,-3.5668,-3.6676,-3.532,-3.4662,-3.4366,-3.3503,-3.2295,-3.1075,-3.0952,-3.0502,-2.9994,-2.9994,-2.9994,-2.9994,-2.9994,-2.9994,-2.9994,-2.9994,-2.9994,-2.9994,-2.9994,-2.9642,-2.9332,-2.9435,-2.9021,-2.8649,-2.8731,-2.869,-2.8462,-2.8007,-2.7427,0.0,0.0,0.0,0.0,0.0,0.0,0.0,0.0,0.0,0.0,0.0,0.0,0.0,0.0,0.0,0.0,0.0,0.0,0.0,0.0,0.0,-3.1135,-3.177,0.0,-3.2396,0.0,-3.146,-3.1019,-3.0514,-2.9593,-2.8814,-2.8235,-2.8504,-2.8835,-2.929,-3.0491,-3.1443,-3.2132,-3.2132,-3.2359,-3.2669,-3.2566,-3.2244,-3.1825,0.0,0.0,0.0,0.0,0.0,0.0,-3.9832,-4.144,-4.3289,-4.5565,-4.7118,-4.8059,-4.8203,-4.8364,-4.8552,-4.8552,-4.8113,-4.7557,-4.6839,-4.4534,-4.3325,-4.3499,-4.124,-3.9385,-3.7881,-3.6566,-3.4554,0.0,0.0,0.0,0.0,0.0,0.0,0.0,0.0,0.0,0.0,-3.4513,-3.479,-3.4433,-3.3989,-3.4574,-3.542,-3.327,-3.2959,-3.3486,-3.2099,-3.2003,-3.2395,-3.1594,-3.0764,-2.9994,-2.9994,-2.9994,-2.9994,-2.9994,-2.9994,-2.9994,-2.9994,-2.9994,-2.9994,-2.9994,-2.9642,-2.9415,-2.9829,-2.9249,-2.8731,-2.9145,-2.8918,-2.8462,-2.8007,-2.8193,-2.8131,0.0,0.0,0.0,0.0,0.0,0.0,0.0,0.0,0.0,0.0,-2.3122,0.0,0.0,0.0,0.0,0.0,0.0,0.0,-2.876,0.0,-3.0974,-3.2406,-3.1488,-3.1475,-3.2347,-3.0851,-2.9901,-2.9444,-2.8927,-2.8856,-2.9145,-2.8773,-2.9559,-3.1153,-3.1692,-3.2153,-3.2607,-3.2607,-3.2628,-3.2628,-3.2194,-3.1958,-3.1727,0.0,0.0,0.0,0.0,0.0,0.0,0.0,-4.2352,-4.3427,-4.4365,-4.5063,-4.5862,-4.6728,-4.6876,-4.6876,-4.6876,-4.6502,-4.56,-4.42,-4.2394,-4.1343,-4.1204,-4.0518,-3.9152,-3.7,-3.6518,-3.4895,0.0,0.0,0.0,0.0,0.0,0.0,0.0,0.0,-3.2642,-3.3034,-3.4119,-3.4508,-3.4426,-3.4251,-3.4682,-3.5248,-3.3617,-3.3465,-3.3997,-3.2623,-3.2416,-3.2685,-3.2313,-3.1754,-3.1133,-3.0574,-3.0408,-3.0346,-3.0077,-2.9994,-2.9994,-2.9994,-2.9994,-2.9994,-2.9994,-2.9642,-2.9415,-2.9891,-2.9497,-2.9083,-2.927,-2.9166,-2.898,-2.8773,-2.8897,-2.8731,0.0,0.0,0.0,0.0,0.0,0.0,0.0,0.0,0.0,0.0,0.0,0.0,0.0,0.0,0.0,0.0,0.0,0.0,-2.7875,0.0,-2.9186,-3.0641,-3.0436,-3.0397,-3.0533,-2.9921,-2.9332,-2.8876,-2.8421,-2.8607,-2.9352,-2.9994,-3.0843,-3.1816,-3.2215,-3.2504,-3.2649,-3.2359,-3.2256,-3.2235,-3.1881,-3.1584,-3.1308,-3.7915,0.0,-3.8506,0.0,-4.0792,-4.14,-4.2518,-4.3201,-4.3615,-4.3615,-4.3615,-4.405,-4.5138,-4.5191,-4.5191,-4.5191,-4.4728,-4.3815,-4.2417,-4.0862,-3.9889,-3.9488,-3.9566,0.0,-3.6349,-3.6324,-3.51,-3.2625,-3.1103,0.0,0.0,0.0,0.0,0.0,-3.1838,-3.2521,-3.317,-3.3781,-3.4101,-3.4185,-3.4022,-3.4307,-3.4755,-3.3736,-3.3574,-3.3875,-3.3012,-3.2669,-3.2669,-3.2669,-3.2463,-3.205,-3.1319,-3.0988,-3.0822,-3.0491,-3.0305,-3.0201,-3.0201,-3.0098,-2.9994,-2.9994,-2.9746,-2.9559,-2.9746,-2.9539,-2.9311,-2.9311,-2.9415,-2.9456,-2.9332,-2.9415,-2.9208,-2.8276,0.0,0.0,0.0,0.0,0.0,0.0,-2.4364,-2.3908,-2.2998,0.0,0.0,0.0,0.0,0.0,0.0,0.0,0.0,0.0,0.0,0.0,0.0,-2.9647,-2.9704,-2.9497,-2.9373,-2.9208,-2.9021,-2.8959,-2.929,-2.9973,-3.1236,-3.1961,-3.2215,-3.2545,-3.2669,-3.2628,-3.2173,-3.207,-3.204,-3.1584,-3.1309,-3.1134,-4.0677,-4.0724,-4.1076,-4.3174,-4.3192,-4.3136,-4.3518,-4.3594,-4.3615,-4.3615,-4.3615,-4.3615,-4.3615,-4.3615,-4.3615,-4.3615,-4.2861,-4.2343,-4.2322,-4.0551,-3.9468,0.0,0.0,-3.7736,-3.6825,-3.6328,-3.519,-3.3368,0.0,0.0,-3.1381,0.0,-3.1918,-3.2877,-3.2877,-3.316,-3.3617,-3.3617,-3.3617,-3.3551,-3.2952,-3.3092,-3.3573,-3.2916,-3.2727,-3.2727,-3.2727,-3.2669,-3.2669,-3.2669,-3.2727,-3.2587,-3.2112,-3.1712,-3.136,-3.136,-3.1029,-3.0677,-3.0677,-3.0346,-2.9994,-2.9994,-2.9994,-2.987,-2.9415,-2.9311,-2.9311,-2.9311,-2.9663,-2.9849,-2.9394,-2.9684,-2.9684,-2.8752,0.0,0.0,0.0,0.0,0.0,0.0,-2.5482,-2.4861,-2.395,0.0,0.0,0.0,0.0,0.0,0.0,0.0,0.0,-2.592,-2.72,0.0,-2.927,-2.9311,-2.9539,-2.9973,-2.9518,-2.9539,-3.0015,-3.0926,-3.134,-3.1402,-3.2313,-3.2669,-3.2669,-3.2669,-3.2669,-3.2628,-3.2173,-3.2143,-3.2183,-3.1227,-3.1079,-3.1265,-4.2365,-4.2522,-4.2796,-4.3456,-4.3462,-4.3462,-4.3615,-4.3615,-4.3615,-4.3615,-4.3615,-4.3615,-4.3615,-4.3615,-4.3615,0.0,-4.2787,-4.2322,0.0,-4.0551,-3.9468,-3.9468,-3.8667,-3.7902,-3.7281,-3.6515,-3.5521,-3.438,0.0,0.0,0.0,-3.0758,-3.105,-3.1885,-3.1885,-3.2272,-3.2987,-3.2987,-3.2987,-3.2952,-3.2778,-3.2815,-3.2952,-3.2778,-3.2483,-3.2235,-3.2566,-3.2463,-3.2256,-3.2566,-3.2669,-3.2649,-3.2504,-3.2188,-3.1774,-3.1464,-3.1278,-3.1091,-3.0781,-3.0574,-3.0387,-3.0077,-2.9766,-2.9477,-2.9332,-2.9063,-2.8918,-2.9249,-2.9415,-2.958,-2.9746,-2.9891,-2.9891,-2.9601,-2.9415,0.0,0.0,0.0,0.0,0.0,-2.5751,-2.5316,0.0,-2.4156,0.0,0.0,0.0,0.0,0.0,0.0,0.0,0.0,-2.7076,0.0,-2.929,-2.9311,-2.9704,-3.047,-2.9994,-2.9849,-3.0036,-3.0946,-3.1215,-3.0967,-3.2188,-3.2375,-3.1857,-3.2478,-3.2375,-3.1795,-3.165,-3.1505,-3.1289,-3.0782,-3.0654,-3.0851,-4.3233,-4.3462,-4.3615,-4.3615,-4.3615,-4.3615,-4.3615,-4.3615,-4.3615,-4.3615,-4.347,-4.3346,-4.3346,-4.3201,0.0,-4.3325,-4.2683,-4.226,-4.2073,-4.0448,-3.9468,-3.9468,-3.8667,-3.7881,-3.7239,0.0,0.0,-3.4567,-3.3399,-3.226,-3.1146,-3.1134,-3.134,-3.1629,-3.1629,-3.1836,-3.223,-3.223,-3.2313,-3.2421,-3.2421,-3.2525,-3.2649,-3.2483,-3.2235,-3.2008,-3.2188,-3.2043,-3.1857,-3.2256,-3.2421,-3.2442,-3.2607,-3.2483,-3.2194,-3.1961,-3.1754,-3.1526,-3.1071,-3.0822,-3.0574,-3.0118,-2.9766,-2.9518,-2.9352,-2.9083,-2.8959,-2.9249,-2.9435,-2.9642,-2.9953,-2.9994,-2.9994,-2.9994,-2.9601,-2.9145,-2.8669,0.0,0.0,0.0,0.0,0.0,0.0,-2.5254,0.0,0.0,0.0,0.0,0.0,0.0,0.0,-2.6584,-2.751,0.0,-2.9559,-2.9559,-3.0036,-3.0946,-3.0657,-3.0512,-3.0532,-3.1278,-3.1381,-3.1008,-3.2023,-3.2064,-3.1422,-3.1981,-3.1878,-3.1381,-3.1381,-3.1244,-3.0979,-3.0757,-3.0701,-3.0738,-4.3615,-4.3615,-4.3615,0.0,-4.3615,0.0,-4.3615,-4.3615,-4.3615,-4.3615,-4.3201,-4.2911,-4.2911,-4.2518,-4.2414,-4.2787,0.0,0.0,0.0,-4.0282,-3.9468,-3.9426,-3.8626,-3.7736,-3.6867,-3.637,-3.5438,-3.4132,-3.3161,-3.2308,-3.1631,-3.2308,-3.2401,-3.1988,-3.1988,-3.1816,-3.1422,-3.1422,-3.165,-3.1946,-3.1946,-3.2194,-3.2582,-3.2091,-3.1946,-3.1884,-3.1567,-3.1422,-3.1485,-3.1884,-3.2029,-3.2112,-3.2545,-3.2669,-3.2669,-3.2669,-3.2359,-3.1946,-3.1547,-3.1112,-3.0657,-3.016,-2.9994,-2.9829,-2.9415,-2.927,-2.927,-2.929,-2.9642,-2.9953,-2.9994,-2.9994,-2.9973,-2.9953,-2.958,-2.9125,-2.8628,0.0,0.0,0.0,0.0,0.0,0.0,-2.6584,-2.5834,0.0,0.0,0.0,0.0,0.0,-2.677,-2.6708,-2.838,-2.9539,-3.0036,-3.0036,-3.0512,-3.1422,-3.1422,-3.1443,-3.1485,-3.1836,-3.1774,-3.1402,-3.1857,-3.1774,-3.134,-3.1422,-3.1422,-3.1381,-3.1381,-3.1263,-3.1124,-3.1083,-3.0985,-3.0898,0.0,0.0,-4.3615,-4.3615,-4.3615,-4.3615,-4.3615,-4.3615,-4.3615,-4.3615,-4.3201,-4.2911,-4.2911,-4.2518,-4.2145,-4.1897,-4.1793,-4.1545,-4.1069,-4.0096,-3.9323,-3.8951,-3.815,-3.755,-3.7343,-3.6535,-3.5438,-3.4132,-3.3161,-3.2442,-3.1932,-3.2091,-3.2091,-3.1988,-3.1988,-3.1926,-3.1878,-3.1878,-3.1754,-3.1526,-3.1526,-3.1588,-3.1692,-3.1567,-3.1526,-3.1567,-3.1795,-3.1878,-3.1961,-3.2359,-3.2504,-3.2525,-3.2628,-3.2669,-3.2669,-3.2669,-3.2607,-3.2421,-3.2002,-3.1795,-3.1526,-3.0719,-2.9994,-2.9435,-2.9332,-2.9021,-2.8876,-2.9228,-2.9394,-2.958,-2.9932,-2.9994,-2.9891,-2.9518,-2.9373,-2.9021,-2.8193,-2.8297,0.0,0.0,-2.8131,-2.8297,-2.8297,-2.7779,-2.7262,0.0,0.0,0.0,0.0,-2.7966,-2.8338,-2.7614,-2.8711,-2.9704,-3.0512,-3.0512,-3.0988,-3.1878,-3.1878,-3.2064,-3.2395,-3.1795,-3.1485,-3.1402,-3.1857,-3.1588,-3.0926,-3.1981,-3.2002,-3.1381,-3.1381,-3.1263,-3.1083,-3.0685,-3.0727,-3.0898,-4.3615,-4.3615,-4.3615,-4.3615,-4.3615,-4.3615,-4.3615,-4.3615,-4.3532,-4.3325,-4.2911,-4.2538,-4.2331,-4.1897,-4.1524,-4.1276,-4.1255,-4.1069,-4.0613,-3.9537,-3.8895,-3.8786,-3.7777,-3.7177,-3.7177,-3.6266,-3.5128,-3.3762,-3.3265,-3.2789,-3.2297,-3.2297,-3.2194,-3.1988,-3.1988,-3.1919,-3.1733,-3.1733,-3.1609,-3.1402,-3.1609,-3.1671,-3.1671,-3.1671,-3.1671,-3.1692,-3.1712,-3.1733,-3.1816,-3.2215,-3.2359,-3.2401,-3.2607,-3.2669,-3.2669,-3.2669,-3.2669,-3.2566,-3.2112,-3.1988,-3.1822,-3.1174,-3.0305,-2.9622,-2.9622,-2.9415,-2.9187,-2.9021,-2.9166,-2.9373,-2.9622,-2.9684,-2.9601,-2.9352,-2.9125,-2.8731,-2.8028,-2.8131,0.0,-2.8235,-2.8462,-2.869,-2.8918,-2.8504,-2.8131,-2.7903,0.0,0.0,-2.8193,-2.9311,-2.9518,-2.8587,-2.9663,-3.0491,-3.0988,-3.1422,-3.1754,-3.1988,-3.2194,-3.2421,-3.2706,-3.2002,-3.1671,-3.1692,-3.1712,-3.1464,-3.1071,-3.1816,-3.1816,-3.1402,-3.1609,-3.1426,-3.1124,-3.1083,-3.0985,-3.0898,-4.3615,-4.3615,-4.3615,-4.3615,-4.3615,-4.3615,-4.3615,-4.3615,-4.3449,-4.2973,-4.2538,-4.2156,-4.1607,-4.1151,-4.0882,-4.0882,-4.0758,-4.051,-4.0158,-3.8978,-3.8398,-3.8559,-3.7467,-3.6763,-3.6701,-3.5728,-3.461,-3.3368,-3.3306,-3.3099,-3.2669,-3.2669,-3.2463,-3.2091,-3.2091,-3.1899,-3.1485,-3.1485,-3.1443,-3.1402,-3.1712,-3.1878,-3.1884,-3.1802,-3.1864,-3.1946,-3.1609,-3.1526,-3.165,-3.2023,-3.2091,-3.2153,-3.2545,-3.2669,-3.2669,-3.2669,-3.2669,-3.2587,-3.2194,-3.1988,-3.1857,-3.1547,-3.0719,-3.0015,-3.0077,-2.9994,-2.9684,-2.898,-2.9083,-2.9332,-2.9394,-2.9415,-2.9352,-2.9228,-2.8814,-2.8359,-2.7883,0.0,-2.8069,-2.8462,-2.869,-2.898,-2.9373,-2.9063,-2.8856,-2.8918,-2.929,-2.9518,0.0,-3.0325,-3.047,-2.9746,-3.0864,-3.1505,-3.1588,-3.2354,-3.2483,-3.2091,-3.2483,-3.2768,-3.2809,-3.2215,-3.2029,-3.207,-3.1671,-3.1485,-3.1485,-3.1547,-3.1588,-3.1609,-3.1864,-3.1671,-3.1264,-3.1566,-3.1343,-3.0898,-4.3615,-4.3615,-4.3615,-4.3615,-4.3615,-4.3615,-4.3615,-4.3615,-4.3449,-4.2973,-4.2538,-4.2156,-4.1607,-4.1151,-4.0882,-4.0882,-4.0179,-3.9723,-3.9571,-3.9013,-3.844,-3.7736,-3.7136,-3.6618,-3.6225,-3.4941,-3.3989,-3.3368,-3.3016,-3.2789,-3.2669,-3.2669,-3.2628,-3.2566,-3.2566,-3.2318,-3.1884,-3.1884,-3.1712,-3.136,-3.1029,-3.1133,-3.1443,-3.105,-3.1381,-3.1967,-3.1905,-3.2132,-3.254,-3.2545,-3.2566,-3.2587,-3.2706,-3.2669,-3.2669,-3.2669,-3.2669,-3.2669,-3.2587,-3.2064,-3.1547,-3.1857,-3.0967,-3.0098,-3.0491,-2.9973,-2.9477,-2.9725,-2.9518,-2.9415,-2.9808,-2.9891,-2.9622,-2.8856,-2.8338,-2.7862,-2.7475,0.0,-2.7945,-2.8028,-2.9063,-2.9808,-2.9891,-2.9829,-2.9953,-3.0325,-3.0429,-3.047,-3.047,-3.0988,-3.1381,-3.1554,-3.176,-3.2126,-3.252,-3.2607,-3.2628,-3.2566,-3.2649,-3.2934,-3.3244,-3.2416,-3.2194,-3.2545,-3.2091,-3.1884,-3.1905,-3.2354,-3.252,-3.2499,-3.2112,-3.1876,-3.1647,-3.1345,-3.1065,-3.0898,-4.3615,-4.3615,-4.3615,-4.3615,-4.3615,-4.3615,-4.3615,-4.3615,-4.3366,-4.2663,-4.2393,-4.2053,-4.1276,-4.1007,-4.0779,-4.0551,-3.993,-3.9364,-3.9117,-3.8502,-3.8046,-3.7881,-3.6949,-3.6204,-3.5749,-3.4879,-3.4277,-3.38,-3.3306,-3.2954,-3.2669,-3.2669,-3.2669,-3.2669,-3.2669,-3.2545,-3.2359,-3.2359,-3.2091,-3.1733,-3.1774,-3.1774,-3.1733,-3.1774,-3.2043,-3.2359,-3.2359,-3.2483,-3.2669,-3.2669,-3.2669,-3.2669,-3.2669,-3.2669,-3.2669,-3.2669,-3.2669,-3.2669,-3.2669,-3.2064,-3.1485,-3.1884,-3.1008,-3.0118,-3.0574,-3.016,-2.9663,-2.9622,-2.9456,-2.9373,-2.958,-2.9415,-2.9104,-2.869,-2.8442,0.0,0.0,-2.8214,-2.8752,-2.9001,-2.9394,-2.9829,-3.0325,-2.9911,-2.9911,-3.0636,-3.045,-3.0636,-3.1381,-3.1381,-3.1692,-3.2339,-3.2359,-3.2339,-3.2297,-3.2545,-3.2669,-3.2747,-3.3223,-3.3679,-3.4152,-3.343,-3.3244,-3.341,-3.2706,-3.2359,-3.238,-3.2587,-3.2669,-3.2649,-3.2442,-3.2285,-3.2109,-3.1908,-3.172,-3.1582,-4.3615,-4.3615,-4.3615,-4.3615,-4.3615,-4.3573,-4.347,-4.3449,-4.3118,-4.2207,-4.2177,-4.1793,-4.0965,-4.0882,-4.0696,-4.0261,-3.9736,-3.9282,-3.8807,-3.8109,-3.7757,-3.8026,-3.6804,-3.5852,-3.5273,-3.4817,-3.4422,-3.3966,-3.3451,-3.3058,-3.2669,-3.2669,-3.2669,-3.2669,-3.2669,-3.2669,-3.2669,-3.2669,-3.2463,-3.2173,-3.2421,-3.2359,-3.2173,-3.2421,-3.2644,-3.2669,-3.2669,-3.2669,-3.2669,-3.2669,-3.2669,-3.2669,-3.2669,-3.2669,-3.2669,-3.2669,-3.2669,-3.2706,-3.2545,-3.1981,-3.1505,-3.2008,-3.1091,-3.0139,-3.0719,-3.0408,-2.9891,-2.9539,-2.9559,-2.9622,-2.9622,-2.9332,-2.9063,-2.8959,0.0,0.0,0.0,-2.8669,-2.9187,-2.9766,-2.9622,-2.9746,-3.045,-2.9973,-3.0015,-3.0926,-3.0677,-3.0967,-3.2091,-3.1774,-3.1857,-3.2483,-3.2607,-3.2504,-3.2153,-3.2504,-3.2731,-3.2892,-3.3679,-3.438,-3.4816,-3.4443,-3.4297,-3.4256,-3.3389,-3.2975,-3.2892,-3.2996,-3.2975,-3.2892,-3.288,-3.2779,-3.2533,-3.2474,-3.2276,-3.2031,-4.3615,-4.3615,-4.3615,-4.3615,-4.3615,-4.347,-4.3035,-4.2973,-4.2642,-4.1731,-4.1607,-4.1421,-4.0924,-4.0882,-4.0696,-4.0261,-3.9736,-3.9282,-3.8807,-3.8398,-3.7964,-3.757,-3.6618,-3.5707,-3.4878,-3.4422,-3.3886,-3.343,-3.2996,-3.2711,-3.2669,-3.2669,-3.2669,-3.2669,-3.2669,-3.2669,-3.2669,-3.2669,-3.2649,-3.2587,-3.2194,-3.2277,-3.2587,-3.2173,-3.2297,-3.2669,-3.2669,-3.2669,-3.2669,-3.2669,-3.2669,-3.2669,-3.2669,-3.2669,-3.2669,-3.2669,-3.2669,-3.2644,-3.2153,-3.1733,-3.1588,-3.2457,-3.1319,-3.0222,-3.1133,-3.0636,-2.9973,-2.9953,-3.0284,-3.0594,-3.0594,-3.0553,-3.0387,-2.9973,0.0,0.0,-2.9083,-2.8524,-2.8359,-2.9249,-2.9704,-2.9973,-3.0036,-3.0367,-3.0967,-3.1822,-3.1864,-3.207,-3.2587,-3.2194,-3.1967,-3.2029,-3.2442,-3.2649,-3.2628,-3.2649,-3.2934,-3.3327,-3.3883,-3.438,-3.4816,-3.4774,-3.4774,-3.4733,-3.4256,-3.372,-3.3368,-3.3782,-3.372,-3.3368,-3.3507,-3.3334,-3.2995,-3.2694,-3.2176,-3.1621,-4.3615,-4.3615,-4.3615,-4.3615,-4.3366,-4.3118,-4.2952,-4.2683,-4.229,-4.1648,-4.1565,-4.14,-4.0924,-4.0882,-4.0593,-3.9798,-3.9571,-3.9226,-3.8481,-3.8005,-3.755,-3.7094,-3.6453,-3.5811,-3.519,-3.4445,-3.4049,-3.3803,-3.2905,-3.2555,-3.2669,-3.2555,-3.2555,-3.2669,-3.2669,-3.2669,-3.2669,-3.2669,-3.2669,-3.2669,-3.254,-3.2525,-3.2649,-3.2483,-3.2525,-3.2669,-3.2669,-3.2669,-3.2669,-3.2669,-3.2669,-3.2669,-3.2669,-3.2669,-3.2669,-3.2669,-3.2669,-3.2628,-3.2463,-3.2126,-3.1878,-3.2153,-3.1567,-3.0946,-3.1298,-3.1112,-3.076,-3.0491,-3.0574,-3.0594,-3.0305,-3.0263,-3.0201,-3.0036,0.0,-2.9332,-2.9684,-2.9435,-2.9559,-3.047,-3.0491,-3.0636,-3.1215,-3.1174,-3.136,-3.1946,-3.1795,-3.1961,-3.2628,-3.2504,-3.2401,-3.2401,-3.2892,-3.2996,-3.2669,-3.2996,-3.3368,-3.3803,-3.4339,-3.4734,-3.5169,-3.5169,-3.5024,-3.4816,-3.4629,-3.4297,-3.3883,-3.4049,-3.3969,-3.3824,-3.3633,-3.3578,-3.3498,-3.2853,-3.245,-3.2305,-4.3573,-4.3615,-4.3615,-4.3615,-4.3221,-4.287,-4.2725,-4.2331,-4.1876,-4.14,-4.1286,-4.109,-4.0903,-4.0811,-4.0368,-3.955,-3.9468,-3.9144,-3.8253,-3.7612,-3.7074,-3.6618,-3.6287,-3.5894,-3.5438,-3.4527,-3.4132,-3.4132,-3.2987,-3.2498,-3.2669,-3.2498,-3.2498,-3.2669,-3.2669,-3.2669,-3.2669,-3.2612,-3.2555,-3.2555,-3.2555,-3.2555,-3.2555,-3.2669,-3.2669,-3.2669,-3.2669,-3.2669,-3.2669,-3.2669,-3.2669,-3.2669,-3.2669,-3.2669,-3.2669,-3.2669,-3.2669,-3.2669,-3.2669,-3.2602,-3.2437,-3.2235,-3.1816,-3.1422,-3.1547,-3.1485,-3.1298,-3.0967,-3.1008,-3.1008,-3.0698,-3.0636,-3.0636,-3.0636,-3.0408,-3.0305,-3.0594,-3.0387,-3.0553,-3.1485,-3.1174,-3.1153,-3.1774,-3.1547,-3.1567,-3.1946,-3.1899,-3.2209,-3.3099,-3.3161,-3.3161,-3.3161,-3.343,-3.3451,-3.3161,-3.3451,-3.3883,-3.4339,-3.4671,-3.4983,-3.5418,-3.5418,-3.5252,-3.4962,-3.4962,-3.4714,-3.436,-3.4445,-3.4403,-3.43,-3.3942,-3.3862,-3.3882,-3.3089,-3.2726,-3.2505,-4.3511,-4.3594,-4.3615,-4.3615,-4.3221,-4.2766,-4.2331,-4.1876,-4.14,-4.0944,-4.0525,-4.0453,-4.0882,-4.0525,-4.0105,-3.955,-3.9468,-3.9144,-3.8253,-3.7322,-3.6597,-3.6142,-3.6121,-3.5894,-3.5438,-3.4527,-3.4072,-3.4132,-3.3182,-3.2669,-3.2669,-3.2669,-3.2669,-3.2669,-3.2669,-3.2669,-3.2669,-3.242,-3.2305,-3.2305,-3.2305,-3.2305,-3.2305,-3.2612,-3.2669,-3.2669,-3.2669,-3.2669,-3.2669,-3.2669,-3.2669,-3.2669,-3.2669,-3.2669,-3.2747,-3.2747,-3.2747,-3.2747,-3.2747,-3.3058,-3.3285,-3.2851,-3.2064,-3.1505,-3.194,-3.1712,-3.1381,-3.1381,-3.1733,-3.1988,-3.1988,-3.1988,-3.1988,-3.1988,-3.1278,-3.1008,-3.1864,-3.1257,-3.1029,-3.1884,-3.165,-3.1381,-3.1381,-3.1381,-3.1567,-3.1946,-3.2421,-3.312,-3.4031,-3.4132,-3.4132,-3.4132,-3.4072,-3.4132,-3.4132,-3.4132,-3.436,-3.4816,-3.4816,-3.4983,-3.5418,-3.5418,-3.5418,-3.5418,-3.5418,-3.5169,-3.4857,-3.5231,-3.5169,-3.4756,-3.4511,-3.4347,-3.4207,-3.3638,-3.2802,-3.2058,-4.2679,-4.2686,-4.2712,-4.279,-4.2616,-4.2317,-4.1867,-4.1709,-4.14,-4.0944,-4.0811,-4.074,-4.0882,-4.0811,-4.0368,-3.955,-3.9468,-3.9144,-3.8253,-3.7126,-3.6485,-3.6597,-3.5976,-3.5562,-3.5418,-3.4859,-3.4463,-3.4132,-3.3082,-3.2516,-3.242,-3.219,-3.2076,-3.2076,-3.2498,-3.2612,-3.242,-3.2305,-3.2305,-3.2305,-3.2018,-3.2076,-3.2305,-3.2383,-3.2555,-3.2669,-3.2669,-3.2669,-3.2669,-3.2669,-3.2669,-3.2669,-3.2669,-3.2934,-3.3182,-3.3182,-3.3182,-3.3244,-3.3575,-3.3762,-3.3679,-3.2913,-3.2747,-3.2727,-3.2561,-3.2416,-3.223,-3.1919,-3.1884,-3.1884,-3.1629,-3.1836,-3.1988,-3.1988,-3.176,-3.1678,-3.1946,-3.1547,-3.1381,-3.1926,-3.1864,-3.1981,-3.2292,-3.2602,-3.2706,-3.254,-3.2934,-3.3451,-3.409,-3.4132,-3.4132,-3.4132,-3.4443,-3.4608,-3.4608,-3.4608,-3.4671,-3.4816,-3.482,-3.5047,-3.5418,-3.517,-3.517,-3.5418,-3.5418,-3.5232,-3.4862,-3.4984,-3.484,-3.449,-3.4175,-3.403,-3.3953,-3.3234,-3.2796,-3.2525,-4.2058,-4.1915,-4.1846,-4.1882,-4.171,-4.1475,-4.1211,-4.1077,-4.0905,-4.0474,-4.0433,-4.0433,-4.0433,-4.0289,-3.9971,-3.9322,-3.9137,-3.8703,-3.8012,-3.691,-3.6354,-3.6418,-3.56,-3.5232,-3.5418,-3.4983,-3.4588,-3.4132,-3.3146,-3.2522,-3.2305,-3.196,-3.1787,-3.1845,-3.2326,-3.242,-3.2305,-3.2305,-3.219,-3.2076,-3.2018,-3.2018,-3.2133,-3.2363,-3.2555,-3.2669,-3.2555,-3.2612,-3.2669,-3.2555,-3.2736,-3.2954,-3.2789,-3.3161,-3.3617,-3.343,-3.3513,-3.372,-3.3989,-3.4256,-3.4235,-3.3451,-3.3327,-3.3265,-3.283,-3.2612,-3.2534,-3.2354,-3.221,-3.2102,-3.202,-3.2138,-3.2256,-3.2256,-3.2256,-3.2256,-3.2256,-3.2085,-3.2023,-3.2215,-3.2256,-3.2359,-3.2649,-3.312,-3.3492,-3.3782,-3.3886,-3.4279,-3.5107,-3.4983,-3.4962,-3.5148,-3.5418,-3.5562,-3.5562,-3.5562,-3.5376,-3.5024,-3.5294,-3.55,-3.5707,-3.5622,-3.5788,-3.5956,-3.5769,-3.55,-3.5167,-3.5003,-3.4673,-3.4381,-3.4246,-3.4044,-3.3808,-3.345,-3.3031,-3.2704,-4.1461,-4.1225,-4.1022,-4.0988,-4.0646,-4.0365,-4.0325,-4.0347,-4.0207,-3.9786,-3.9714,-3.9714,-3.9714,-3.9332,-3.903,-3.8955,-3.8438,-3.7971,-3.7616,-3.682,-3.6136,-3.5836,-3.522,-3.5066,-3.5356,-3.5024,-3.459,-3.4134,-3.3305,-3.27,-3.2313,-3.1943,-3.175,-3.179,-3.2096,-3.2248,-3.2248,-3.2248,-3.2096,-3.1848,-3.2096,-3.2038,-3.1848,-3.2383,-3.2633,-3.2674,-3.2383,-3.2461,-3.2674,-3.2383,-3.2786,-3.3248,-3.2814,-3.3248,-3.3927,-3.3555,-3.38,-3.4152,-3.4235,-3.4567,-3.4774,-3.4297,-3.3803,-3.3389,-3.2954,-3.2658,-3.2551,-3.2881,-3.2656,-3.2551,-3.2901,-3.2888,-3.2793,-3.2793,-3.2851,-3.283,-3.2789,-3.2789,-3.2768,-3.2669,-3.2669,-3.2747,-3.2789,-3.3223,-3.4051,-3.5376,-3.5107,-3.5438,-3.6742,-3.639,-3.637,-3.6784,-3.6804,-3.6804,-3.6804,-3.674,-3.6306,-3.5542,-3.5914,-3.612,-3.6183,-3.6554,-3.674,-3.6784,-3.6349,-3.5973,-3.5572,-3.5145,-3.4794,-3.4458,-3.4541,-3.4286,-3.3917,-3.4103,-3.3568,-3.2789,-4.0164,-4.017,-4.0068,-4.0125,-4.033,-4.0355,-4.0017,-4.0464,-4.0573,-3.9827,-3.993,-4.0022,-3.9714,-3.9332,-3.896,-3.8586,-3.8078,-3.7683,-3.7616,-3.6841,-3.6178,-3.5836,-3.5376,-3.5127,-3.5004,-3.5191,-3.4943,-3.4247,-3.3497,-3.2934,-3.2515,-3.1759,-3.1464,-3.1604,-3.1832,-3.1903,-3.1903,-3.1903,-3.2047,-3.2212,-3.1696,-3.1718,-3.1918,-3.1696,-3.1951,-3.2426,-3.2024,-3.2299,-3.2776,-3.2428,-3.2592,-3.2957,-3.2506,-3.2731,-3.3282,-3.3785,-3.4049,-3.4217,-3.4941,-3.5211,-3.5169,-3.4714,-3.4588,-3.4401,-3.3886,-3.3782,-3.3685,-3.3471,-3.337,-3.333,-3.3411,-3.343,-3.3487,-3.3782,-3.3782,-3.3658,-3.3285,-3.3244,-3.312,-3.2711,-3.2669,-3.2871,-3.3203,-3.4049,-3.4879,-3.5894,-3.5873,-3.6101,-3.6763,-3.6701,-3.6701,-3.6804,-3.6804,-3.6804,-3.6804,-3.6547,-3.6444,-3.6515,-3.6342,-3.6383,-3.666,-3.6506,-3.6547,-3.6804,-3.6701,-3.6339,-3.5739,-3.5638,-3.5211,-3.4629,-3.4662,-3.4648,-3.4491,-3.4557,-3.444,-3.4225,-3.9546,-3.9366,-3.9205,-3.9293,-3.948,-3.9549,-3.9239,-3.9732,-3.9943,-3.9248,-3.9518,-3.959,-3.9208,-3.8795,-3.8277,-3.7823,-3.7543,-3.728,-3.7079,-3.6523,-3.5884,-3.5315,-3.5032,-3.4724,-3.4443,-3.4735,-3.4821,-3.4512,-3.3862,-3.3256,-3.2794,-3.2098,-3.178,-3.1816,-3.2058,-3.2175,-3.2175,-3.2352,-3.2372,-3.2215,-3.2195,-3.2077,-3.1979,-3.2136,-3.2254,-3.2372,-3.2234,-3.2434,-3.2713,-3.2668,-3.295,-3.3234,-3.2788,-3.3092,-3.3679,-3.3901,-3.4186,-3.4574,-3.5047,-3.517,-3.517,-3.5066,-3.4964,-3.4717,-3.4217,-3.4013,-3.3895,-3.3921,-3.3738,-3.3656,-3.3881,-3.3858,-3.3893,-3.4072,-3.4132,-3.3989,-3.3741,-3.3699,-3.3617,-3.3389,-3.3368,-3.3637,-3.4279,-3.4983,-3.579,-3.6701,-3.6428,-3.655,-3.7425,-3.7044,-3.6958,-3.7184,-3.7184,-3.7119,-3.6922,-3.679,-3.679,-3.6922,-3.6567,-3.6465,-3.6595,-3.682,-3.6987,-3.7184,-3.7153,-3.6725,-3.6053,-3.5851,-3.5361,-3.4726,-3.4941,-3.4902,-3.4726,-3.4941,-3.4883,-3.4707,-3.9103,-3.8812,-3.8574,-3.8574,-3.8574,-3.8574,-3.8574,-3.8958,-3.903,-3.8647,-3.8958,-3.903,-3.8647,-3.8098,-3.749,-3.7024,-3.7011,-3.6876,-3.6519,-3.6182,-3.5633,-3.4726,-3.4693,-3.4472,-3.3942,-3.4253,-3.4509,-3.4635,-3.4003,-3.3496,-3.3155,-3.247,-3.2268,-3.2326,-3.2491,-3.2573,-3.2633,-3.2935,-3.2715,-3.2296,-3.2815,-3.2635,-3.2177,-3.2755,-3.2755,-3.2475,-3.2613,-3.2672,-3.2732,-3.2955,-3.3296,-3.3537,-3.3156,-3.3476,-3.4079,-3.386,-3.4206,-3.4758,-3.4839,-3.4859,-3.4922,-3.5232,-3.5107,-3.482,-3.4245,-3.4,-3.3982,-3.435,-3.4146,-3.4024,-3.433,-3.4368,-3.4323,-3.432,-3.43,-3.4279,-3.4256,-3.4256,-3.4176,-3.4116,-3.4261,-3.4653,-3.5459,-3.6039,-3.666,-3.7446,-3.6958,-3.7037,-3.8063,-3.7401,-3.7162,-3.7461,-3.7482,-3.7348,-3.7079,-3.7011,-3.7011,-3.7011,-3.6563,-3.6403,-3.6535,-3.7185,-3.7482,-3.7528,-3.7427,-3.7065,-3.6363,-3.6067,-3.5514,-3.4961,-3.5351,-3.5254,-3.4961,-3.5351,-3.5254,-3.4922,-3.8647,-3.8647,-3.8574,-3.8574,-3.8574,-3.8574,-3.8574,-3.8958,-3.903,-3.8647,-3.8958,-3.903,-3.8647,-3.7884,-3.7143,-3.6598,-3.6586,-3.6586,-3.6519,-3.6459,-3.5862,-3.4726,-3.5086,-3.4845,-3.3942,-3.4362,-3.4405,-3.403,-3.359,-3.3384,-3.3348,-3.2561,-3.2363,-3.2695,-3.2385,-3.2391,-3.2633,-3.2633,-3.2811,-3.3089,-3.2813,-3.269,-3.264,-3.2407,-3.2466,-3.274,-3.2757,-3.2962,-3.3129,-3.2813,-3.2733,-3.2773,-3.2713,-3.2773,-3.2993,-3.3617,-3.3881,-3.4063,-3.4758,-3.4673,-3.4548,-3.4859,-3.5019,-3.4929,-3.4487,-3.48,-3.5067,-3.4882,-3.5105,-3.5228,-3.4901,-3.5168,-3.5395,-3.5232,-3.5231,-3.5107,-3.4774,-3.4733,-3.4591,-3.4207,-3.4922,-3.5559,-3.5955,-3.6804,-3.7363,-3.7488,-3.7798,-3.7847,-3.7683,-3.7554,-3.7421,-3.7146,-3.7146,-3.7146,-3.7079,-3.6722,-3.6586,-3.6586,-3.6209,-3.6392,-3.6998,-3.7126,-3.7146,-3.7146,-3.7153,-3.6911,-3.6487,-3.6428,-3.6158,-3.584,-3.5918,-3.5898,-3.584,-3.5918,-3.5898,-3.584,-3.8574,-3.8574,-3.8574,-3.8574,-3.8574,-3.8574,-3.8574,-3.872,-3.8793,-3.8647,-3.872,-3.8793,-3.8647,-3.7812,-3.7023,-3.6278,-3.62,-3.62,-3.62,-3.62,-3.5857,-3.5117,-3.5039,-3.4694,-3.4064,-3.3985,-3.3985,-3.4044,-3.3988,-3.3806,-3.367,-3.3296,-3.3155,-3.3144,-3.2949,-3.2933,-3.3038,-3.3038,-3.3018,-3.304,-3.3018,-3.2956,-3.2793,-3.2851,-3.2832,-3.2832,-3.3066,-3.352,-3.4044,-3.3548,-3.3473,-3.3473,-3.3473,-3.3473,-3.3552,-3.4112,-3.4421,-3.4652,-3.4979,-3.4976,-3.4912,-3.5295,-3.5244,-3.5151,-3.5144,-3.5359,-3.5532,-3.535,-3.5783,-3.6177,-3.5972,-3.6095,-3.6241,-3.6162,-3.6183,-3.6121,-3.5935,-3.5768,-3.5517,-3.5118,-3.5622,-3.6091,-3.6286,-3.6876,-3.7264,-3.7264,-3.7447,-3.7482,-3.7348,-3.7348,-3.7146,-3.6789,-3.6722,-3.6674,-3.6491,-3.6336,-3.62,-3.62,-3.6084,-3.6152,-3.6491,-3.6674,-3.6722,-3.6789,-3.7011,-3.6856,-3.6519,-3.6519,-3.6336,-3.6016,-3.6016,-3.6016,-3.6016,-3.6016,-3.6016,-3.6016]},{"header":{"parameterUnit":"m.s-1","parameterCategory":1,"la1":30.6,"la2":28.766,"lo1":-90.7593,"lo2":-88.6598,"dy":0.0162,"dx":0.0183,"nx":116,"ny":114,"refTime":"2023-05-11T12:00:00:Z","depth":0,"parameterNumber":3,"parameterNumberName":"V-component_of_WINDS"},"data":[0.0,0.0,0.0,0.0,0.0,0.0,0.0,0.0,0.0,0.0,0.0,0.0,0.0,0.0,0.0,0.0,0.0,0.0,0.0,0.0,0.0,0.0,0.0,0.0,0.0,0.0,0.0,0.0,0.0,0.0,0.0,0.0,0.0,0.0,0.0,0.0,0.0,0.0,0.0,0.0,0.0,0.0,0.0,0.0,0.0,0.0,0.0,0.0,0.0,0.0,0.0,0.0,0.0,0.0,0.0,0.0,0.0,0.0,0.0,0.0,0.0,0.0,0.0,0.0,0.0,0.0,0.0,0.0,0.0,0.0,0.0,0.0,0.0,0.0,0.0,0.0,0.0,0.0,0.0,0.0,0.0,0.0,0.0,0.0,0.0,0.0,0.0,0.0,0.0,0.0,0.0,0.0,0.0,0.0,0.0,0.0,0.0,0.0,0.0,0.0,0.0,0.0,0.0,0.0,0.0,0.0,0.0,0.0,0.0,0.0,0.0,0.0,0.0,0.0,0.0,0.0,0.0,0.0,0.0,0.0,0.0,0.0,0.0,0.0,0.0,0.0,0.0,0.0,0.0,0.0,0.0,0.0,0.0,0.0,0.0,0.0,0.0,0.0,0.0,0.0,0.0,0.0,0.0,0.0,0.0,0.0,0.0,0.0,0.0,0.0,0.0,0.0,0.0,0.0,0.0,0.0,0.0,0.0,0.0,0.0,0.0,0.0,0.0,0.0,0.0,0.0,0.0,0.0,0.0,0.0,0.0,0.0,0.0,0.0,0.0,0.0,0.0,0.0,0.0,0.0,0.0,0.0,0.0,0.0,0.0,0.0,0.0,0.0,0.0,0.0,0.0,0.0,0.0,0.0,0.0,0.0,0.0,0.0,0.0,0.0,0.0,0.0,0.0,0.0,0.0,0.0,0.0,0.0,0.0,0.0,0.0,0.0,0.0,0.0,0.0,0.0,0.0,0.0,0.0,0.0,0.0,0.0,0.0,0.0,0.0,0.0,0.0,0.0,0.0,0.0,0.0,0.0,0.0,0.0,0.0,0.0,0.0,0.0,0.0,0.0,0.0,0.0,0.0,0.0,0.0,0.0,0.0,0.0,0.0,0.0,0.0,0.0,0.0,0.0,0.0,0.0,0.0,0.0,0.0,0.0,0.0,0.0,0.0,0.0,0.0,0.0,0.0,0.0,0.0,0.0,0.0,0.0,0.0,0.0,0.0,0.0,0.0,0.0,0.0,0.0,0.0,0.0,0.0,0.0,0.0,0.0,0.0,0.0,0.0,0.0,0.0,0.0,0.0,0.0,0.0,0.0,0.0,0.0,0.0,0.0,0.0,0.0,0.0,0.0,0.0,0.0,0.0,0.0,0.0,0.0,0.0,0.0,0.0,0.0,0.0,0.0,0.0,0.0,0.0,0.0,0.0,0.0,0.0,0.0,0.0,0.0,0.0,0.0,0.0,0.0,0.0,0.0,0.0,0.0,0.0,0.0,0.0,0.0,0.0,0.0,0.0,0.0,0.0,0.0,0.0,0.0,0.0,0.0,0.0,0.0,0.0,0.0,0.0,0.0,0.0,0.0,0.0,0.0,0.0,0.0,0.0,0.0,0.0,0.0,0.0,0.0,0.0,0.0,0.0,0.0,0.0,0.0,0.0,0.0,0.0,0.0,0.0,0.0,0.0,0.0,0.0,0.0,0.0,0.0,0.0,0.0,0.0,0.0,0.0,0.0,0.0,0.0,0.0,0.0,0.0,0.0,0.0,0.0,0.0,0.0,0.0,0.0,0.0,0.0,0.0,0.0,0.0,0.0,0.0,0.0,0.0,0.0,0.0,0.0,0.0,0.0,0.0,0.0,0.0,0.0,0.0,0.0,0.0,0.0,0.0,0.0,0.0,0.0,0.0,0.0,0.0,0.0,0.0,0.0,0.0,0.0,0.0,0.0,0.0,0.0,0.0,0.0,0.0,0.0,0.0,0.0,0.0,0.0,0.0,0.0,0.0,0.0,0.0,0.0,0.0,0.0,0.0,0.0,0.0,0.0,0.0,0.0,0.0,0.0,0.0,0.0,0.0,0.0,0.0,0.0,0.0,0.0,0.0,0.0,0.0,0.0,0.0,0.0,0.0,0.0,0.0,0.0,0.0,0.0,0.0,0.0,0.0,0.0,0.0,0.0,0.0,0.0,0.0,0.0,0.0,0.0,0.0,0.0,0.0,0.0,0.0,0.0,0.0,0.0,0.0,0.0,0.0,0.0,0.0,0.0,0.0,0.0,0.0,0.0,0.0,0.0,0.0,0.0,0.0,0.0,0.0,0.0,0.0,0.0,0.0,0.0,0.0,0.0,0.0,0.0,0.0,0.0,0.0,0.0,0.0,0.0,0.0,0.0,0.0,0.0,0.0,0.0,0.0,0.0,0.0,0.0,0.0,0.0,0.0,0.0,0.0,0.0,0.0,0.0,0.0,0.0,0.0,0.0,0.0,0.0,0.0,0.0,0.0,0.0,0.0,0.0,0.0,0.0,0.0,0.0,0.0,0.0,0.0,0.0,0.0,0.0,0.0,0.0,0.0,0.0,0.0,0.0,0.0,0.0,0.0,0.0,0.0,0.0,0.0,0.0,0.0,0.0,0.0,0.0,0.0,0.0,0.0,0.0,0.0,0.0,0.0,0.0,0.0,0.0,0.0,0.0,0.0,0.0,0.0,0.0,0.0,0.0,0.0,0.0,0.0,0.0,0.0,0.0,0.0,0.0,0.0,0.0,0.0,0.0,0.0,0.0,0.0,0.0,0.0,0.0,0.0,0.0,0.0,0.0,0.0,0.0,0.0,0.0,0.0,0.0,0.0,0.0,0.0,0.0,0.0,0.0,0.0,0.0,0.0,0.0,0.0,0.0,0.0,0.0,0.0,0.0,0.0,0.0,0.0,0.0,0.0,0.0,0.0,0.0,0.0,0.0,0.0,0.0,0.0,0.0,0.0,0.0,0.0,0.0,0.0,0.0,0.0,0.0,0.0,0.0,0.0,0.0,0.0,0.0,0.0,0.0,0.0,0.0,0.0,0.0,0.0,0.0,0.0,0.0,0.0,0.0,0.0,0.0,0.0,0.0,0.0,0.0,0.0,0.0,0.0,0.0,0.0,0.0,0.0,0.0,0.0,0.0,0.0,0.0,0.0,0.0,0.0,0.0,0.0,0.0,0.0,0.0,0.0,0.0,0.0,0.0,0.0,0.0,0.0,0.0,0.0,0.0,0.0,0.0,0.0,0.0,0.0,0.0,0.0,0.0,0.0,0.0,0.0,0.0,0.0,0.0,0.0,0.0,0.0,0.0,0.0,0.0,0.0,0.0,0.0,0.0,0.0,0.0,0.0,0.0,0.0,0.0,0.0,0.0,0.0,0.0,0.0,0.0,0.0,0.0,0.0,0.0,0.0,0.0,0.0,0.0,0.0,0.0,0.0,0.0,0.0,0.0,0.0,0.0,0.0,0.0,0.0,0.0,0.0,0.0,0.0,0.0,0.0,0.0,0.0,0.0,0.0,0.0,0.0,0.0,0.0,0.0,0.0,0.0,0.0,0.0,0.0,0.0,0.0,0.0,0.0,0.0,0.0,0.0,0.0,0.0,0.0,0.0,0.0,0.0,0.0,0.0,0.0,0.0,0.0,0.0,0.0,0.0,0.0,0.0,0.0,0.0,0.0,0.0,0.0,0.0,0.0,0.0,0.0,0.0,0.0,0.0,0.0,0.0,0.0,0.0,0.0,0.0,0.0,0.0,0.0,0.0,0.0,0.0,0.0,0.0,0.0,0.0,0.0,0.0,0.0,0.0,0.0,0.0,0.0,0.0,0.0,0.0,0.0,0.0,0.0,0.0,0.0,0.0,0.0,0.0,0.0,0.0,0.0,0.0,0.0,0.0,0.0,0.0,0.0,0.0,0.0,0.0,0.0,0.0,0.0,0.0,0.0,0.0,0.0,0.0,0.0,0.0,0.0,0.0,0.0,0.0,0.0,0.0,0.0,0.0,0.0,0.0,0.0,0.0,0.0,0.0,0.0,0.0,0.0,0.0,0.0,0.0,0.0,0.0,0.0,0.0,0.0,0.0,0.0,0.0,0.0,0.0,0.0,0.0,0.0,0.0,0.0,0.0,0.0,0.0,0.0,0.0,0.0,0.0,0.0,0.0,0.0,0.0,0.0,0.0,0.0,0.0,0.0,0.0,0.0,0.0,0.0,0.0,0.0,0.0,0.0,0.0,0.0,0.0,0.0,0.0,0.0,0.0,0.0,0.0,0.0,0.0,0.0,0.0,0.0,0.0,0.0,0.0,0.0,0.0,0.0,0.0,0.0,0.0,0.0,0.0,0.0,0.0,0.0,0.0,0.0,0.0,0.0,0.0,0.0,0.0,0.0,0.0,0.0,0.0,0.0,0.0,0.0,0.0,0.0,0.0,0.0,0.0,0.0,0.0,0.0,0.0,0.0,0.0,0.0,0.0,0.0,0.0,0.0,0.0,0.0,0.0,0.0,0.0,0.0,0.0,0.0,0.0,0.0,0.0,0.0,0.0,0.0,0.0,0.0,0.0,0.0,0.0,0.0,0.0,0.0,0.0,0.0,0.0,0.0,0.0,0.0,0.0,0.0,0.0,0.0,0.0,0.0,0.0,0.0,0.0,0.0,0.0,0.0,0.0,0.0,0.0,0.0,0.0,0.0,0.0,0.0,0.0,0.0,0.0,0.0,0.0,0.0,0.0,0.0,0.0,0.0,0.0,0.0,0.0,0.0,0.0,0.0,0.0,0.0,0.0,0.0,0.0,0.0,0.0,0.0,0.0,0.0,0.0,0.0,0.0,0.0,0.0,0.0,0.0,0.0,0.0,0.0,0.0,0.0,0.0,0.0,0.0,0.0,0.0,0.0,0.0,0.0,0.0,0.0,0.0,0.0,0.0,0.0,0.0,0.0,0.0,0.0,0.0,0.0,0.0,0.0,0.0,0.0,0.0,0.0,0.0,0.0,0.0,0.0,0.0,0.0,0.0,0.0,0.0,0.0,0.0,0.0,0.0,0.0,0.0,0.0,0.0,0.0,0.0,0.0,0.0,0.0,0.0,0.0,0.0,0.0,0.0,0.0,0.0,0.0,0.0,0.0,0.0,0.0,0.0,0.0,0.0,0.0,0.0,0.0,0.0,0.0,0.0,0.0,0.0,0.0,0.0,0.0,0.0,0.0,0.0,0.0,0.0,0.0,0.0,0.0,0.0,0.0,0.0,0.0,0.0,0.0,0.0,0.0,0.0,0.0,0.0,0.0,0.0,0.0,0.0,0.0,0.0,0.0,0.0,0.0,0.0,0.0,0.0,0.0,0.0,0.0,0.0,0.0,0.0,0.0,0.0,0.0,0.0,0.0,0.0,0.0,0.0,0.0,0.0,0.0,0.0,0.0,0.0,0.0,0.0,0.0,0.0,0.0,0.0,0.0,0.0,0.0,0.0,0.0,0.0,0.0,0.0,0.0,0.0,0.0,0.0,0.0,0.0,0.0,0.0,0.0,0.0,0.0,0.0,0.0,0.0,0.0,0.0,0.0,0.0,0.0,0.0,0.0,0.0,0.0,0.0,0.0,0.0,0.0,0.0,0.0,0.0,0.0,0.0,0.0,0.0,0.0,0.0,0.0,0.0,0.0,0.0,0.0,0.0,0.0,0.0,0.0,0.0,0.0,0.0,0.0,0.0,0.0,0.0,0.0,0.0,0.0,0.0,0.0,0.0,0.0,0.0,0.0,0.0,0.0,0.0,0.0,0.0,0.0,0.0,0.0,0.0,0.0,0.0,0.0,0.0,0.0,0.0,0.0,0.0,0.0,0.0,0.0,0.0,0.0,0.0,0.0,0.0,0.0,0.0,0.0,0.0,0.0,0.0,0.0,0.0,0.0,0.0,0.0,0.0,0.0,0.0,0.0,0.0,0.0,0.0,0.0,0.0,0.0,0.0,0.0,0.0,0.0,0.0,0.0,0.0,0.0,0.0,0.0,0.0,0.0,0.0,0.0,0.0,0.0,0.0,0.0,0.0,0.0,0.0,0.0,0.0,0.0,0.0,0.0,0.0,0.0,0.0,0.0,0.0,0.0,0.0,2.0892,0.0,0.0,0.0,0.0,0.0,0.0,0.0,0.0,0.0,0.0,0.0,0.0,0.0,0.0,0.0,0.0,0.0,0.0,0.0,0.0,0.0,0.0,0.0,0.0,0.0,0.0,0.0,0.0,0.0,0.0,0.0,0.0,0.0,0.0,0.0,0.0,0.0,0.0,2.3185,2.3452,2.3939,2.4567,2.4354,2.3861,2.3171,0.0,0.0,0.0,0.0,0.0,0.0,0.0,0.0,0.0,0.0,0.0,0.0,0.0,0.0,0.0,0.0,0.0,0.0,0.0,0.0,0.0,0.0,0.0,0.0,0.0,0.0,0.0,0.0,0.0,0.0,0.0,0.0,0.0,0.0,0.0,0.0,0.0,0.0,0.0,0.0,0.0,0.0,0.0,0.0,0.0,0.0,0.0,0.0,0.0,0.0,0.0,0.0,0.0,0.0,0.0,0.0,0.0,0.0,0.0,0.0,0.0,0.0,0.0,0.0,0.0,0.0,0.0,0.0,0.0,0.0,0.0,2.1605,0.0,0.0,0.0,0.0,0.0,0.0,0.0,0.0,0.0,0.0,0.0,0.0,0.0,0.0,0.0,0.0,0.0,0.0,0.0,0.0,0.0,0.0,0.0,2.1682,2.1113,2.1365,2.0941,2.0905,0.0,0.0,0.0,0.0,0.0,0.0,2.2947,2.3503,2.3819,2.3939,2.4298,2.5106,2.6303,2.7081,2.6501,2.4837,2.5369,0.0,0.0,0.0,0.0,0.0,0.0,0.0,0.0,0.0,0.0,0.0,0.0,0.0,0.0,0.0,0.0,0.0,0.0,0.0,0.0,0.0,0.0,0.0,0.0,0.0,0.0,0.0,0.0,0.0,0.0,0.0,0.0,0.0,0.0,0.0,0.0,0.0,0.0,0.0,0.0,0.0,0.0,0.0,0.0,0.0,0.0,0.0,0.0,0.0,0.0,0.0,0.0,0.0,0.0,0.0,0.0,0.0,0.0,0.0,0.0,0.0,0.0,0.0,2.7174,2.7961,2.8431,2.9146,2.9146,2.8461,2.6153,2.4148,2.2532,0.0,0.0,0.0,0.0,0.0,0.0,0.0,0.0,0.0,0.0,0.0,0.0,0.0,0.0,0.0,0.0,0.0,0.0,0.0,0.0,0.0,0.0,2.2961,2.2649,2.1344,2.1775,2.2096,2.1999,0.0,0.0,0.0,0.0,0.0,2.3482,2.4126,2.4754,2.5345,2.7081,2.8338,2.9112,3.0313,3.0133,2.8749,2.6859,2.5864,2.5614,0.0,0.0,0.0,0.0,0.0,0.0,0.0,0.0,0.0,0.0,0.0,0.0,0.0,0.0,0.0,0.0,0.0,0.0,0.0,0.0,0.0,0.0,0.0,0.0,0.0,0.0,0.0,0.0,0.0,0.0,0.0,0.0,0.0,0.0,0.0,0.0,0.0,0.0,0.0,0.0,0.0,2.1665,1.9957,0.0,0.0,0.0,0.0,0.0,0.0,0.0,0.0,0.0,0.0,0.0,0.0,0.0,2.5682,2.6381,2.8275,2.9007,2.8626,3.1305,3.2229,3.1634,3.2467,3.2706,3.2436,3.1662,0.0,2.5914,2.5345,0.0,0.0,0.0,0.0,0.0,0.0,0.0,0.0,0.0,0.0,0.0,0.0,0.0,0.0,0.0,0.0,0.0,0.0,0.0,0.0,0.0,2.3293,2.3212,2.2451,2.4143,2.4677,2.3426,2.4368,0.0,0.0,0.0,2.4057,2.4178,2.4066,2.4926,2.6722,2.8697,3.0402,3.1779,3.2377,3.2527,3.2287,3.087,2.897,2.6838,2.7172,0.0,0.0,0.0,0.0,0.0,0.0,0.0,0.0,0.0,0.0,0.0,0.0,0.0,0.0,0.0,0.0,0.0,0.0,0.0,0.0,0.0,0.0,0.0,0.0,0.0,0.0,0.0,0.0,0.0,0.0,0.0,0.0,0.0,0.0,0.0,0.0,0.0,0.0,0.0,2.3541,2.3977,2.1525,2.3417,2.3992,0.0,0.0,0.0,0.0,0.0,0.0,0.0,0.0,0.0,2.8341,2.8581,2.8994,2.9637,3.0984,3.1866,3.2275,3.4029,3.4801,3.4794,3.5317,3.5403,3.5211,3.4882,3.3483,3.1216,2.8435,2.6662,2.5644,0.0,0.0,0.0,0.0,2.4298,2.4979,0.0,0.0,0.0,0.0,0.0,0.0,0.0,0.0,0.0,0.0,0.0,0.0,2.3671,2.4349,2.4657,2.4553,2.6603,2.7095,2.5167,2.5637,2.5418,2.4064,2.3982,2.4157,2.4605,2.5106,2.6512,2.8843,3.0971,3.2796,3.4262,3.4592,3.4921,3.522,3.4891,3.2557,2.8869,2.8997,2.8162,2.6613,0.0,0.0,0.0,0.0,0.0,0.0,0.0,0.0,0.0,0.0,0.0,0.0,0.0,0.0,0.0,0.0,0.0,0.0,0.0,0.0,0.0,0.0,0.0,0.0,0.0,0.0,0.0,0.0,0.0,0.0,0.0,0.0,0.0,0.0,0.0,0.0,0.0,2.4924,2.592,2.2993,2.539,2.6109,0.0,0.0,0.0,0.0,0.0,0.0,2.9377,2.9813,3.0542,3.1803,3.1977,3.2326,3.2937,3.3709,3.453,3.5429,3.6246,3.684,3.7246,3.7523,3.7458,3.7216,3.7049,3.6585,3.5614,3.1333,2.8996,2.8038,2.72,2.6961,2.7056,2.6752,2.7021,2.7709,0.0,0.0,0.0,0.0,0.0,0.0,0.0,0.0,0.0,0.0,0.0,2.4565,2.5149,2.6965,2.8086,2.7966,2.8768,2.867,2.714,2.5916,2.4893,2.4034,2.3897,2.407,2.4605,2.8248,3.0851,3.2258,3.4891,3.6237,3.6357,3.7584,3.7823,3.7285,3.7883,3.5968,3.2198,3.0939,2.9837,2.8844,2.7557,0.0,0.0,0.0,0.0,0.0,0.0,0.0,0.0,0.0,0.0,0.0,0.0,0.0,0.0,0.0,0.0,0.0,0.0,0.0,0.0,0.0,0.0,0.0,0.0,0.0,0.0,0.0,0.0,0.0,0.0,0.0,0.0,0.0,0.0,0.0,0.0,0.0,0.0,2.3463,2.6549,0.0,0.0,0.0,0.0,2.836,2.9639,3.0715,3.1505,3.2764,3.3827,3.4695,3.5112,3.5687,3.6365,3.7045,3.7396,3.7455,3.8282,3.8569,3.8413,3.8818,3.8782,3.8421,3.8353,3.8167,3.7664,3.387,3.2258,3.2049,3.0761,3.0614,3.1062,2.9834,2.9774,3.0223,0.0,0.0,0.0,0.0,0.0,0.0,0.0,0.0,2.243,2.3705,2.4143,2.513,2.7088,2.9119,3.0505,3.0883,3.2385,3.2013,2.883,2.8082,2.6848,2.4733,2.4511,2.5311,2.7116,2.9777,3.2198,3.4442,3.6207,3.7524,3.8392,3.8841,3.8931,3.8721,3.896,3.8033,3.6178,3.4442,3.2766,3.1138,2.9392,2.8531,0.0,0.0,0.0,0.0,0.0,0.0,0.0,0.0,0.0,0.0,0.0,0.0,0.0,0.0,0.0,0.0,0.0,0.0,0.0,0.0,0.0,0.0,0.0,0.0,0.0,0.0,0.0,0.0,0.0,0.0,0.0,0.0,0.0,0.0,0.0,0.0,0.0,2.762,3.0573,0.0,2.9406,2.9638,3.0309,3.109,3.2338,3.3703,3.5218,3.5747,3.6509,3.7631,3.7412,3.7375,3.7645,3.7878,3.7994,3.7994,3.8273,3.8389,3.8315,3.8575,3.8575,3.8285,3.8119,3.7967,3.7783,3.6115,3.5061,3.4322,3.2946,3.2587,3.2736,3.2258,3.2497,3.3036,0.0,0.0,0.0,0.0,0.0,0.0,0.0,0.0,2.2393,2.3674,2.4667,2.6198,2.8713,3.114,3.2859,3.3533,3.4451,3.347,2.9827,2.8625,2.7126,2.5031,2.5657,2.7065,2.9205,3.16,3.3932,3.6148,3.7674,3.8871,3.9738,3.9978,4.0068,4.0068,4.0068,3.9828,3.929,3.7793,3.5759,3.3365,3.136,3.0476,2.9993,0.0,0.0,0.0,0.0,0.0,0.0,0.0,0.0,0.0,0.0,0.0,0.0,0.0,0.0,0.0,0.0,0.0,0.0,0.0,0.0,0.0,0.0,0.0,0.0,0.0,0.0,0.0,0.0,0.0,0.0,0.0,0.0,0.0,0.0,0.0,3.2182,3.1445,3.3901,3.4893,3.3009,3.3071,3.3565,3.437,3.5415,3.6664,3.8173,3.8231,3.8551,3.9189,3.8783,3.8434,3.8202,3.8202,3.8202,3.8202,3.8202,3.8202,3.8202,3.8389,3.8389,3.8211,3.8143,3.8112,3.801,3.7541,3.6793,3.5892,3.4919,3.4352,3.4173,3.4173,3.4442,3.4863,0.0,0.0,0.0,0.0,0.0,0.0,2.2555,2.2611,2.3052,2.4123,2.5946,2.7899,2.9881,3.2968,3.5213,3.5849,3.4729,3.2816,3.0175,2.7376,2.5583,2.4965,2.731,2.9265,3.0642,3.3873,3.6178,3.7464,3.9439,4.0397,4.0397,4.1085,4.1422,4.1422,4.1422,4.1422,4.1354,4.0696,3.8601,3.5519,3.3455,3.2617,3.2228,0.0,0.0,0.0,0.0,0.0,0.0,0.0,0.0,0.0,0.0,0.0,0.0,0.0,0.0,0.0,0.0,0.0,0.0,0.0,0.0,0.0,0.0,0.0,0.0,0.0,0.0,0.0,0.0,0.0,0.0,0.0,0.0,0.0,2.9871,3.3132,3.5247,3.4632,3.6257,3.6925,3.5712,3.6083,3.6925,3.8173,3.887,3.9509,4.0089,4.0118,3.9857,3.9276,3.9247,3.8899,3.8231,3.826,3.8231,3.8202,3.8231,3.8231,3.8202,3.8389,3.8352,3.824,3.8612,3.8686,3.8442,3.7981,3.7405,3.6856,3.6581,3.6088,3.5457,3.5457,3.5519,3.5519,0.0,0.0,0.0,0.0,0.0,0.0,2.3469,2.3405,2.3433,2.3688,2.6543,2.8966,3.006,3.3482,3.5761,3.5943,3.4304,3.2359,3.0141,2.7824,2.6832,2.752,2.8693,3.0821,3.4053,3.5489,3.7075,3.8871,3.9888,4.0397,4.0397,4.1085,4.1422,4.1422,4.1422,4.1422,4.1422,4.1175,4.0576,3.9499,3.6567,3.4801,3.3724,0.0,0.0,0.0,0.0,0.0,0.0,0.0,0.0,0.0,0.0,0.0,0.0,0.0,0.0,0.0,0.0,0.0,0.0,0.0,0.0,0.0,0.0,0.0,0.0,0.0,0.0,0.0,0.0,0.0,0.0,0.0,0.0,3.2954,3.3097,3.5247,3.7041,3.7796,3.916,3.9915,3.9567,3.9247,3.9189,3.9538,4.0205,4.0641,4.0815,4.0815,4.0757,4.0583,4.0118,3.9538,3.8928,3.9363,3.9102,3.8202,3.8696,3.8667,3.8202,3.824,3.824,3.8202,3.8315,3.8164,3.7865,3.7696,3.7069,3.6173,3.6069,3.5659,3.5067,3.5067,3.5162,3.5294,0.0,0.0,0.0,0.0,0.0,0.0,2.3669,2.3405,2.3246,2.3389,2.6711,2.9194,2.959,3.282,3.4846,3.4574,3.2943,3.0981,2.8712,2.767,2.769,2.8936,3.073,3.3006,3.5848,3.7105,3.8422,3.9828,4.0756,4.1235,4.1235,4.1893,4.2342,4.2611,4.2611,4.2761,4.297,4.2432,4.2192,4.1983,3.9529,3.7734,3.6357,3.4472,3.3336,3.2795,3.2614,3.2612,3.2485,3.0813,0.0,0.0,0.0,0.0,0.0,0.0,0.0,0.0,0.0,0.0,0.0,0.0,0.0,0.0,0.0,0.0,0.0,0.0,0.0,0.0,0.0,0.0,0.0,0.0,3.4932,3.678,3.7854,3.8522,3.9363,4.0641,4.1453,4.1802,4.1541,4.1163,4.1047,4.1279,4.1657,4.1889,4.1889,4.1889,4.1773,4.1512,4.0873,4.035,4.0002,4.006,3.9741,3.9015,3.9392,3.9247,3.8609,3.8609,3.8463,0.0,3.8202,3.8074,3.7835,3.7572,3.6944,0.0,0.0,0.0,0.0,0.0,3.51,3.5228,0.0,0.0,0.0,0.0,0.0,0.0,2.3342,2.3035,2.2866,2.3229,2.6443,2.8646,2.8556,3.1234,3.2826,3.2228,3.0881,2.9116,2.6866,2.7405,2.8513,3.0101,3.3156,3.5429,3.6776,3.8661,3.9918,4.0516,4.1871,4.25,4.253,4.321,4.3828,4.4436,4.4396,4.4695,4.5214,4.3967,4.3489,4.3409,4.2243,4.0905,3.9254,3.6956,3.6007,3.5744,3.463,3.4241,3.4091,3.276,0.0,0.0,0.0,0.0,0.0,0.0,0.0,0.0,0.0,0.0,0.0,0.0,0.0,0.0,0.0,0.0,0.0,0.0,0.0,0.0,0.0,0.0,0.0,0.0,3.8713,4.0379,4.2847,4.2179,4.1802,4.2876,4.305,4.2876,4.2266,4.2266,4.2528,4.3079,4.3108,4.3108,4.3108,0.0,0.0,0.0,0.0,4.1395,4.1308,4.0728,4.035,4.0205,4.0205,3.9886,3.9305,3.9305,3.8957,3.8318,3.8318,3.8231,3.8057,3.7535,3.6896,3.6264,3.5878,3.5369,3.4868,3.5067,3.5162,3.5195,0.0,0.0,0.0,0.0,0.0,0.0,2.2841,2.3186,2.3383,2.331,2.562,2.7073,2.6458,2.8771,3.0283,3.0163,2.8427,2.7375,2.7405,2.8543,3.052,3.3425,3.5639,3.7464,3.8811,4.0277,4.1055,4.1205,4.2491,4.315,4.314,4.4347,4.4975,4.5095,4.4959,4.5019,4.5274,4.459,4.4585,4.4885,4.4441,4.2663,4.0157,3.9649,3.8452,3.7109,3.7379,3.7173,3.6547,3.5384,3.5235,3.5177,3.2851,3.094,0.0,0.0,0.0,0.0,0.0,0.0,0.0,0.0,0.0,0.0,0.0,0.0,0.0,0.0,0.0,0.0,0.0,0.0,0.0,3.8568,4.035,4.2237,4.424,4.3892,4.3311,4.3021,4.3456,4.3544,4.2876,4.3311,4.366,4.3805,4.3805,4.3805,4.3805,4.3805,4.3747,4.3631,4.3515,4.3166,4.2644,4.2498,4.1918,4.0902,0.0,0.0,3.9915,3.9915,3.9596,3.9015,3.9015,3.8434,3.7476,3.736,3.6896,3.6199,3.5107,3.4617,3.4501,3.4731,3.4865,3.5001,0.0,0.0,0.0,0.0,0.0,0.0,2.3613,2.3392,2.3146,2.326,2.5124,2.6159,2.5425,2.6999,2.7974,2.772,2.6417,2.6452,2.8483,2.9834,3.2018,3.5372,3.7375,3.8871,3.9888,4.1205,4.1901,4.1901,4.2851,4.329,4.3319,4.4347,4.4975,4.5304,4.5538,4.5908,4.6249,4.5582,4.5476,4.5741,4.5048,4.4032,4.2791,4.2132,4.1055,3.9858,3.9529,3.9409,3.911,3.7207,3.6997,3.7091,3.451,3.3005,3.1861,0.0,0.0,0.0,0.0,0.0,0.0,0.0,0.0,0.0,0.0,0.0,0.0,0.0,0.0,3.3703,3.5175,0.0,3.979,4.1337,4.2934,4.4327,4.5256,4.514,4.4705,4.4008,4.424,4.4182,4.3544,4.3805,4.4124,4.4414,4.4443,4.4443,4.4443,4.4443,4.4443,4.4443,4.4153,4.3979,4.395,4.3311,4.2673,4.2034,4.1744,4.125,4.0583,4.0583,4.0089,3.9189,3.8841,3.8173,3.7273,3.6954,3.6606,3.6257,3.5619,3.5183,3.4869,3.4747,3.4731,3.4802,0.0,0.0,0.0,0.0,0.0,0.0,0.0,2.3542,2.294,2.3414,2.4741,2.5409,2.4744,2.5417,2.5708,2.5266,2.5085,2.6387,2.9592,3.112,3.3395,3.6716,3.8751,4.0038,4.0576,4.1893,4.259,4.259,4.3329,4.3678,4.3708,4.4526,4.5185,4.5693,4.6219,4.6758,4.7236,4.6397,4.6232,4.6429,4.5352,4.5052,4.5143,4.4026,4.311,4.2231,4.1025,4.0606,4.0307,3.8422,3.7973,3.7853,3.5881,3.507,3.4321,3.1659,3.0763,0.0,0.0,0.0,0.0,0.0,0.0,0.0,0.0,3.2792,3.3642,3.4456,3.5375,3.6691,3.8763,4.0525,4.2208,4.3892,4.5024,4.575,4.5866,4.5779,4.5488,4.4937,4.4995,4.485,4.4211,4.4269,4.456,4.5053,4.5082,4.5082,4.5082,4.5082,4.5082,4.5082,4.4618,4.4589,4.5082,4.3805,4.3195,4.3195,4.244,4.1831,4.1279,4.1279,4.067,3.9538,3.8725,3.8115,3.7622,3.6954,3.6664,3.6664,3.6548,3.6199,3.5712,3.521,3.5044,3.5083,0.0,0.0,0.0,0.0,0.0,0.0,0.0,0.0,2.3513,2.4102,2.4305,2.428,2.3945,2.3595,2.3343,2.3149,2.5236,2.7655,3.0223,3.2198,3.4741,3.8033,4.0098,4.1205,4.1265,4.2551,4.32,4.32,4.4466,4.5065,4.5095,4.6381,4.701,4.707,4.6913,4.7003,4.7266,4.6491,4.655,4.7103,4.6359,4.5622,4.5013,4.4864,4.3796,4.2291,4.1572,3.9798,3.8003,3.8901,3.8452,3.7554,3.7853,3.7063,3.5532,3.3005,3.1722,3.0743,2.8973,2.9337,3.0596,3.2225,3.2665,3.3635,0.0,3.7761,3.823,4.0081,4.0887,4.1523,4.2295,4.3137,4.3921,4.4676,4.4908,4.5198,4.5808,4.5372,4.4966,4.4908,4.5401,4.5518,4.485,4.5314,4.5692,4.5779,4.5779,4.5779,4.5779,4.5779,4.5779,4.5779,4.5721,4.5721,4.5779,4.4501,4.3892,4.3863,4.2673,4.2063,4.1976,4.1976,4.1599,4.0815,3.9625,3.9044,3.8928,3.826,3.7999,3.7941,3.7418,3.7157,3.7012,3.638,3.6254,3.6307,0.0,0.0,0.0,0.0,0.0,0.0,0.0,0.0,0.0,2.4328,2.4307,2.416,2.4046,2.3457,2.3021,2.2919,2.4225,2.6627,3.0363,3.2047,3.4562,3.8242,3.9948,4.0995,4.1422,4.2282,4.294,4.329,4.3858,4.4167,4.4167,4.5125,4.5753,4.6142,4.6403,4.6864,4.7266,4.68,4.6887,4.7266,4.6491,4.5932,4.5476,4.4411,4.271,4.0791,3.9934,3.862,0.0,3.6712,3.6619,3.6726,3.7029,3.6391,3.5159,3.3418,3.2079,3.1072,3.0686,3.122,3.2313,3.4165,3.5486,3.684,3.887,4.0041,4.0908,4.1726,4.2886,4.3805,4.4037,4.4937,4.5605,0.0,4.5779,4.5982,4.5895,4.5314,4.4763,4.4414,4.4618,4.4821,4.4879,4.5488,4.5895,4.5895,4.5895,4.5895,4.5895,4.5895,4.5895,4.5895,4.5895,4.5895,4.5895,4.4966,4.4501,4.4501,4.3224,4.2615,4.2615,4.2266,4.1512,4.0437,3.916,3.8609,3.858,3.7941,3.7883,3.8173,3.7912,3.7825,3.7709,3.6693,3.6351,3.6393,0.0,0.0,0.0,0.0,0.0,0.0,0.0,0.0,0.0,0.0,2.4051,2.3876,2.3692,2.3162,2.2735,2.2493,2.3322,2.559,2.9606,3.1357,3.3844,3.7434,3.923,4.0337,4.0816,4.1871,4.262,4.306,4.3379,4.3559,4.3589,4.4287,4.4825,4.5304,4.5813,4.6292,4.6741,4.6397,4.644,4.6642,4.605,4.5521,4.4862,4.3365,4.1037,3.859,3.8145,3.7049,3.5644,3.4526,3.4433,3.4869,3.5258,3.4952,3.4171,3.2966,3.1782,3.1073,3.216,3.3071,3.4185,3.623,3.837,4.0158,4.0979,4.2263,4.3394,4.3743,4.4531,4.5169,4.5169,4.5924,4.6417,4.5953,4.6272,4.6475,4.6185,4.5285,4.4414,4.3805,4.3573,4.3631,4.4066,4.5024,4.5692,4.5866,4.5895,4.5895,4.5895,4.5895,4.5895,4.5895,4.5895,4.5895,4.5895,4.5227,4.4879,4.4879,4.3776,4.3166,4.2963,4.2382,4.157,4.0583,3.9479,3.9015,3.8957,3.8347,3.8347,3.8696,3.8551,3.8492,3.8347,3.7244,3.6838,3.6809,0.0,0.0,0.0,0.0,0.0,0.0,0.0,0.0,0.0,0.0,0.0,0.0,0.0,2.2221,2.187,2.1198,2.2899,2.5055,2.7625,3.0131,3.2736,3.5459,3.8063,3.9469,3.9433,4.1422,4.241,4.244,4.3658,4.4287,4.4287,4.4945,4.5274,4.5304,4.5304,4.5334,4.5323,4.4862,4.482,4.5048,4.4982,4.3976,4.2433,4.1719,3.9086,3.5839,3.6639,3.4942,3.2373,3.3091,3.2406,3.1486,3.2942,3.3142,3.2627,3.1485,3.066,3.0631,3.3035,3.4547,3.612,3.8472,4.0989,4.3209,4.4487,4.5301,4.6127,4.7393,4.6679,4.5866,4.5866,4.5895,4.5895,4.5895,4.5895,4.6127,4.6662,4.5198,4.3776,4.3108,4.2498,4.215,0.0,4.3834,4.5198,4.5837,4.5895,4.5895,4.5895,4.5895,4.5895,4.5895,4.5895,4.5895,4.5895,4.5227,4.4879,4.4879,4.4269,4.3631,4.2963,4.2382,4.2063,4.2005,4.1308,4.1018,4.096,4.0292,4.0031,3.9973,3.9392,3.916,3.9102,3.8405,3.8144,3.8057,0.0,0.0,0.0,0.0,0.0,0.0,0.0,0.0,0.0,0.0,0.0,0.0,0.0,0.0,0.0,0.0,2.1766,2.3153,2.5689,2.8226,3.0608,3.2736,3.5818,3.7674,3.8063,3.9619,4.0636,4.1055,4.1953,4.2372,4.2372,4.2611,4.294,4.3399,4.3838,4.4257,4.4676,4.4929,4.487,4.4452,4.3749,4.2614,4.1097,3.894,3.6558,3.4138,0.0,3.1368,3.0099,3.0061,2.986,2.9809,3.0749,3.0602,3.0075,3.0105,3.0923,3.2328,3.4797,3.6968,3.9208,4.1744,4.366,4.514,4.5982,4.6679,4.6911,4.604,4.5109,4.4225,4.3515,4.3284,4.3357,4.3892,4.5053,4.5953,4.6156,4.5663,4.4531,4.2615,4.2557,0.0,0.0,0.0,0.0,4.514,4.5227,4.543,4.5866,4.5895,4.5895,4.5895,4.5895,4.5895,4.5895,4.5663,4.5547,4.5547,4.4501,4.3631,4.2963,4.2382,4.2092,4.2063,4.1395,4.1105,4.1047,4.0379,4.0089,4.0089,3.9886,3.9538,3.9218,3.9392,3.9218,3.8783,0.0,0.0,0.0,0.0,0.0,0.0,0.0,0.0,0.0,0.0,0.0,0.0,0.0,0.0,0.0,0.0,0.0,2.1892,2.3728,2.6036,2.7931,2.9328,3.2377,3.4203,3.4592,3.6387,3.7494,3.7943,3.8841,3.9409,3.9655,3.9655,4.0134,4.1003,4.1414,4.1953,4.2581,4.2682,4.2345,4.165,4.0651,3.9467,3.8053,3.5761,3.3853,0.0,3.0129,2.8978,2.8387,2.808,2.8189,2.8588,2.9344,2.9638,2.9813,3.0451,3.2082,3.4301,3.7223,3.9538,4.1715,4.4066,4.5634,4.6621,4.6749,4.6969,4.6621,4.4908,4.3603,4.2331,4.0908,4.0498,4.0747,4.1749,4.3139,4.4458,4.5401,4.514,4.4327,4.2934,4.2702,4.244,0.0,0.0,0.0,4.4792,4.5111,4.5518,4.6185,4.6011,4.5982,4.6214,4.6011,4.5895,4.5895,4.5895,4.5895,4.5866,4.4589,4.3776,4.3311,4.2469,4.2092,4.2063,4.1628,4.1453,4.1424,4.0989,4.0815,4.0786,4.0554,4.0205,3.9886,4.0031,3.9857,3.9421,0.0,0.0,0.0,0.0,0.0,0.0,0.0,0.0,0.0,0.0,0.0,0.0,0.0,0.0,0.0,0.0,0.0,0.0,2.1876,2.3643,2.495,2.5465,2.8068,2.9532,2.9562,3.2018,3.3335,3.3335,3.4651,3.5609,3.6237,3.6237,3.6866,3.8033,3.8063,3.8452,3.8985,3.821,3.748,3.6793,3.5903,3.4835,3.3574,3.2248,3.1043,2.9946,2.8696,2.7813,2.7207,2.7296,2.7556,2.8013,2.8763,3.0192,3.1727,3.251,3.4109,3.6467,4.0205,4.2208,4.3631,4.5488,4.6853,4.7608,4.694,4.6272,4.543,4.4124,4.2237,4.0253,3.8245,3.789,3.8351,3.965,4.0545,4.2013,4.4589,4.3979,4.3456,0.0,0.0,0.0,0.0,0.0,0.0,4.4908,0.0,4.6185,4.6807,4.6272,4.6214,4.6749,4.6214,4.5895,4.5895,4.5895,4.5895,4.5866,4.4618,4.4037,4.395,4.2702,4.2121,4.2092,4.2092,4.2092,4.2092,4.2092,4.2092,4.2034,4.1395,4.1134,4.1018,4.0408,4.0176,4.006,0.0,0.0,0.0,0.0,0.0,0.0,0.0,0.0,0.0,0.0,0.0,0.0,0.0,0.0,0.0,0.0,0.0,0.0,2.0569,2.2294,2.361,2.4206,2.6741,2.8334,2.8846,3.0432,3.127,3.127,3.2108,3.2617,3.2766,3.2766,3.2946,3.3274,3.3784,3.4113,3.4261,3.4558,3.4288,3.36,3.2761,3.196,3.1071,2.9712,2.903,2.8699,2.8025,2.7531,2.7355,2.8302,2.9461,3.051,3.0249,3.1471,3.3416,3.5473,3.7418,3.9538,4.2469,4.4531,4.5982,4.6475,4.7201,4.7491,4.6388,4.5256,4.3979,4.2208,3.9421,3.7032,3.6251,3.631,3.7139,3.9083,4.1935,0.0,4.5459,4.6563,0.0,4.4879,4.5227,4.5314,4.4472,4.5285,0.0,0.0,4.6069,4.6359,4.7491,4.694,4.665,4.6778,4.6214,4.5895,4.5895,4.5895,4.5895,4.5866,4.5053,4.4414,4.395,4.3137,4.2528,4.2092,4.2092,4.2092,4.2092,4.2092,4.2092,4.2063,4.1918,4.1541,4.1134,4.1453,4.1279,4.0815,0.0,0.0,0.0,0.0,0.0,0.0,0.0,0.0,0.0,0.0,0.0,0.0,0.0,0.0,0.0,0.0,0.0,0.0,0.0,2.1367,2.2104,2.2475,2.4395,2.5338,2.5182,2.6686,2.747,2.747,2.8132,2.876,2.9328,2.9328,2.9657,3.0225,3.0642,3.0941,3.124,3.13,3.112,0.0,0.0,2.919,2.8982,2.7969,2.7709,2.7891,2.7684,2.8155,2.9011,2.9927,3.1389,3.2832,3.3035,3.4806,3.7157,3.8899,4.0728,4.2702,4.5024,4.6446,4.7259,4.7259,4.7085,4.6388,4.4269,4.2789,4.1192,3.8667,3.6179,3.4293,3.3719,3.4028,3.5062,3.7076,4.0115,4.2907,4.4792,4.6446,4.7143,4.6272,4.6795,0.0,4.6214,4.6824,4.7375,0.0,4.7085,4.7143,4.813,4.7608,4.7375,4.7619,4.7056,4.6592,4.6301,4.6011,4.5895,4.5866,4.5198,4.456,4.3979,4.3602,4.3079,4.2498,0.0,4.2498,4.2469,4.2208,4.2092,4.2092,4.2092,4.186,4.157,4.1947,4.186,4.1541,0.0,0.0,0.0,0.0,0.0,0.0,0.0,0.0,0.0,0.0,2.1813,0.0,0.0,0.0,0.0,0.0,0.0,0.0,0.0,0.0,2.0971,2.108,2.2114,2.2234,2.1192,2.2783,2.361,2.361,2.4186,2.5053,2.6183,2.6183,2.6811,2.7949,2.7949,2.8248,2.8783,2.8188,2.7979,2.7979,2.6811,2.6746,2.7285,0.0,2.6887,2.7268,2.7458,2.8907,3.0867,3.1683,3.3303,3.5241,3.6431,3.8957,4.1657,4.2469,4.3921,4.5663,4.7521,4.8043,4.7985,4.7811,4.6766,4.4937,4.1802,3.9973,3.8086,3.5038,3.3325,3.2159,3.1483,3.1945,3.3099,3.5062,3.7515,4.0365,4.3776,4.5343,4.6563,4.7753,4.7985,4.8043,4.8043,4.8043,4.8246,4.8798,4.8333,4.8275,4.8827,4.8246,4.8072,4.8449,4.8014,4.7433,4.6662,4.6243,4.5982,4.5866,4.5285,4.4705,4.4124,4.4124,4.3747,4.3137,4.3137,0.0,4.3079,4.2469,4.2266,4.2324,4.2179,4.215,4.2208,4.2121,4.2092,4.2092,0.0,0.0,0.0,0.0,0.0,0.0,0.0,0.0,0.0,0.0,2.1854,2.2274,0.0,0.0,0.0,0.0,0.0,0.0,0.0,0.0,0.0,2.2425,2.2594,2.2823,2.3092,2.343,2.361,2.361,2.3729,2.3879,2.4118,2.4118,2.4238,2.4477,2.4477,2.4537,2.4627,2.4507,2.4807,2.5262,2.5053,2.5352,2.6004,2.6422,0.0,0.0,2.6979,2.813,2.9807,3.2351,3.5508,3.8492,3.9218,4.1308,4.3805,4.5518,4.6621,4.7579,4.8972,4.9378,4.9117,4.8043,4.6417,4.4356,4.1715,3.9305,3.7012,3.4864,3.2977,3.1611,3.1492,3.2481,3.4076,3.6541,3.9064,4.1848,4.5111,4.665,4.7724,0.0,4.903,4.9349,4.9349,4.9349,0.0,0.0,0.0,4.9407,4.9494,4.8914,4.813,4.7155,4.755,4.723,4.6069,4.6475,4.6388,4.5895,4.5779,4.5372,4.4734,4.4734,4.4385,4.3805,4.3805,0.0,4.3776,4.3108,4.3166,4.3573,4.2498,4.2382,4.2789,4.2266,4.2092,4.2092,0.0,0.0,0.0,0.0,0.0,0.0,0.0,2.0786,2.0475,2.1126,2.1784,2.2074,2.1724,2.2024,2.1984,0.0,0.0,0.0,0.0,0.0,0.0,2.2787,2.3044,2.3023,2.2675,2.2993,2.3152,2.3152,0.0,2.3281,2.361,2.361,2.361,2.361,2.361,2.3789,2.4096,2.3759,2.4388,2.5615,2.5262,2.5734,2.6686,2.7016,0.0,0.0,2.7067,2.8106,2.9781,3.1855,3.4874,3.8028,4.0002,4.2615,4.5082,4.5663,4.723,4.8827,4.9117,4.9436,4.9378,4.8101,4.5837,4.305,3.9857,3.7157,3.4661,3.2365,3.1147,3.0626,3.0974,3.2106,3.3587,3.5503,3.7389,3.9973,4.3834,4.5198,4.6534,4.8508,4.9291,4.9717,4.9717,4.9717,4.9717,0.0,0.0,4.9717,4.9717,4.9378,4.8943,4.8333,4.8275,4.7811,4.6882,4.6853,4.6505,4.5895,4.5895,4.5547,4.4908,4.5256,4.5053,4.4472,4.4472,0.0,4.4414,4.3776,4.3485,4.3398,4.2789,4.2731,4.2934,4.2324,4.2295,4.2528,0.0,0.0,0.0,0.0,0.0,0.0,0.0,2.0793,2.0471,2.1764,2.1804,2.1784,2.2084,2.2113,2.2054,0.0,0.0,0.0,0.0,0.0,0.0,0.0,0.0,0.0,2.2234,0.0,0.0,2.3122,2.3122,0.0,0.0,0.0,0.0,0.0,2.3879,2.4208,2.4784,2.4268,2.5016,0.0,0.0,2.6512,0.0,0.0,0.0,0.0,0.0,2.8226,2.9608,3.1155,3.3274,3.5764,3.858,4.1947,4.4821,4.456,4.665,4.903,4.8798,4.9175,4.9407,4.8275,4.5372,4.186,3.8318,3.5415,3.2806,3.0335,2.9813,2.9987,3.051,3.1526,3.2684,3.3926,3.5236,3.7622,4.1935,4.3398,4.5111,4.8159,4.9204,0.0,4.9717,4.9717,0.0,0.0,0.0,0.0,4.9717,4.9717,4.9611,4.9465,4.9117,4.8508,4.7579,4.723,4.665,4.5895,4.5895,4.5605,4.5111,4.5634,4.5518,4.4908,4.5024,0.0,0.0,4.4385,4.3863,4.3369,4.3108,4.3079,4.3108,4.2395,4.2511,4.2947,0.0,0.0,0.0,0.0,0.0,0.0,0.0,2.0891,2.1201,2.2526,2.2114,2.2143,2.331,2.343,2.3191,0.0,0.0,0.0,0.0,0.0,0.0,0.0,0.0,0.0,0.0,0.0,0.0,2.4425,2.4425,0.0,0.0,0.0,0.0,0.0,0.0,2.4874,2.5525,2.5465,0.0,0.0,0.0,0.0,0.0,0.0,0.0,0.0,0.0,2.7831,2.8439,3.0744,3.1729,3.2222,3.3736,3.76,4.1744,4.2847,4.5024,4.7317,4.8373,4.9175,4.9524,4.8827,4.5372,4.1453,3.8725,3.5706,3.2922,3.0917,3.051,3.0539,3.0598,3.1148,3.1985,3.3128,3.4535,3.6773,4.0556,4.2763,4.4966,4.755,0.0,0.0,4.9717,4.9717,0.0,0.0,0.0,0.0,4.9717,4.9717,4.9407,4.8827,4.932,4.874,4.6894,4.7433,4.7085,4.5895,4.5895,4.5866,4.5808,4.5866,4.5518,4.4908,4.5518,0.0,0.0,4.4821,4.4763,4.4589,4.3427,4.3369,4.379,4.2777,4.2636,4.2989,0.0,0.0,0.0,0.0,0.0,0.0,2.1583,2.1294,2.1546,2.32,2.2776,2.2675,2.349,2.361,2.349,2.3251,0.0,0.0,0.0,0.0,0.0,0.0,0.0,0.0,0.0,0.0,2.3939,2.4605,2.4605,0.0,0.0,0.0,0.0,0.0,0.0,2.5561,2.6183,2.5764,0.0,0.0,0.0,0.0,0.0,0.0,0.0,0.0,0.0,0.0,2.8532,2.9493,3.0306,3.1032,3.1586,3.3674,3.6489,3.9276,4.2731,4.5866,4.6766,4.8624,4.9843,4.8043,4.4821,4.1424,3.8812,3.5444,3.2454,3.0917,3.0598,3.0598,3.0598,3.0801,3.1319,3.24,3.2811,3.4259,3.8025,3.9603,4.1807,4.5605,4.7172,0.0,0.0,0.0,0.0,0.0,0.0,0.0,4.9688,4.9717,4.9553,4.9291,4.9553,4.8943,4.7404,4.7666,4.7143,4.5895,4.5895,4.5895,4.5895,4.5895,4.575,4.5518,4.5779,0.0,0.0,4.5488,4.5024,4.4298,4.3805,4.3515,4.3282,4.2495,4.2553,4.2947,0.0,0.0,0.0,0.0,0.0,2.0716,2.1976,2.1724,2.2014,2.3697,2.3474,2.3269,2.3614,2.3674,2.3653,2.361,2.3212,0.0,0.0,0.0,0.0,0.0,0.0,0.0,0.0,0.0,2.4216,2.4903,2.5083,2.5531,0.0,0.0,0.0,0.0,0.0,0.0,0.0,0.0,0.0,0.0,0.0,0.0,0.0,0.0,0.0,0.0,0.0,0.0,0.0,0.0,0.0,3.0045,3.0045,3.0771,3.2336,3.6025,4.0118,4.3689,4.4763,4.7114,4.8827,4.6998,4.3863,4.067,3.8434,3.498,3.1903,3.083,3.0598,3.0598,3.0598,3.0598,3.0915,3.1795,3.1798,3.2749,3.6007,3.737,3.9479,4.3311,0.0,4.6534,0.0,4.9349,0.0,0.0,0.0,0.0,4.964,4.9494,4.9494,4.9717,4.9494,4.8885,4.7782,4.7579,4.694,4.5895,4.5895,4.5895,4.5895,4.5895,4.5779,4.5576,0.0,0.0,0.0,4.5694,4.5054,4.4022,4.4151,4.3743,4.3031,4.2544,4.2719,4.3157,0.0,0.0,0.0,0.0,0.0,0.0,2.207,2.216,2.2592,2.4019,2.4067,2.3961,2.3803,2.3782,2.3739,2.361,2.358,0.0,0.0,0.0,0.0,0.0,0.0,0.0,0.0,0.0,2.4903,2.5585,2.6243,2.6926,2.7555,2.6896,2.6572,2.6572,0.0,0.0,0.0,0.0,0.0,0.0,0.0,0.0,0.0,0.0,0.0,0.0,0.0,0.0,0.0,0.0,0.0,0.0,0.0,2.9145,3.0248,3.3467,3.7157,4.0554,4.2498,4.4443,4.5924,4.5895,4.2528,3.8899,3.7622,3.4312,3.1351,3.0743,3.0598,3.0598,3.0598,3.0598,3.077,3.125,3.198,3.3115,3.4854,3.6903,3.8928,0.0,0.0,4.4037,4.6575,4.8566,0.0,0.0,0.0,0.0,4.9717,4.9088,4.903,4.9688,4.9059,4.842,4.7782,4.7143,4.6505,4.5895,4.5895,4.5895,4.5895,4.5895,4.5518,0.0,0.0,0.0,0.0,4.5215,4.4778,4.4022,4.4422,4.4053,4.327,4.3086,4.3264,4.3643,0.0,0.0,0.0,0.0,0.0,0.0,0.0,2.2667,2.3222,2.408,2.416,2.4046,2.3803,2.3782,2.3739,2.361,2.3242,0.0,0.0,0.0,0.0,0.0,0.0,0.0,0.0,2.4298,2.4687,2.6273,2.6033,2.6482,2.7585,2.7375,2.7285,2.7255,2.6806,2.6531,0.0,0.0,0.0,0.0,0.0,0.0,0.0,0.0,0.0,0.0,0.0,0.0,0.0,0.0,0.0,0.0,0.0,0.0,0.0,3.2019,3.4545,3.7223,3.8696,4.0495,4.1715,4.0844,3.8899,3.6896,3.5619,3.3354,3.1351,3.0743,3.0598,3.0598,3.0598,3.0598,3.1031,3.2375,3.2807,3.3475,3.4911,0.0,0.0,4.0873,4.4531,4.7404,0.0,0.0,0.0,0.0,0.0,0.0,4.9688,4.8653,4.8362,4.9001,4.842,4.7782,4.7143,4.694,4.6505,4.5895,4.6046,4.6046,4.5895,4.6046,0.0,0.0,0.0,0.0,0.0,4.4748,4.4278,4.3805,4.3973,4.3561,4.2901,4.2817,4.2917,4.3024,0.0,0.0,0.0,0.0,0.0,0.0,0.0,2.3025,2.3528,2.4142,2.4234,2.4151,2.3919,2.3897,2.3782,2.3631,2.3272,0.0,0.0,0.0,0.0,0.0,0.0,0.0,2.5585,2.5016,2.5345,2.6602,2.6422,2.6782,2.7585,2.7585,2.7465,2.7225,2.7046,2.6765,0.0,0.0,0.0,0.0,0.0,0.0,2.7615,0.0,0.0,0.0,0.0,0.0,0.0,0.0,0.0,0.0,0.0,0.0,0.0,0.0,3.2309,3.4026,3.6025,3.7796,3.8841,3.8057,3.6722,3.5328,3.4283,3.2571,3.1032,3.0685,3.0598,3.0598,3.0598,3.0598,3.1089,3.2703,3.293,3.3363,3.4634,0.0,0.0,4.0815,0.0,0.0,0.0,0.0,0.0,0.0,0.0,0.0,4.9688,4.8711,4.8217,4.8362,4.7753,4.723,4.6778,4.6592,4.6272,4.5895,4.6001,4.6046,4.6001,4.6046,0.0,0.0,0.0,0.0,0.0,4.4507,4.4002,4.372,4.3856,4.3482,4.2809,4.289,4.293,4.293,0.0,0.0,0.0,0.0,0.0,0.0,0.0,2.3332,2.3609,2.4225,2.4317,2.4234,2.4024,2.4003,2.3897,2.3631,0.0,0.0,0.0,0.0,0.0,0.0,0.0,0.0,2.5734,2.6243,2.6572,2.6662,2.7255,2.7555,2.7585,2.7585,2.7255,2.6716,2.734,2.6994,2.5998,2.6669,2.7308,2.7911,2.8449,2.8304,0.0,0.0,0.0,0.0,0.0,0.0,0.0,0.0,0.0,0.0,0.0,0.0,0.0,0.0,0.0,0.0,0.0,3.5909,3.6838,3.6838,3.5473,3.3993,3.3416,3.1905,0.0,3.0598,3.0598,3.0627,3.0656,3.0656,3.1121,3.2425,3.2687,3.3122,0.0,3.5735,0.0,0.0,4.4211,0.0,0.0,0.0,0.0,0.0,0.0,0.0,4.9717,4.9059,4.842,4.7811,4.7172,4.6749,4.672,4.6185,4.5895,4.5895,4.594,4.6046,4.6225,4.6046,0.0,0.0,0.0,0.0,0.0,4.4383,4.3838,4.3714,4.4094,4.3747,4.3021,4.325,4.329,4.325,0.0,0.0,0.0,0.0,0.0,0.0,0.0,0.0,0.0,0.0,2.4317,2.4234,2.4024,2.4003,2.3897,0.0,0.0,0.0,0.0,0.0,0.0,0.0,0.0,0.0,2.7106,2.6273,2.6333,2.7375,2.7016,2.7106,2.7585,2.7585,2.7575,2.7525,2.7705,2.7634,2.7516,2.8213,2.85,2.8553,2.9139,2.9292,0.0,0.0,0.0,0.0,2.8215,2.8564,0.0,0.0,0.0,0.0,0.0,0.0,0.0,0.0,3.0598,3.0772,3.1527,0.0,3.2196,3.2196,3.1816,3.1469,0.0,3.1007,3.0628,3.0717,3.0657,3.0743,3.1206,3.1293,3.1874,3.3674,3.437,3.484,3.5131,3.7941,0.0,4.5053,4.6998,4.8101,0.0,0.0,0.0,0.0,0.0,4.9717,4.9717,4.9059,4.842,4.7811,4.7172,4.6592,4.6127,4.5953,4.5895,4.5895,4.6269,4.6358,4.6225,4.6535,0.0,0.0,0.0,0.0,4.4324,4.3534,4.3288,4.3409,4.3489,4.3439,4.325,4.329,4.329,4.329,0.0,0.0,0.0,0.0,0.0,0.0,0.0,0.0,0.0,0.0,0.0,2.4234,2.4024,2.4003,0.0,0.0,0.0,0.0,0.0,0.0,0.0,0.0,0.0,2.6093,2.7136,2.6422,2.6393,2.7136,2.7106,2.7255,2.7585,2.7585,2.784,2.8298,2.8728,2.8774,2.8575,2.8865,2.894,2.8871,2.9375,0.0,0.0,0.0,0.0,0.0,2.8472,2.8729,0.0,2.9949,3.0426,3.0687,0.0,0.0,0.0,0.0,3.0628,3.0628,3.0806,3.0717,3.0685,3.0945,3.0801,3.0685,3.1036,3.0921,3.0687,3.0687,3.0921,3.1211,3.1467,3.1495,3.2164,3.4076,3.4457,0.0,0.0,0.0,4.2411,4.5982,4.7521,0.0,0.0,0.0,0.0,0.0,0.0,4.9717,4.9717,4.9349,4.874,4.7811,4.7433,4.6824,4.5895,4.6001,4.6046,4.6046,4.6403,4.658,4.6535,4.6712,4.6622,0.0,0.0,0.0,4.4571,4.3886,4.3479,4.329,4.329,4.329,4.329,4.329,4.329,4.329,0.0,0.0,0.0,0.0,0.0,0.0,0.0,0.0,0.0,0.0,0.0,0.0,0.0,0.0,0.0,0.0,0.0,0.0,0.0,0.0,0.0,0.0,2.6123,2.6063,2.6746,2.6776,2.6776,2.6776,2.7435,2.7764,2.7764,2.779,2.8192,2.8919,2.9698,2.9802,2.9348,2.922,2.9204,2.9303,2.9639,0.0,0.0,0.0,0.0,0.0,0.0,0.0,0.0,3.0238,3.063,3.0806,3.0836,0.0,0.0,0.0,0.0,0.0,3.1131,3.0983,3.0859,3.1295,3.1062,3.0859,3.1326,3.1126,3.0777,3.0717,3.1303,3.1772,3.1587,3.1789,3.2603,3.4399,0.0,0.0,3.9828,4.1221,4.2934,4.5953,4.7346,0.0,0.0,0.0,0.0,0.0,0.0,4.9717,4.9717,4.9582,4.9001,4.7811,4.7742,4.7131,4.594,4.6135,4.6225,4.6269,4.6535,4.6712,4.6887,4.6756,4.6798,0.0,0.0,0.0,4.4945,4.4407,4.3798,4.329,4.329,4.329,4.329,4.329,4.329,4.329,0.0,0.0,0.0,0.0,0.0,0.0,0.0,0.0,0.0,0.0,0.0,0.0,0.0,0.0,0.0,0.0,0.0,0.0,0.0,0.0,0.0,2.7405,2.6806,2.6752,2.7435,2.7435,2.7435,2.7435,2.8098,2.8457,2.8457,2.8557,2.8793,2.9144,2.9419,2.9725,3.0051,2.9994,3.0171,3.0443,3.0508,0.0,0.0,0.0,0.0,0.0,0.0,0.0,0.0,3.1036,3.1102,3.0836,3.0984,0.0,0.0,0.0,0.0,0.0,3.1632,3.1626,3.1295,3.098,3.1152,3.1326,3.119,3.0954,3.0866,3.1131,3.1604,3.1925,3.1772,3.3115,3.4597,3.5793,0.0,4.1279,0.0,0.0,4.5924,4.8043,0.0,0.0,0.0,0.0,0.0,0.0,0.0,4.9717,4.9717,4.9175,4.8537,4.7811,4.7444,4.694,4.618,4.618,4.6314,4.6535,4.6756,4.6887,4.6931,4.7106,4.6595,0.0,0.0,4.4725,4.3589,4.3499,4.3379,4.329,4.329,4.329,4.329,4.329,4.329,4.329,0.0,0.0,0.0,0.0,0.0,0.0,0.0,0.0,0.0,0.0,0.0,0.0,0.0,0.0,0.0,0.0,0.0,0.0,0.0,0.0,2.6657,2.7555,2.6956,2.6722,2.7046,2.7076,2.7255,2.7585,2.8248,2.8607,2.8607,2.9173,2.9377,2.9251,3.0114,3.0233,2.9756,2.9602,2.9841,3.0313,0.0,0.0,0.0,0.0,0.0,0.0,0.0,0.0,0.0,0.0,3.122,3.0955,3.0955,0.0,0.0,0.0,0.0,0.0,3.1516,3.1751,3.1801,3.1952,3.2032,3.1934,3.1419,3.1333,3.1363,3.1544,3.2105,3.2603,3.2769,3.4405,3.6529,3.9053,0.0,4.3515,4.5982,4.6069,4.6475,0.0,0.0,0.0,0.0,0.0,0.0,0.0,0.0,0.0,4.8682,4.8362,4.7927,4.7288,4.709,4.6761,4.6225,4.6358,4.6535,4.6756,4.6975,4.7106,4.7106,4.6834,4.6441,4.5843,0.0,4.4736,4.3828,4.3828,4.3618,4.329,4.329,4.329,4.329,4.329,4.329,4.329,0.0,0.0,0.0,0.0,0.0,0.0,0.0,0.0,0.0,0.0,0.0,0.0,0.0,0.0,0.0,0.0,0.0,0.0,0.0,2.6656,2.6555,2.7605,2.7285,2.6991,2.6836,2.6991,2.732,2.7824,2.8637,2.9082,2.9162,2.9607,2.9693,2.9521,3.0483,3.0325,2.9352,2.9302,2.9538,2.9944,0.0,0.0,0.0,0.0,0.0,0.0,0.0,0.0,0.0,0.0,0.0,0.0,0.0,0.0,0.0,3.1014,3.0955,3.0954,3.1573,3.1872,3.2162,3.2873,3.283,3.2605,3.2757,3.2764,3.2893,3.325,3.3699,3.4026,3.4009,3.5897,3.8468,4.1785,4.3863,4.5488,4.6621,4.6766,4.7143,0.0,0.0,0.0,0.0,0.0,0.0,0.0,0.0,0.0,4.7811,4.7637,4.7317,4.6807,4.6724,4.6541,4.6314,4.6388,4.6549,4.6694,4.694,4.698,4.683,4.6322,4.5992,4.5771,4.5304,4.4706,4.4077,4.4077,4.3738,4.329,4.329,4.329,4.329,4.329,4.329,4.329,0.0,0.0,0.0,0.0,0.0,0.0,0.0,0.0,0.0,0.0,0.0,0.0,0.0,0.0,0.0,0.0,0.0,0.0,0.0,2.6988,2.7188,2.776,2.8235,2.8158,2.7525,2.8128,2.8487,2.8517,2.9774,3.0511,3.0816,2.9759,2.9644,3.0294,2.9771,2.9413,2.9251,2.9867,3.0015,2.987,3.0388,0.0,0.0,0.0,0.0,0.0,0.0,0.0,0.0,0.0,0.0,0.0,0.0,0.0,3.0836,3.1043,3.0955,3.1042,3.2139,3.2198,3.2193,3.3057,3.2987,3.3352,3.5932,3.6084,3.6132,3.763,3.749,3.6641,3.5182,3.7587,4.0535,4.2586,4.6011,4.8624,4.932,0.0,0.0,0.0,0.0,0.0,0.0,0.0,0.0,0.0,0.0,0.0,4.7782,4.723,4.6836,4.6778,4.6424,4.6343,4.6535,4.6237,4.6027,4.607,4.6284,4.6052,4.5424,4.5394,4.5035,4.4466,4.4407,4.4018,4.3349,4.3349,4.3319,4.329,4.329,4.329,4.329,4.329,4.329,4.329,0.0,0.0,0.0,0.0,0.0,0.0,0.0,0.0,0.0,0.0,0.0,0.0,0.0,0.0,0.0,0.0,0.0,0.0,0.0,2.7674,2.7673,2.779,2.8325,2.8487,2.8244,2.8457,2.8996,2.9774,2.9894,3.0063,3.0253,2.9867,2.9903,3.0282,3.054,3.0089,2.9225,2.9851,2.9997,2.9843,3.0363,3.0939,0.0,0.0,0.0,0.0,0.0,0.0,0.0,0.0,3.1424,3.1278,3.1132,3.1043,3.0984,3.1073,3.1102,3.122,3.1751,3.208,3.2525,3.3437,3.3967,3.4646,3.6005,3.6773,3.7523,3.8662,3.9324,3.949,3.8759,4.01,4.2092,4.4414,4.6998,4.9233,5.0685,0.0,0.0,0.0,0.0,0.0,0.0,0.0,0.0,0.0,0.0,0.0,4.6621,4.6388,4.6243,4.6243,4.6207,4.6064,4.5727,4.5884,4.5595,4.4763,4.5359,4.5544,4.5274,4.4855,4.4556,4.4287,4.3858,4.3529,4.329,4.329,4.329,4.329,4.329,4.329,4.329,4.329,4.329,4.329,0.0,0.0,0.0,0.0,0.0,0.0,0.0,0.0,0.0,0.0,0.0,0.0,0.0,0.0,0.0,0.0,0.0,0.0,2.8259,2.8039,2.8011,2.8168,2.8651,2.8996,2.9205,2.9205,2.9535,3.0223,2.9619,2.9519,2.978,2.9538,2.9846,3.0536,3.0913,3.0611,2.9837,3.0167,3.0273,3.0226,3.0426,3.0939,0.0,0.0,0.0,0.0,0.0,0.0,0.0,0.0,3.1124,3.1038,3.0865,3.0865,3.0895,3.1102,3.1101,3.1009,3.1153,3.1511,3.2109,3.3112,3.4362,3.5707,3.7267,3.8773,4.0203,4.1492,4.1504,4.1299,4.1106,4.1796,0.0,0.0,4.7521,4.9494,5.0801,0.0,0.0,0.0,0.0,0.0,0.0,0.0,0.0,0.0,0.0,0.0,0.0,4.5895,4.5779,4.5576,4.5799,4.561,4.501,4.5234,4.4953,4.4072,4.4474,4.4676,4.4646,4.4197,4.3977,4.3947,4.3499,4.329,4.329,4.329,4.329,4.329,4.329,4.329,4.329,4.329,4.329,4.329,0.0,0.0,0.0,0.0,0.0,0.0,0.0,0.0,0.0,0.0,0.0,0.0,0.0,0.0,0.0,0.0,0.0,0.0,2.8411,2.8014,2.8168,2.8935,2.9395,2.9894,3.0492,3.0492,3.0193,2.9592,2.9064,2.9143,2.9746,2.8703,2.9256,3.1151,3.0641,3.0733,3.1182,3.1077,3.0995,3.0967,3.0633,3.1026,3.1799,0.0,0.0,0.0,0.0,0.0,0.0,0.0,3.0522,3.0494,3.0326,3.0327,3.0446,3.1099,3.0832,3.0355,3.0466,3.0522,3.0795,3.1961,3.3897,3.65,4.0263,4.2674,4.4709,4.6877,4.4418,4.1814,4.1774,4.2439,0.0,4.4705,4.7579,4.9717,0.0,0.0,0.0,0.0,0.0,0.0,0.0,0.0,0.0,0.0,0.0,0.0,0.0,4.5866,4.5576,4.4908,4.5099,4.5024,4.4604,4.4193,4.4072,4.4287,4.3618,4.329,4.329,4.329,4.329,4.329,4.329,4.329,4.329,4.329,4.329,4.329,4.329,4.329,4.329,4.329,4.329,4.329,0.0,0.0,0.0,0.0,0.0,0.0,0.0,0.0,0.0,0.0,0.0,0.0,0.0,0.0,0.0,0.0,0.0,0.0,2.8259,2.8495,2.8732,2.8863,2.9763,3.0313,3.0492,3.0492,2.9983,2.8906,2.8749,2.8775,2.8955,2.9303,2.9768,3.0407,3.1382,3.1317,3.0509,3.0972,3.1104,3.0995,3.0912,3.1278,3.1912,0.0,0.0,0.0,0.0,0.0,0.0,0.0,0.0,0.0,3.0889,3.0741,3.0557,3.1128,3.1246,3.1154,3.1212,3.1781,3.2823,3.4575,3.6539,3.8888,4.2169,4.3615,4.503,4.7866,4.655,4.4774,4.4334,4.4661,0.0,4.5518,4.7521,0.0,0.0,0.0,0.0,0.0,0.0,0.0,0.0,0.0,0.0,0.0,0.0,0.0,0.0,4.5198,4.5082,4.4908,4.4791,4.452,4.3985,4.415,4.3997,4.3589,4.3379,4.329,4.329,4.329,4.329,4.329,4.329,4.329,4.329,4.329,4.329,4.329,4.329,4.329,4.329,4.329,4.329,4.329,0.0,0.0,0.0,0.0,0.0,0.0,0.0,0.0,0.0,0.0,2.8374,2.899,0.0,0.0,0.0,0.0,0.0,0.0,2.875,2.8905,2.9182,2.9645,3.0213,3.0642,3.0883,3.0642,3.0133,2.9355,2.9116,2.8996,2.8996,2.9626,2.9913,3.0,3.125,3.1362,3.0601,3.0975,3.1311,3.1525,3.1141,3.1417,3.2051,0.0,0.0,0.0,0.0,0.0,0.0,0.0,0.0,0.0,3.0617,3.0586,3.0524,3.0589,3.0826,3.1092,3.1092,3.1931,3.3296,3.5317,3.7594,4.0246,4.3826,4.5344,4.6767,4.9486,4.8231,4.6634,4.6796,4.6308,0.0,4.6563,0.0,0.0,0.0,0.0,0.0,0.0,0.0,0.0,0.0,0.0,0.0,0.0,0.0,0.0,0.0,4.4531,4.4414,4.4124,4.4203,4.3956,4.3307,4.3686,4.3678,4.329,4.329,4.329,4.329,4.329,4.329,4.329,4.329,4.329,4.329,4.329,4.329,4.329,4.329,4.329,4.329,4.329,4.329,4.329,0.0,0.0,0.0,0.0,0.0,0.0,0.0,0.0,0.0,0.0,2.8672,2.9114,0.0,0.0,0.0,0.0,0.0,0.0,0.0,2.9343,2.972,3.0907,3.0721,3.0881,3.1481,3.0883,3.0582,3.0582,2.9924,2.9621,2.9621,2.979,2.987,2.9837,3.0697,3.1138,3.1155,3.1077,3.1552,3.2324,3.1375,3.1528,3.2191,3.2081,0.0,0.0,0.0,0.0,0.0,0.0,0.0,0.0,2.9834,3.0013,3.0313,2.9771,3.0013,3.0522,3.0582,3.1514,3.297,3.505,3.7967,4.1283,4.5196,4.7274,4.8938,5.0994,4.9245,4.7687,4.8799,4.7415,4.6446,4.7579,0.0,0.0,0.0,0.0,0.0,0.0,0.0,0.0,0.0,0.0,0.0,0.0,0.0,0.0,0.0,4.3979,4.3718,4.3108,4.3412,4.3307,4.2688,4.309,4.329,4.329,4.329,4.329,4.329,4.329,4.329,4.329,4.329,4.329,4.329,4.329,4.329,4.329,4.329,4.329,4.329,4.329,4.329,4.329,0.0,0.0,0.0,0.0,0.0,0.0,0.0,0.0,0.0,0.0,0.0,0.0,0.0,0.0,0.0,0.0,0.0,0.0,0.0,3.0173,3.0688,3.0603,3.1031,3.1361,3.1511,3.1361,3.1271,3.1271,3.0133,2.9621,2.9621,3.0295,3.0292,2.987,3.1182,3.1508,3.1049,3.1101,3.1579,3.2185,3.1566,3.1743,3.2358,3.2219,3.2081,0.0,0.0,0.0,0.0,0.0,0.0,0.0,3.0342,3.0073,2.9771,2.9651,3.0013,3.0612,3.1122,3.2884,3.5169,3.7839,4.1602,4.5005,4.6456,4.7184,4.7678,4.829,4.8407,4.8341,4.8108,4.7683,4.7462,0.0,0.0,0.0,0.0,0.0,0.0,0.0,0.0,0.0,0.0,0.0,0.0,0.0,0.0,0.0,4.4037,4.3979,4.3921,4.3776,4.3206,4.2836,4.2688,4.309,4.329,0.0,4.329,4.329,4.329,4.329,4.329,4.329,4.329,4.329,4.329,4.329,4.329,4.329,4.329,4.329,4.329,4.329,4.329,4.329,0.0,0.0,0.0,0.0,0.0,0.0,0.0,0.0,0.0,0.0,0.0,0.0,0.0,0.0,0.0,0.0,0.0,0.0,0.0,0.0,3.1201,3.1114,3.1531,3.1712,3.1655,3.1626,3.1626,3.1626,3.0879,3.0522,3.0522,3.0936,3.0784,3.0183,3.1289,3.1492,3.1025,3.1411,3.1857,3.2272,3.1986,3.2074,3.2382,3.233,3.2219,3.2109,3.2025,0.0,0.0,0.0,0.0,0.0,0.0,0.0,2.9562,2.9232,2.9564,3.0283,3.1241,3.3092,3.564,3.9528,4.2882,4.5382,4.6148,4.6359,4.6505,4.6798,4.7607,4.8159,4.784,4.7521,4.7317,0.0,0.0,0.0,0.0,0.0,0.0,0.0,0.0,0.0,0.0,0.0,0.0,0.0,0.0,4.4995,4.4037,4.3979,4.3979,4.3979,4.3734,4.3484,4.3189,4.3567,4.3618,4.329,4.329,4.329,4.329,4.3618,4.3589,4.3319,4.3618,4.3589,4.329,4.329,4.329,4.329,4.329,4.329,4.329,4.329,4.329,4.329,0.0,0.0,0.0,0.0,0.0,0.0,0.0,0.0,0.0,0.0,0.0,0.0,0.0,0.0,0.0,0.0,0.0,0.0,0.0,0.0,0.0,3.1855,3.194,3.194,3.1856,3.1856,3.1856,3.1856,3.1683,3.1688,3.1869,3.16,3.1271,3.0881,3.1301,3.1383,3.118,3.1754,3.2135,3.2385,3.2382,3.2382,3.2382,3.2382,3.233,3.2191,3.2191,3.2053,3.1856,3.1856,0.0,0.0,0.0,0.0,2.9442,2.8637,2.8966,2.9834,3.1002,3.2973,3.5848,4.0465,4.2862,4.4344,4.5145,4.5459,4.5697,4.605,4.6803,4.7462,4.7462,4.7027,0.0,0.0,0.0,0.0,0.0,0.0,0.0,0.0,0.0,0.0,0.0,0.0,0.0,0.0,0.0,4.4763,4.4037,4.3979,4.395,4.3877,4.4158,4.4044,4.3584,4.3964,4.3828,4.329,4.329,4.329,4.3319,4.3858,4.3798,4.3319,4.3858,4.3798,4.329,4.329,4.329,4.329,4.329,4.329,4.329,4.329,4.329,4.329,0.0,0.0,0.0,0.0,0.0,0.0,0.0,0.0,0.0,0.0,2.9516,2.9288,0.0,0.0,0.0,0.0,0.0,0.0,0.0,0.0,0.0,3.2135,3.2053,3.1996,3.1968,3.1968,3.1968,3.1968,3.194,3.2429,3.3367,3.2077,3.175,3.2198,3.172,3.1566,3.1736,3.191,3.2109,3.2247,3.2327,3.2382,3.2382,3.2382,3.233,3.2191,3.2191,3.2079,3.1968,3.1968,3.1823,0.0,0.0,0.0,2.9352,2.8094,2.8633,2.9771,3.0462,3.3723,3.763,4.0486,4.2326,4.3578,4.4109,4.4938,4.5622,0.0,4.5946,4.6127,4.6127,0.0,0.0,0.0,0.0,0.0,0.0,0.0,0.0,0.0,0.0,0.0,0.0,0.0,0.0,0.0,4.514,4.5227,4.4066,4.3979,4.3803,4.342,4.3125,4.2976,4.3089,4.3329,4.3379,4.329,4.329,4.329,4.329,4.3379,4.3379,4.329,4.3379,4.3379,4.329,4.329,4.329,4.329,4.329,4.329,4.329,4.329,4.329,4.329,0.0,0.0,0.0,0.0,0.0,0.0,0.0,0.0,0.0,0.0,0.0,3.0203,0.0,0.0,0.0,0.0,0.0,0.0,0.0,0.0,0.0,3.2191,3.2219,3.2191,3.2107,3.2107,3.2107,3.2107,3.2418,3.2999,3.3819,3.3457,3.3426,3.3604,3.3305,3.2856,3.2312,3.2485,3.2416,3.2219,3.2358,3.2382,3.2382,3.2382,3.2355,3.233,3.233,3.2219,3.2107,3.2107,3.1695,3.1074,3.0189,0.0,0.0,0.0,2.8355,2.8873,3.0612,3.3633,3.6862,3.9032,4.092,4.2324,4.2773,4.3808,4.463,4.4376,4.466,4.52,0.0,0.0,0.0,0.0,0.0,0.0,0.0,0.0,0.0,0.0,0.0,0.0,0.0,0.0,0.0,0.0,4.5227,4.5126,4.4705,4.4326,4.4134,4.4053,4.401,4.3671,4.301,4.3568,4.3509,4.2791,4.2402,4.2432,4.2791,4.2791,4.3,4.329,4.329,4.329,4.329,4.329,4.329,4.329,4.329,4.329,4.329,4.329,4.329,4.329,0.0,0.0,0.0,0.0,0.0,0.0,0.0,0.0,0.0,0.0,0.0,0.0,0.0,0.0,0.0,0.0,0.0,0.0,0.0,0.0,0.0,3.2247,3.2358,3.2327,3.2247,3.2247,3.2247,3.2247,3.2806,3.3543,3.4425,3.4817,3.5082,3.5222,3.4743,3.3937,3.3034,3.303,3.281,3.2489,3.2262,3.2228,3.2382,3.2198,3.2228,3.2382,3.2382,3.2358,3.2247,3.2247,3.1771,3.1031,3.0236,2.9501,0.0,0.0,0.0,2.8603,3.0883,3.3185,3.5429,3.7225,3.902,4.0569,4.1216,0.0,4.3216,0.0,4.3663,4.4368,0.0,0.0,0.0,0.0,0.0,0.0,0.0,0.0,0.0,0.0,0.0,0.0,0.0,0.0,0.0,0.0,4.5025,4.472,4.4632,4.428,4.4057,4.4133,4.4341,4.3972,4.2882,4.3339,4.315,4.2381,4.1722,4.1662,4.2141,4.1991,4.2312,4.309,4.323,4.329,4.329,4.329,4.329,4.329,4.329,4.3379,4.3529,4.3349,4.3409,4.3529,0.0,0.0,0.0,0.0,0.0,0.0,0.0,0.0,0.0,0.0,0.0,0.0,3.1929,3.1997,3.1951,3.1794,3.2449,0.0,0.0,0.0,0.0,3.2382,3.2413,0.0,3.2382,3.2382,3.2382,3.2382,3.3031,3.4208,3.5788,3.5819,3.6353,3.7165,3.531,3.4269,3.3879,3.3271,3.3111,3.3244,3.1951,3.1828,3.2321,3.1674,3.1828,3.2382,3.2382,3.2413,3.2382,0.0,0.0,0.0,0.0,2.9879,2.9478,0.0,0.0,0.0,3.1122,3.2527,3.3933,3.531,3.6656,3.7973,3.9224,0.0,4.1516,4.2752,4.3196,0.0,0.0,0.0,0.0,0.0,0.0,0.0,0.0,0.0,0.0,0.0,0.0,0.0,0.0,0.0,0.0,0.0,4.4381,4.4004,4.3179,4.329,4.3206,4.2806,4.2979,4.2892,4.2432,4.1833,4.1841,4.2381,4.1722,4.1422,4.1452,4.0786,4.1205,4.25,4.306,4.329,4.329,4.329,4.329,4.329,4.329,4.3678,4.4197,4.3529,4.3678,4.4167,0.0,0.0,0.0,0.0,0.0,0.0,0.0,0.0,0.0,0.0,0.0,0.0,0.0,3.2358,3.256,3.2507,3.2617,0.0,0.0,0.0,0.0,3.2382,3.2382,3.2382,3.2382,3.2382,3.2382,3.2382,3.3059,3.3652,3.4181,3.5366,3.5812,3.5679,3.5764,3.5257,3.433,3.4304,3.409,3.3782,3.3495,3.3244,3.3059,3.3161,3.3071,3.2951,3.3233,0.0,0.0,0.0,0.0,0.0,0.0,3.046,2.9641,2.8258,2.8703,2.9711,3.0273,3.1597,3.3095,3.3993,3.522,3.6417,3.7315,3.8471,3.9563,4.0337,4.0897,0.0,0.0,0.0,0.0,0.0,0.0,0.0,0.0,0.0,0.0,0.0,0.0,0.0,0.0,0.0,0.0,0.0,0.0,4.3591,4.3441,4.3113,4.2924,4.289,4.309,4.313,4.3,4.1923,4.1752,4.2381,4.1722,4.1632,4.2051,4.1811,4.2132,4.297,4.2791,4.2701,4.2701,4.2701,4.2701,4.2761,4.314,4.321,4.312,4.3748,4.3569,4.321,0.0,0.0,0.0,0.0,0.0,0.0,0.0,0.0,3.3246,3.229,0.0,0.0,0.0,0.0,3.302,3.2962,3.28,3.2605,3.2496,3.241,3.2382,3.2382,3.2382,3.2382,3.2382,3.2382,3.2382,3.2382,3.3306,3.3804,3.3873,3.5338,3.582,3.551,3.6077,3.5834,3.5053,3.5454,3.5216,3.4484,3.4232,3.3983,3.3798,3.3897,3.3902,3.3904,3.4212,0.0,0.0,0.0,0.0,0.0,0.0,0.0,2.9811,2.893,2.929,3.0003,3.0114,3.1144,3.2258,3.2736,3.3664,3.4741,3.5609,3.6656,3.7699,3.8662,0.0,0.0,0.0,0.0,0.0,0.0,0.0,0.0,0.0,0.0,0.0,0.0,0.0,0.0,0.0,0.0,0.0,0.0,0.0,0.0,4.3366,4.3005,4.289,4.3061,4.3041,4.312,4.329,4.2043,4.1752,4.2381,4.1722,4.1662,4.2081,4.2081,4.2252,4.2641,4.1983,4.1991,4.2381,4.2171,4.2081,4.2111,4.2521,4.2551,4.253,4.3599,4.3569,4.321,0.0,0.0,0.0,0.0,0.0,0.0,0.0,0.0,3.3309,3.3335,0.0,0.0,0.0,0.0,0.0,3.3128,3.3025,3.2831,3.2636,3.2499,3.2444,3.2444,0.0,0.0,3.2444,3.2444,3.2444,3.2444,3.3827,3.4755,3.5217,3.5859,3.6437,3.6945,3.6277,3.6035,3.6066,3.6702,3.6438,3.543,3.4044,3.3921,3.4505,3.3798,3.4205,3.5217,3.5248,3.482,0.0,3.3476,0.0,0.0,0.0,3.0701,3.0015,3.0015,3.0394,3.08,0.0,0.0,0.0,3.1511,3.2018,0.0,3.4144,0.0,3.5998,3.7913,0.0,0.0,0.0,0.0,0.0,0.0,0.0,0.0,0.0,0.0,0.0,0.0,0.0,0.0,0.0,0.0,0.0,0.0,4.2981,4.29,4.2729,4.286,4.3061,4.329,4.2731,4.2701,4.329,4.2073,4.1782,4.241,4.1782,4.1482,4.1482,4.1482,4.1482,4.1414,4.0726,4.1145,4.2321,4.1662,4.1354,4.1354,4.1422,4.1811,4.244,4.306,4.3648,4.4197,0.0,0.0,0.0,0.0,0.0,3.4349,3.4546,3.4,3.3642,0.0,0.0,0.0,3.4004,3.3954,3.3791,3.3543,3.3519,3.3377,3.3177,3.3642,3.3919,3.3919,3.3919,3.3919,3.3919,3.412,3.412,3.3919,3.4492,3.4773,3.4724,3.5248,3.5553,3.5705,3.6432,3.6523,3.6163,3.6346,3.6531,3.6688,3.5953,3.5984,3.6442,3.6101,3.5885,0.0,0.0,3.5905,3.479,0.0,3.4425,3.3531,0.0,3.1539,3.0788,3.0379,3.0613,3.0967,3.1046,0.0,0.0,0.0,0.0,0.0,0.0,0.0,0.0,0.0,0.0,0.0,0.0,0.0,0.0,0.0,0.0,0.0,0.0,0.0,0.0,0.0,0.0,0.0,0.0,0.0,0.0,0.0,4.3061,4.2981,4.29,4.2981,4.3061,4.329,4.311,4.315,4.329,4.2931,4.288,4.306,4.288,4.2751,4.2751,4.2751,4.2751,4.2692,4.1594,4.1324,4.1632,4.0935,4.0666,4.0726,4.1205,4.1205,4.1085,4.2222,4.2132,4.1743,0.0,0.0,0.0,0.0,0.0,3.4856,3.5152,3.4762,3.4563,0.0,0.0,0.0,3.4648,3.4676,3.4569,3.4146,3.4231,3.4175,3.3889,3.4374,3.4622,3.4505,3.4505,3.4505,3.4505,3.4649,3.468,3.4505,3.4959,3.5083,3.4936,3.5462,3.5738,3.5769,3.6501,3.6624,3.6352,3.6352,3.6535,3.6904,3.6599,3.6782,3.7172,3.7105,3.7096,0.0,0.0,0.0,3.6418,3.5868,3.5031,0.0,0.0,0.0,3.2425,0.0,3.1787,3.1866,3.1674,3.1805,3.2057,3.233,0.0,0.0,3.3063,3.3457,0.0,0.0,0.0,0.0,0.0,0.0,0.0,0.0,0.0,0.0,0.0,0.0,0.0,0.0,0.0,0.0,0.0,4.2761,4.291,4.291,4.3061,4.313,4.313,4.313,4.317,4.329,4.329,4.329,4.329,4.329,4.329,4.329,4.329,4.329,4.329,4.329,4.314,4.288,4.1833,4.1235,4.0905,4.0277,3.9978,4.0038,4.0397,4.0337,4.0157,4.1512,4.1512,4.1093,0.0,0.0,3.5015,3.5015,3.5168,3.5402,3.5709,3.5637,3.57,0.0,3.5847,3.5464,3.5386,3.5549,3.5493,3.5012,3.5151,3.5091,3.4838,3.5041,3.5041,3.4779,3.4779,3.4779,3.4779,3.4809,3.4809,3.4779,3.5427,3.5705,3.5707,3.6261,3.6538,3.6599,3.6538,3.6507,3.6507,3.6507,3.6538,3.6568,3.666,3.7025,3.7597,3.7597,3.8098,3.8822,3.8848,3.8692,3.8241,3.6499,3.5243,0.0,0.0,0.0,0.0,0.0,3.3374,3.3106,3.2642,3.2407,3.2475,0.0,0.0,0.0,3.3665,3.3819,3.3879,0.0,0.0,0.0,0.0,0.0,0.0,0.0,0.0,0.0,0.0,0.0,0.0,0.0,0.0,0.0,4.1265,4.1901,4.2291,4.2291,4.2791,4.305,4.2961,4.311,4.32,4.32,4.326,4.329,4.329,4.329,4.329,4.329,4.329,4.329,4.329,4.329,4.297,4.2351,4.1692,4.0995,4.0337,3.9679,3.9373,3.9373,3.9373,3.9373,3.9559,4.0838,4.1295,4.1498,0.0,3.5379,3.5777,3.5777,3.6098,3.6488,3.6744,3.6437,3.6131,3.6206,3.6202,3.6408,3.6977,3.6445,3.6232,3.6679,3.6268,3.6205,3.662,3.68,3.6801,3.6503,3.6503,3.6503,3.6503,3.6712,3.6742,3.6503,3.6867,3.7061,3.7092,3.6692,3.6784,3.7277,3.6722,3.6507,3.6507,3.6507,3.6721,3.7084,3.7665,3.8747,3.9985,3.9949,3.9757,3.957,3.9937,3.9133,3.7824,3.7432,3.6539,3.558,0.0,0.0,0.0,3.4166,0.0,0.0,0.0,0.0,0.0,0.0,0.0,0.0,3.3502,3.3752,3.3968,0.0,0.0,0.0,0.0,0.0,0.0,0.0,0.0,0.0,0.0,0.0,0.0,0.0,0.0,0.0,4.0546,4.1175,4.1602,4.1602,4.1683,4.1534,4.0995,4.1983,4.259,4.259,4.306,4.329,4.329,4.329,4.329,4.329,4.329,4.329,4.329,4.329,4.297,4.2351,4.1692,4.0995,4.0337,3.9679,3.9373,3.9373,3.9373,3.9373,3.9511,4.033,4.0668,4.0957,3.5967,3.6307,3.6539,3.6539,3.6906,3.7321,3.7614,3.7324,3.7409,3.8204,3.8497,3.8558,3.8276,3.8024,3.7838,3.7841,3.7931,3.7894,3.7621,3.8391,3.8423,3.7529,3.781,3.7748,3.725,3.7375,3.7219,3.6754,3.7219,3.7468,3.7492,3.7492,3.7492,3.7492,3.7153,3.6999,3.6999,3.6999,3.7457,3.8183,3.7813,3.8527,3.9696,3.9661,3.9625,3.9577,3.9835,3.9086,3.8052,3.8121,3.7801,0.0,0.0,3.6012,3.5707,0.0,3.484,3.4676,0.0,0.0,0.0,3.5517,0.0,0.0,0.0,3.4589,3.4386,3.4356,3.4208,0.0,0.0,0.0,0.0,0.0,0.0,0.0,0.0,0.0,0.0,0.0,0.0,0.0,3.8871,3.9499,4.0157,4.0846,4.0876,4.0876,4.0876,4.1542,4.2051,4.2381,4.2671,4.3,4.329,4.329,4.329,4.329,4.329,4.329,4.329,4.329,4.315,4.2821,4.2201,4.1542,4.0846,4.0187,3.9709,3.9373,3.9373,3.9373,3.9481,4.02,4.0512,4.0742,3.7028,3.7235,3.7301,3.7301,3.7715,3.8097,3.8375,3.8264,3.863,3.9972,4.0463,4.0335,3.9435,3.9344,3.9405,3.9498,3.9469,3.9281,3.8968,3.956,3.9398,3.8153,3.8684,3.8556,3.7619,3.7711,3.7558,3.7095,3.7558,3.7865,3.7989,3.8356,3.8292,3.7861,3.7615,3.7584,3.7677,3.7522,3.8131,3.91,3.7997,3.8193,3.9129,3.9214,3.9439,3.9655,3.9619,3.9206,3.8672,3.8928,3.8973,3.8715,3.7344,3.7445,0.0,0.0,0.0,0.0,0.0,0.0,0.0,0.0,0.0,3.4788,0.0,0.0,0.0,3.5291,0.0,0.0,0.0,0.0,0.0,0.0,0.0,0.0,0.0,0.0,0.0,0.0,0.0,0.0,0.0,3.7823,3.8601,3.9589,3.9888,4.0187,4.0606,4.0995,4.1482,4.2021,4.2141,4.2432,4.2901,4.305,4.315,4.315,4.323,4.329,4.329,4.329,4.323,4.312,4.262,4.1961,4.1145,4.0606,4.0008,3.9373,3.9373,3.9481,3.9696,4.0409,4.0786,4.1122,3.7285,3.7632,3.8096,3.8096,3.8633,3.9156,3.9183,3.9169,3.9194,3.9256,3.964,4.0072,4.0445,3.9482,3.9977,4.2937,4.008,3.9313,4.2067,3.9977,3.8554,3.8429,3.878,3.8684,3.7966,3.8527,3.8935,3.9188,3.8935,3.915,3.9773,3.8886,3.8785,3.9213,3.8046,3.7831,3.8321,3.7577,3.7969,3.9157,3.8895,3.9586,0.0,4.1217,4.1023,4.0534,4.0351,3.9967,3.9666,0.0,4.0166,3.9728,0.0,3.8503,3.7416,3.7783,0.0,0.0,0.0,0.0,0.0,0.0,3.7093,0.0,0.0,0.0,3.4368,3.4427,0.0,0.0,0.0,0.0,0.0,0.0,0.0,0.0,0.0,0.0,0.0,0.0,0.0,0.0,0.0,3.7165,3.7345,3.6956,3.7973,3.8392,3.7883,3.9529,4.0546,4.0606,4.1175,4.1572,4.1594,4.2231,4.25,4.253,4.306,4.329,4.329,4.329,4.303,4.25,4.244,4.1692,4.0516,4.0427,4.0008,3.9373,3.9373,3.9773,4.0443,4.1127,4.1787,4.2653,3.8517,3.8678,3.8825,3.8825,3.9116,3.9228,3.904,4.0144,4.0813,4.0325,4.1273,4.2273,4.3051,4.2494,4.2786,4.4519,0.0,4.2461,0.0,0.0,4.0478,3.9808,4.0089,3.99,3.9214,3.9268,3.9369,3.9565,3.9626,3.9807,4.0088,4.0049,3.9818,3.9459,3.8508,3.8626,3.9443,3.8672,3.9272,4.072,4.035,4.0709,0.0,4.0794,4.0287,3.9997,4.0284,4.0124,3.9847,0.0,4.131,0.0,0.0,0.0,0.0,0.0,0.0,0.0,0.0,0.0,0.0,0.0,0.0,0.0,3.6282,0.0,3.5277,0.0,0.0,0.0,0.0,0.0,0.0,0.0,3.4004,0.0,0.0,0.0,0.0,0.0,0.0,0.0,0.0,0.0,0.0,0.0,3.6843,3.7494,3.7943,3.8781,3.9589,4.0367,4.0666,4.0995,4.1422,4.1692,4.1841,4.1841,4.2462,4.2995,4.3427,4.3822,4.3852,4.3655,4.411,4.3043,4.1003,4.1425,4.0746,3.9445,3.9879,4.02,4.0612,4.1734,4.2588,4.3555,3.9447,3.9422,3.9315,3.9315,3.9202,3.9171,3.9145,4.0686,4.182,4.1721,4.2733,4.4042,4.541,4.5317,4.5703,4.6986,4.6569,4.5577,0.0,0.0,4.2264,4.0811,0.0,0.0,0.0,4.0144,4.0221,4.0387,4.0512,4.0634,4.0731,4.107,4.0772,3.9905,3.9444,3.9616,4.0266,3.989,4.0522,4.1687,4.1377,4.1401,4.1479,4.0613,4.001,3.9798,4.0636,4.0664,4.042,4.1415,4.2159,0.0,4.1503,0.0,0.0,0.0,0.0,0.0,3.9594,0.0,0.0,0.0,0.0,0.0,0.0,0.0,0.0,0.0,0.0,0.0,0.0,0.0,0.0,3.4595,0.0,3.4849,0.0,0.0,0.0,0.0,0.0,0.0,0.0,0.0,0.0,0.0,0.0,3.6753,3.7793,3.8212,3.8841,3.9828,4.0038,4.0367,4.0846,4.1025,4.1115,4.1115,4.1811,4.2622,4.3525,4.4018,4.4439,4.4849,4.5442,4.4184,4.1738,4.2297,4.1393,3.9737,4.027,4.0845,4.1536,4.2736,4.3524,4.433,3.9703,3.9468,3.9315,3.9315,3.904,3.9112,3.9951,4.0635,4.1564,4.3012,4.3259,4.432,4.6956,0.0,0.0,0.0,0.0,4.7643,4.8182,0.0,4.2938,0.0,0.0,4.1907,0.0,0.0,4.1949,4.2301,4.1917,4.1949,4.2333,4.1818,4.139,4.1024,4.1057,4.082,4.0536,4.1005,4.124,4.1265,4.1754,4.1449,4.0818,0.0,4.1122,4.0546,4.1871,0.0,0.0,4.2341,4.2582,0.0,0.0,0.0,0.0,0.0,0.0,0.0,0.0,0.0,0.0,4.0655,0.0,0.0,0.0,0.0,3.6692,0.0,0.0,0.0,0.0,0.0,3.6756,3.5396,3.4967,0.0,0.0,0.0,0.0,0.0,0.0,0.0,0.0,0.0,0.0,0.0,0.0,0.0,3.654,3.7734,3.8422,3.8452,3.911,3.9469,3.9433,4.0127,4.0427,4.0427,4.1085,4.2168,4.3494,4.3525,4.4303,4.566,4.5697,4.4444,4.2448,4.2484,4.1714,4.0478,4.0478,4.1801,4.3686,4.4431,4.472,4.5088,3.9765,3.952,3.9315,3.9315,3.9094,3.9303,4.032,4.1458,4.2958,4.5215,4.5889,0.0,0.0,5.1464,5.2627,0.0,0.0,5.3193,5.2123,4.9643,0.0,0.0,0.0,4.4022,0.0,0.0,0.0,4.3583,4.2812,4.2491,4.2522,4.227,4.1753,4.1088,4.1088,4.1031,4.1005,4.1673,0.0,0.0,0.0,4.2002,4.1331,0.0,0.0,4.0516,4.1422,4.1746,0.0,4.3381,4.3976,4.4247,4.4538,4.4629,4.4484,4.3988,4.3226,0.0,0.0,0.0,4.1008,4.1041,0.0,0.0,0.0,0.0,0.0,0.0,0.0,0.0,0.0,0.0,3.7312,3.6333,3.617,3.572,0.0,0.0,0.0,0.0,0.0,0.0,0.0,0.0,0.0,0.0,3.4546,0.0,0.0,3.6793,3.7597,3.8362,3.905,3.9373,3.9373,3.9649,3.9738,3.9768,4.0879,4.2176,4.3678,4.4541,4.5496,4.648,4.6997,4.5968,4.3961,4.4008,4.3178,4.192,4.242,4.3362,4.4464,4.4723,4.5701,4.7173,4.0523,4.022,3.9787,3.968,3.9803,4.0268,4.1406,0.0,0.0,0.0,4.945,0.0,5.4607,0.0,5.6225,0.0,5.8035,5.6758,5.3929,5.2821,0.0,4.7311,4.7257,0.0,0.0,0.0,0.0,0.0,4.3578,4.3256,4.3163,4.2684,4.2109,4.1488,4.1857,4.1672,4.1217,4.2308,4.2626,0.0,0.0,4.2393,0.0,0.0,4.1092,4.1288,0.0,4.197,4.2431,4.373,4.4427,4.4917,4.5534,4.5808,4.5874,4.5387,4.4891,4.462,4.5069,4.401,0.0,4.2452,4.1526,0.0,3.9033,0.0,0.0,0.0,0.0,0.0,0.0,0.0,3.7604,3.6617,3.6528,3.6125,0.0,3.4448,0.0,0.0,0.0,0.0,0.0,0.0,0.0,3.3823,3.4096,0.0,0.0,0.0,3.7138,3.7777,3.8846,3.9373,3.9373,3.9373,3.9373,3.9409,4.0522,4.2011,4.3749,4.4875,4.6056,4.7237,4.7506,4.6519,4.4729,4.4526,4.3879,4.3035,4.3783,4.4691,4.5604,4.5832,4.7309,4.9293,4.1998,4.1493,4.0842,4.0536,4.1118,0.0,0.0,0.0,4.9781,0.0,5.3711,5.5709,5.7758,5.8368,5.898,5.972,6.0223,5.8624,5.4268,5.524,0.0,0.0,5.0107,4.9687,4.6942,0.0,0.0,0.0,0.0,4.4291,4.4227,4.3131,4.2461,4.2237,4.321,4.2711,4.1242,4.2942,4.2971,4.2008,4.2887,4.2638,4.1746,4.1528,4.1956,4.2642,4.2428,4.2671,4.3268,4.341,4.3925,4.4668,4.5483,4.5769,4.5805,4.5805,4.5805,4.5985,4.6689,4.5825,4.4724,4.4766,0.0,0.0,0.0,0.0,4.1276,0.0,0.0,0.0,0.0,0.0,0.0,3.634,3.6075,3.581,0.0,0.0,0.0,0.0,0.0,0.0,0.0,0.0,3.3792,3.4861,3.4328,3.407,0.0,0.0,3.6917,3.6712,3.8432,3.9379,3.9373,3.9373,3.9373,3.9409,4.0226,4.1672,4.3717,4.4556,4.6029,4.7968,4.7206,4.6125,4.4854,4.4107,4.3815,4.388,4.4659,4.5799,4.7139,4.7835,4.9458,5.1315,4.2199,4.259,4.2854,0.0,4.2649,4.3132,0.0,0.0,0.0,0.0,5.5883,5.7922,6.0368,6.1405,6.255,6.3937,6.4774,0.0,0.0,0.0,0.0,5.4037,5.3688,5.2265,4.9513,4.9597,0.0,4.701,0.0,4.5578,4.5137,4.3672,4.3232,4.3743,4.396,4.3203,4.1928,4.3416,4.3303,4.2169,4.2243,4.241,0.0,0.0,4.207,4.2522,4.134,4.1324,4.2038,4.3142,4.4023,4.4858,4.6112,4.6931,4.7437,4.7437,4.7437,4.7471,4.7638,4.7045,4.6188,4.5651,4.4423,4.3102,0.0,0.0,0.0,0.0,0.0,0.0,0.0,0.0,0.0,3.7798,3.7201,3.6771,0.0,0.0,0.0,3.5662,0.0,0.0,0.0,3.3874,3.375,3.3729,3.3576,3.3576,0.0,0.0,0.0,3.6682,3.8121,3.9073,3.9409,3.9373,3.9373,3.9409,4.1214,4.2624,4.3783,4.5538,4.6945,4.7968,4.7206,4.6679,4.6288,4.5563,4.5233,4.5365,4.6683,4.8068,4.9392,4.9591,5.0353,5.1382,4.3639,4.4678,0.0,4.5354,0.0,0.0,4.7684,4.9631,0.0,5.5193,5.7507,0.0,6.0775,6.2238,6.3517,6.4399,6.5008,0.0,6.226,0.0,0.0,5.6622,5.6149,5.4591,5.1667,5.1191,0.0,4.7504,0.0,4.6466,4.6212,4.4744,4.4299,4.4754,4.4677,4.3979,4.2827,4.3184,4.2946,4.231,4.222,0.0,0.0,4.222,4.2425,4.2811,4.1062,4.1039,4.2021,4.32,4.4264,4.541,4.684,4.7638,4.8001,4.8001,4.8001,4.8001,4.8001,4.7703,4.7206,4.6477,4.5417,4.439,4.3628,4.323,4.3102,0.0,0.0,0.0,0.0,0.0,0.0,0.0,0.0,0.0,0.0,0.0,0.0,0.0,3.5571,0.0,0.0,3.4201,3.405,3.3745,3.3745,0.0,0.0,0.0,0.0,3.6781,3.8512,3.9427,3.9373,3.9978,4.0127,3.9858,4.2008,4.3392,4.4193,4.6061,4.7139,4.7471,4.6742,4.6245,4.5914,4.5483,4.5483,4.598,4.7769,4.9591,5.1115,5.0783,5.0916,5.1415,4.5602,4.7005,0.0,0.0,0.0,0.0,0.0,5.2439,0.0,5.6702,0.0,6.0595,6.0595,6.2232,6.3279,6.3279,0.0,6.2274,5.9267,6.1221,6.0963,5.7632,5.7732,5.6474,5.3372,5.2089,0.0,0.0,0.0,4.7168,4.7261,4.5957,4.547,4.557,4.5462,4.479,0.0,4.2685,4.2255,4.2151,4.241,4.2522,4.2582,4.2483,4.2933,4.3389,4.1522,4.1523,4.2504,4.3176,4.4343,4.5827,4.7243,4.7836,4.8001,4.8001,4.8001,4.8001,4.8001,4.8001,4.7835,4.7206,4.6411,4.5649,4.5086,4.4423,4.3896,4.3896,4.33,4.2539,0.0,0.0,0.0,0.0,0.0,0.0,0.0,0.0,0.0,0.0,0.0,0.0,0.0,0.0,3.4505,3.448,3.443,0.0,0.0,0.0,0.0,3.6879,3.9018,0.0,3.9679,0.0,4.1242,4.0822,4.2895,4.4193,4.49,4.6258,4.6908,4.6841,4.6013,4.5351,4.4854,4.4953,4.5582,4.6709,4.863,5.0618,5.2343,5.168,5.1448,5.1582,4.6549,0.0,0.0,0.0,0.0,5.2889,5.5601,5.7412,5.9314,6.1615,6.272,6.3318,6.3318,6.3993,6.4401,6.4401,6.5282,0.0,0.0,0.0,0.0,5.8643,5.8428,5.6967,5.3756,5.2741,5.1375,0.0,0.0,4.8125,4.7834,4.6379,4.6156,4.6978,4.6287,4.5132,4.364,4.2685,0.0,4.1418,4.1745,4.216,4.259,4.2511,4.3267,4.4291,4.3439,4.2865,4.2488,4.2004,4.3234,4.5113,4.5861,4.6979,4.8001,4.8001,4.8001,4.8001,4.8001,4.8001,4.7968,4.7835,4.6808,4.5914,4.6411,4.5947,4.5417,4.5417,4.4821,4.4092,4.3333,0.0,0.0,0.0,0.0,0.0,0.0,0.0,0.0,0.0,0.0,0.0,0.0,0.0,0.0,0.0,0.0,0.0,0.0,0.0,0.0,0.0,3.8215,0.0,0.0,0.0,4.2027,4.2971,4.4646,4.5495,4.5624,4.6487,4.6908,4.6808,4.5483,4.5152,4.5649,4.6245,4.8001,5.0387,5.075,5.1547,5.2409,5.2241,5.2281,5.2387,4.8511,0.0,0.0,0.0,0.0,0.0,0.0,6.1639,6.292,6.2812,6.3038,6.3025,6.2403,6.3758,6.4734,6.4734,6.5196,6.5227,6.4449,6.4335,6.3099,6.0361,5.9165,0.0,5.4778,5.3123,5.1532,4.9893,0.0,0.0,4.8483,4.759,4.74,4.777,4.6572,4.5562,0.0,0.0,0.0,4.2493,4.2274,4.2685,4.3527,4.3975,4.5005,4.6135,4.557,4.5635,4.5726,4.4209,4.4941,4.652,4.6815,4.7408,4.8001,4.8001,4.8001,4.8001,4.8001,4.8001,4.8001,4.8001,4.7173,4.6444,4.6808,4.6311,4.5781,4.5781,4.5516,4.5052,4.4324,4.2965,0.0,0.0,0.0,0.0,0.0,0.0,0.0,0.0,0.0,0.0,0.0,0.0,0.0,0.0,0.0,0.0,0.0,0.0,0.0,0.0,0.0,0.0,0.0,0.0,0.0,4.3586,4.544,4.6115,4.5793,4.6552,4.6477,4.5715,4.5384,4.545,4.5914,4.7404,4.9326,5.1315,5.1315,5.1779,5.2409,5.2409,5.2551,5.2729,0.0,5.2134,0.0,0.0,5.7143,0.0,6.2456,6.4761,6.5627,6.3945,6.3472,6.2972,6.2053,6.3817,6.5032,6.5032,6.4909,6.4698,6.4449,6.4046,6.3106,6.1469,5.9681,5.7809,5.5809,5.3563,5.1594,0.0,0.0,0.0,0.0,4.861,4.8292,0.0,0.0,0.0,0.0,0.0,4.3892,4.3927,4.3617,4.3949,4.469,4.5719,4.695,4.8179,4.7737,4.8562,4.949,4.7435,4.7308,4.8001,4.8001,4.8001,4.8001,4.8001,4.8001,4.8001,4.8001,4.8001,4.8001,4.8001,4.7438,4.6941,4.7106,4.6444,4.5847,4.598,4.5914,4.5549,4.4821,4.3893,0.0,0.0,0.0,0.0,0.0,0.0,0.0,0.0,0.0,0.0,0.0,0.0,0.0,0.0,0.0,0.0,0.0,0.0,0.0,0.0,0.0,4.198,4.1403,0.0,4.5313,0.0,4.6205,4.6643,4.5993,4.6452,4.6113,4.5185,4.5616,4.6146,4.6874,4.8796,5.032,5.1547,5.1547,5.1912,5.2409,5.2243,5.2489,5.2835,0.0,0.0,0.0,0.0,0.0,0.0,6.4055,6.5998,6.7462,6.7553,6.6671,6.5996,6.5891,6.6112,6.6217,6.6217,6.5618,6.5008,6.4468,6.4046,6.2745,6.0424,5.9865,5.8529,5.6293,5.4211,5.2454,0.0,0.0,0.0,0.0,0.0,0.0,0.0,0.0,0.0,0.0,4.5697,4.5339,4.4874,4.6039,4.6091,4.5642,4.7185,4.8634,4.988,4.9904,5.0845,5.1843,5.0317,4.8994,4.8001,4.8001,4.8001,4.8001,4.8001,4.8001,4.8001,4.8001,4.8001,4.8001,4.8001,4.7438,4.7073,4.7736,4.6808,4.598,4.6643,4.6278,4.5549,4.4821,4.5119,4.5019,0.0,0.0,0.0,0.0,0.0,0.0,0.0,0.0,0.0,0.0,3.7003,0.0,0.0,0.0,0.0,0.0,0.0,0.0,3.9314,0.0,4.2437,4.4197,4.5285,4.6336,4.7397,4.7734,4.7506,4.6778,4.618,4.6179,4.6643,4.6046,4.7305,4.9856,5.0717,5.158,5.231,5.231,5.2343,5.2343,5.1647,5.2023,5.2803,0.0,0.0,0.0,0.0,0.0,0.0,0.0,6.7777,6.8994,6.9138,6.8732,6.8154,6.7516,6.7414,6.7414,6.7414,6.6722,6.6348,6.6306,6.497,6.351,6.2105,6.0497,5.8873,5.7248,5.5042,5.3351,0.0,0.0,0.0,0.0,0.0,0.0,0.0,0.0,4.7384,4.773,4.7395,4.7063,4.6736,4.7251,4.7517,4.7635,4.8799,4.9848,5.076,5.1331,5.1877,5.2307,5.1711,5.0817,4.9823,4.8928,4.8663,4.8564,4.8133,4.8001,4.8001,4.8001,4.8001,4.8001,4.8001,4.7438,4.7073,4.7835,4.7206,4.6543,4.6841,4.6676,4.6378,4.6046,4.6245,4.598,0.0,0.0,0.0,0.0,0.0,0.0,0.0,0.0,0.0,0.0,0.0,0.0,0.0,0.0,0.0,0.0,0.0,0.0,3.9994,0.0,4.3169,4.4066,4.6092,4.7144,4.7242,4.7308,4.6941,4.6212,4.5483,4.5781,4.6974,4.8001,4.9359,5.0916,5.168,5.2144,5.2376,5.1912,5.1746,5.1713,5.1519,5.1794,5.2234,6.3257,0.0,6.2991,0.0,6.5758,6.6576,6.8042,6.9136,6.9798,6.9798,6.9798,6.9478,6.8683,6.8601,6.8601,6.8601,6.7737,6.7308,6.7553,6.5392,6.3835,6.3348,6.1218,0.0,5.8171,5.6336,5.4569,5.285,5.1765,0.0,0.0,0.0,0.0,0.0,4.8676,4.8787,4.9293,4.8923,4.8701,4.8595,4.9042,4.9224,4.9292,5.0371,5.1088,5.1545,5.2194,5.2409,5.2409,5.2409,5.2078,5.1415,5.0121,4.9591,4.9326,4.8796,4.8498,4.8332,4.8332,4.8166,4.8001,4.8001,4.7603,4.7305,4.7603,4.7272,4.6908,4.6908,4.7073,4.7139,4.6941,4.7073,4.6742,4.5251,0.0,0.0,0.0,0.0,0.0,0.0,3.899,3.8261,3.6804,0.0,0.0,0.0,0.0,0.0,0.0,0.0,0.0,0.0,0.0,0.0,0.0,4.6649,4.7537,4.7206,4.7007,4.6742,4.6444,4.6344,4.6874,4.7968,4.9988,5.1148,5.168,5.221,5.2409,5.2343,5.1614,5.1448,5.165,5.1289,5.1595,5.2202,6.6379,6.6946,6.7691,6.9429,6.9969,7.0049,6.9813,6.9765,6.9798,6.9798,6.9798,6.9798,6.9798,6.9798,6.9798,6.9798,6.8426,6.7599,6.7566,6.4895,6.3315,0.0,0.0,6.039,5.8933,5.8138,5.6316,5.34,0.0,0.0,5.022,0.0,4.9741,4.8972,4.8972,4.9394,5.0075,5.0075,5.0075,5.0213,5.1723,5.1448,5.0245,5.1792,5.2373,5.2373,5.2373,5.2409,5.2409,5.2409,5.2373,5.2277,5.1514,5.075,5.0187,5.0187,4.9657,4.9094,4.9094,4.8564,4.8001,4.8001,4.8001,4.7802,4.7073,4.6908,4.6908,4.6908,4.7471,4.7769,4.704,4.7504,4.7504,4.6013,0.0,0.0,0.0,0.0,0.0,0.0,4.0779,3.9785,3.8328,0.0,0.0,0.0,0.0,0.0,0.0,0.0,0.0,4.138,4.3529,0.0,4.6841,4.6908,4.7272,4.7968,4.7239,4.7272,4.8034,4.9491,5.0154,5.0253,5.1711,5.2409,5.2409,5.2409,5.2409,5.2343,5.1614,5.1816,5.2389,5.0958,5.1597,5.3078,6.8964,6.9051,6.9157,6.9713,6.9893,6.9893,6.9798,6.9798,6.9798,6.9798,6.9798,6.9798,6.9798,6.9798,6.9798,0.0,6.8473,6.7566,0.0,6.4895,6.3315,6.3315,6.1881,6.0655,5.9661,5.8436,5.6846,5.4887,0.0,0.0,0.0,4.9826,4.969,4.9809,4.9809,5.0535,5.1655,5.1655,5.1655,5.1723,5.2203,5.2134,5.1723,5.2203,5.2111,5.1713,5.2243,5.2078,5.1746,5.2243,5.2409,5.2376,5.2144,5.1512,5.085,5.0353,5.0055,4.9756,4.926,4.8928,4.863,4.8133,4.7636,4.7173,4.6941,4.651,4.6278,4.6808,4.7073,4.7338,4.7603,4.7835,4.7835,4.7371,4.7073,0.0,0.0,0.0,0.0,0.0,4.121,4.0514,0.0,3.8752,0.0,0.0,0.0,0.0,0.0,0.0,0.0,0.0,4.333,0.0,4.6874,4.6908,4.7537,4.8763,4.8001,4.7769,4.8067,4.9525,4.9955,4.9558,5.1512,5.181,5.0982,5.1976,5.181,5.0883,5.0651,5.0787,5.1058,5.0727,5.1397,5.2505,7.0035,6.9893,6.9798,6.9798,6.9798,6.9798,6.9798,6.9798,6.9798,6.9798,6.9566,6.9368,6.9368,6.9136,0.0,6.9334,6.8307,6.7466,6.7168,6.473,6.3315,6.3315,6.1881,6.0622,5.9595,0.0,0.0,5.5185,5.3841,5.2387,5.0825,5.0558,5.0522,5.0618,5.0618,5.0949,5.1578,5.1578,5.1711,5.2011,5.2011,5.2177,5.2376,5.2111,5.1713,5.1348,5.1512,5.128,5.0982,5.1746,5.2011,5.2045,5.231,5.2111,5.1647,5.1148,5.0817,5.0452,4.9723,4.9326,4.8928,4.8199,4.7636,4.7239,4.6974,4.6543,4.6344,4.6808,4.7106,4.7438,4.7934,4.8001,4.8001,4.8001,4.7371,4.6643,4.5881,0.0,0.0,0.0,0.0,0.0,0.0,4.0415,0.0,0.0,0.0,0.0,0.0,0.0,0.0,4.244,4.4026,0.0,4.7305,4.7305,4.8067,4.9525,4.9061,4.8829,4.8862,5.0055,5.022,4.9624,5.1247,5.1313,5.0286,5.1181,5.1015,5.022,5.022,5.049,5.0927,5.1062,5.1732,5.2707,6.9798,6.9798,6.9798,0.0,6.9798,0.0,6.9798,6.9798,6.9798,6.9798,6.9136,6.8672,6.8672,6.8042,6.7877,6.8473,0.0,0.0,0.0,6.4465,6.3315,6.3249,6.1815,6.039,5.8999,5.8204,5.6713,5.449,5.3069,5.2082,5.149,5.2082,5.1978,5.1315,5.1315,5.0916,5.0286,5.0286,5.0651,5.1249,5.1249,5.1647,5.2142,5.1481,5.1249,5.1149,5.0518,5.0286,5.0386,5.1149,5.1382,5.1514,5.221,5.2409,5.2409,5.2409,5.1912,5.1249,5.0485,4.979,4.9061,4.8266,4.8001,4.7736,4.7073,4.6841,4.6841,4.6874,4.7438,4.7934,4.8001,4.8001,4.7968,4.7934,4.7338,4.6609,4.5814,0.0,0.0,0.0,0.0,0.0,0.0,4.244,4.1342,0.0,0.0,0.0,0.0,0.0,4.2738,4.2638,4.5417,4.7272,4.8067,4.8067,4.8829,5.0286,5.0286,5.032,5.0386,5.0949,5.085,5.0253,5.0982,5.085,5.0154,5.0286,5.0286,5.022,5.022,5.0891,5.1798,5.1731,5.2472,5.3518,0.0,0.0,6.9798,6.9798,6.9798,6.9798,6.9798,6.9798,6.9798,6.9798,6.9136,6.8672,6.8672,6.8042,6.7446,6.7049,6.6883,6.6485,6.5724,6.4167,6.3083,6.2487,6.1053,6.0092,5.9761,5.8469,5.6713,5.449,5.3069,5.2045,5.135,5.1481,5.1481,5.1315,5.1315,5.1216,5.1015,5.1015,5.0817,5.0452,5.0452,5.0551,5.0717,5.0518,5.0452,5.0518,5.0883,5.1015,5.1148,5.1912,5.2144,5.2177,5.2343,5.2409,5.2409,5.2409,5.231,5.2011,5.1214,5.0883,5.0452,4.916,4.8001,4.7106,4.6941,4.6444,4.6212,4.6775,4.704,4.7338,4.7901,4.8001,4.7835,4.7239,4.7007,4.6444,4.5119,4.5284,0.0,0.0,4.5019,4.5284,4.5284,4.4456,4.3628,0.0,0.0,0.0,0.0,4.4754,4.5351,4.4191,4.5947,4.7537,4.8829,4.8829,4.9591,5.1015,5.1015,5.1313,5.1843,5.0883,5.0386,5.0253,5.0982,5.0551,4.9491,5.1181,5.1214,5.022,5.022,5.0891,5.1731,5.1196,5.2034,5.3518,6.9798,6.9798,6.9798,6.9798,6.9798,6.9798,6.9798,6.9798,6.9666,6.9334,6.8672,6.8076,6.7744,6.7049,6.6452,6.6055,6.6022,6.5724,6.4995,6.3272,6.2245,6.2221,6.0456,5.9496,5.9496,5.8038,5.6216,5.403,5.3235,5.2473,5.1812,5.1812,5.1647,5.1315,5.1315,5.1082,5.0783,5.0783,5.0585,5.0253,5.0585,5.0684,5.0684,5.0684,5.0684,5.0717,5.075,5.0783,5.0916,5.168,5.1912,5.1978,5.231,5.2409,5.2409,5.2409,5.2409,5.2243,5.1514,5.1315,5.105,4.9889,4.8498,4.7404,4.7404,4.7073,4.6709,4.6444,4.6676,4.7007,4.7404,4.7504,4.7371,4.6974,4.6609,4.598,4.4854,4.5019,0.0,4.5185,4.5549,4.5914,4.6278,4.5616,4.5019,4.4655,0.0,0.0,4.5119,4.6908,4.7239,4.5748,4.7471,4.8796,4.9591,5.0286,5.0817,5.1315,5.1647,5.2011,5.234,5.1214,5.0684,5.0717,5.075,5.0353,4.9723,5.0916,5.0916,5.0253,5.0585,5.1157,5.1798,5.1731,5.2472,5.3518,6.9798,6.9798,6.9798,6.9798,6.9798,6.9798,6.9798,6.9798,6.9533,6.8771,6.8076,6.7301,6.6585,6.5856,6.5425,6.5425,6.5227,6.4829,6.4266,6.2378,6.145,6.1857,5.996,5.8833,5.8734,5.7177,5.5388,5.34,5.3301,5.297,5.2409,5.2409,5.2078,5.1481,5.1481,5.1048,5.0386,5.0386,5.032,5.0253,5.075,5.1015,5.1149,5.1017,5.1116,5.1249,5.0585,5.0452,5.0651,5.1247,5.1481,5.158,5.221,5.2409,5.2409,5.2409,5.2409,5.2277,5.1647,5.1315,5.0982,5.0485,4.916,4.8034,4.8133,4.8001,4.7504,4.6378,4.6543,4.6941,4.704,4.7073,4.6974,4.6775,4.6113,4.5384,4.4622,0.0,4.492,4.5549,4.5914,4.6378,4.7007,4.651,4.6179,4.6278,4.6874,4.7239,0.0,4.8531,4.8763,4.7603,4.9392,5.0419,5.0551,5.1777,5.2111,5.1481,5.2111,5.244,5.2506,5.168,5.1382,5.1448,5.0684,5.0386,5.0386,5.0485,5.0551,5.0585,5.1116,5.1557,5.2033,5.2535,5.3077,5.3518,6.9798,6.9798,6.9798,6.9798,6.9798,6.9798,6.9798,6.9798,6.9533,6.8771,6.8076,6.7301,6.6585,6.5856,6.5425,6.5425,6.4299,6.357,6.3481,6.2586,6.1516,6.039,5.9429,5.8601,5.7972,5.5918,5.4394,5.34,5.2837,5.2473,5.2409,5.2409,5.2343,5.2243,5.2243,5.1846,5.1149,5.1149,5.075,5.0187,4.9657,4.9823,5.032,4.969,5.022,5.1282,5.1183,5.1547,5.2075,5.221,5.2243,5.2277,5.234,5.2409,5.2409,5.2409,5.2409,5.2409,5.2277,5.1313,5.0485,5.0982,4.9558,4.8166,4.8796,4.7968,4.7173,4.757,4.7239,4.7073,4.7703,4.7835,4.7404,4.6179,4.5351,4.4589,4.3863,0.0,4.4721,4.4854,4.651,4.7703,4.7835,4.7736,4.7934,4.8531,4.8696,4.8763,4.8763,4.9591,5.022,5.0619,5.0951,5.1413,5.2042,5.231,5.2343,5.2243,5.2376,5.2705,5.3202,5.1877,5.1647,5.221,5.1481,5.1149,5.1183,5.1777,5.2042,5.2009,5.1514,5.189,5.2669,5.2167,5.2606,5.3518,6.9798,6.9798,6.9798,6.9798,6.9798,6.9798,6.9798,6.9798,6.9401,6.8274,6.7844,6.7135,6.6055,6.5624,6.526,6.4895,6.3902,6.315,6.2752,6.1616,6.0887,6.0622,5.9131,5.7939,5.721,5.5819,5.4721,5.396,5.3301,5.2738,5.2409,5.2409,5.2409,5.2409,5.2409,5.221,5.1912,5.1912,5.1481,5.0783,5.085,5.085,5.0783,5.085,5.128,5.1912,5.1912,5.2111,5.2409,5.2409,5.2409,5.2409,5.2409,5.2409,5.2409,5.2409,5.2409,5.2409,5.2409,5.1313,5.0386,5.1149,4.9624,4.8199,4.8928,4.8266,4.7471,4.7404,4.7139,4.7007,4.7338,4.7073,4.6576,4.5914,4.5516,0.0,0.0,4.5152,4.6013,4.6411,4.704,4.7736,4.8531,4.7868,4.7868,4.9028,4.873,4.9028,5.022,5.022,5.0717,5.1879,5.1912,5.1879,5.1812,5.221,5.2409,5.2407,5.3169,5.3897,5.4523,5.35,5.3202,5.3467,5.234,5.1912,5.1945,5.2277,5.2409,5.2376,5.2045,5.2555,5.3439,5.3104,5.3716,5.4702,6.9798,6.9798,6.9798,6.9798,6.9798,6.9732,6.9566,6.9533,6.9003,6.7546,6.7334,6.6883,6.5558,6.5425,6.5127,6.4432,6.3746,6.3017,6.2255,6.0986,6.0423,6.0854,5.8899,5.7376,5.6448,5.5719,5.4953,5.4225,5.3533,5.2904,5.2409,5.2409,5.2409,5.2409,5.2409,5.2409,5.2409,5.2409,5.2078,5.1614,5.2011,5.1912,5.1614,5.2011,5.2241,5.2409,5.2409,5.2409,5.2409,5.2409,5.2409,5.2409,5.2409,5.2409,5.2409,5.2409,5.2409,5.234,5.221,5.1181,5.0419,5.1348,4.9756,4.8233,4.916,4.8663,4.7835,4.7272,4.7305,4.7404,4.7404,4.6941,4.651,4.6344,0.0,0.0,0.0,4.5881,4.6709,4.7636,4.7404,4.7603,4.873,4.7968,4.8034,4.9491,4.9094,4.9558,5.1481,5.085,5.0982,5.2111,5.231,5.2144,5.158,5.2144,5.2509,5.2638,5.3897,5.4887,5.5582,5.4986,5.4754,5.4688,5.3434,5.2771,5.2638,5.2804,5.2771,5.2638,5.2876,5.349,5.4278,5.4313,5.4794,5.548,6.9798,6.9798,6.9798,6.9798,6.9798,6.9566,6.8871,6.8771,6.8241,6.6784,6.6585,6.6287,6.5492,6.5425,6.5127,6.4432,6.3746,6.3017,6.2255,6.145,6.0755,6.0125,5.8601,5.7144,5.5681,5.4953,5.4229,5.35,5.2804,5.2475,5.2409,5.2409,5.2409,5.2409,5.2409,5.2409,5.2409,5.2409,5.2376,5.2277,5.1647,5.1779,5.2277,5.1614,5.1812,5.2409,5.2409,5.2409,5.2409,5.2409,5.2409,5.2409,5.2409,5.2409,5.2409,5.2409,5.2409,5.2241,5.158,5.0783,5.0551,5.1943,5.0121,4.8365,4.9823,4.9028,4.7968,4.7934,4.8465,4.8961,4.8961,4.8895,4.863,4.7968,0.0,0.0,4.6543,4.5649,4.5384,4.6808,4.7537,4.7968,4.8067,4.8597,4.9558,5.105,5.1116,5.1448,5.2277,5.1647,5.1282,5.1382,5.2045,5.2376,5.2343,5.2376,5.2705,5.3334,5.4092,5.4887,5.5582,5.5516,5.5516,5.545,5.4688,5.3964,5.34,5.4063,5.3964,5.34,5.428,5.4798,5.5049,5.5228,5.5034,5.4769,6.9798,6.9798,6.9798,6.9798,6.9401,6.9003,6.8738,6.8307,6.7678,6.6651,6.6519,6.6254,6.5492,6.5425,6.4962,6.3846,6.3481,6.2775,6.1583,6.0821,6.0092,5.9363,5.8336,5.7309,5.6316,5.5123,5.4357,5.4096,5.3045,5.248,5.2409,5.248,5.248,5.2409,5.2409,5.2409,5.2409,5.2409,5.2409,5.2409,5.2075,5.2177,5.2376,5.2111,5.2177,5.2409,5.2409,5.2409,5.2409,5.2409,5.2409,5.2409,5.2409,5.2409,5.2409,5.2409,5.2409,5.2343,5.2078,5.1413,5.1015,5.158,5.0518,4.9525,5.0088,4.979,4.9226,4.8796,4.8928,4.8961,4.8498,4.8431,4.8332,4.8067,0.0,4.6941,4.7504,4.7106,4.7305,4.8763,4.8796,4.9028,4.9955,4.9889,5.0187,5.1249,5.0883,5.1148,5.2343,5.2144,5.1978,5.1978,5.2638,5.2804,5.2409,5.2804,5.34,5.4096,5.4821,5.5587,5.6282,5.6282,5.6051,5.5582,5.5284,5.4754,5.4092,5.4357,5.4361,5.4129,5.4616,5.5199,5.5749,5.5497,5.5643,5.5953,6.9732,6.9798,6.9798,6.9798,6.9169,6.8606,6.8374,6.7744,6.7016,6.6254,6.6232,6.6078,6.5459,6.547,6.4917,6.3448,6.3315,6.2643,6.1218,6.0191,5.933,5.8601,5.8071,5.7442,5.6713,5.5256,5.449,5.449,5.3177,5.2516,5.2409,5.2516,5.2516,5.2409,5.2409,5.2409,5.2409,5.2445,5.248,5.248,5.248,5.248,5.248,5.2409,5.2409,5.2409,5.2409,5.2409,5.2409,5.2409,5.2409,5.2409,5.2409,5.2409,5.2409,5.2409,5.2409,5.2409,5.2409,5.2175,5.191,5.1713,5.0916,5.0286,5.0485,5.0386,5.0088,4.9558,4.9624,4.9624,4.9127,4.9028,4.9028,4.9028,4.8663,4.8498,4.8961,4.863,4.8895,5.0386,4.9889,4.9856,5.085,5.0485,5.0518,5.1249,5.1048,5.1545,5.297,5.3069,5.3069,5.3069,5.35,5.3533,5.3069,5.3533,5.4092,5.4821,5.535,5.5984,5.668,5.668,5.6415,5.5951,5.5951,5.5554,5.4854,5.5123,5.5057,5.4891,5.5388,5.5803,5.6111,5.6174,5.6115,5.6018,6.9633,6.9765,6.9798,6.9798,6.9169,6.844,6.7744,6.7016,6.6254,6.5525,6.5647,6.5692,6.5425,6.5647,6.5126,6.3448,6.3315,6.2643,6.1218,5.9728,5.8568,5.7839,5.7806,5.7442,5.6713,5.5256,5.4527,5.449,5.3102,5.2409,5.2409,5.2409,5.2409,5.2409,5.2409,5.2409,5.2409,5.2518,5.2589,5.2589,5.2589,5.2589,5.2589,5.2445,5.2409,5.2409,5.2409,5.2409,5.2409,5.2409,5.2409,5.2409,5.2409,5.2409,5.2407,5.2407,5.2407,5.2407,5.2407,5.2904,5.3268,5.2572,5.1313,5.0419,5.1115,5.075,5.022,5.022,5.0783,5.1315,5.1315,5.1315,5.1315,5.1315,5.0055,4.9624,5.1116,5.0021,4.9657,5.1149,5.0651,5.022,5.022,5.022,5.0518,5.1249,5.2011,5.3003,5.446,5.449,5.449,5.449,5.4527,5.449,5.449,5.449,5.4854,5.5582,5.5582,5.5984,5.668,5.668,5.668,5.668,5.668,5.6282,5.5648,5.6382,5.6282,5.5757,5.6872,5.6742,5.6096,5.7392,5.6387,5.456,6.9138,6.9317,6.953,7.017,6.9543,6.8718,6.7987,6.7074,6.6254,6.5525,6.547,6.5514,6.5425,6.547,6.4917,6.3448,6.3315,6.2643,6.1218,5.9849,5.896,5.8568,5.7574,5.6912,5.668,5.5786,5.5019,5.449,5.3853,5.3192,5.2518,5.2659,5.2729,5.2729,5.2516,5.2445,5.2518,5.2589,5.2589,5.2589,5.2764,5.2729,5.2589,5.2587,5.248,5.2409,5.2409,5.2409,5.2409,5.2409,5.2409,5.2409,5.2409,5.2705,5.3102,5.3102,5.3102,5.3202,5.3732,5.403,5.3897,5.2672,5.2407,5.2373,5.2108,5.1877,5.1578,5.1082,5.1149,5.1149,5.0618,5.0949,5.1315,5.1315,5.0951,5.0818,5.1249,5.0485,5.022,5.1216,5.1116,5.1181,5.1678,5.2175,5.234,5.2075,5.2705,5.3533,5.4423,5.449,5.449,5.449,5.4986,5.5251,5.5251,5.5251,5.535,5.5582,5.6269,5.6635,5.668,5.6834,5.6834,5.668,5.668,5.6658,5.6611,5.6811,5.6854,5.6838,5.7301,5.7342,5.707,5.713,5.6662,5.6052,6.8465,6.8736,6.8961,6.9532,6.8906,6.8181,6.7747,6.6867,6.6101,6.5725,6.5658,6.5658,6.5658,6.5426,6.475,6.3544,6.2785,6.2089,6.1277,5.9937,5.9179,5.9139,5.767,5.6796,5.668,5.5984,5.5218,5.449,5.4089,5.3463,5.2589,5.2799,5.2903,5.2868,5.2622,5.2518,5.2589,5.2589,5.2659,5.2729,5.2764,5.2764,5.2694,5.2553,5.248,5.2409,5.248,5.2445,5.2409,5.248,5.2644,5.2738,5.2473,5.3069,5.3798,5.35,5.3632,5.3964,5.4394,5.4688,5.4655,5.3533,5.3334,5.3235,5.2539,5.2445,5.2447,5.2283,5.2051,5.175,5.1617,5.1682,5.1746,5.1746,5.1746,5.1746,5.1746,5.1347,5.1247,5.168,5.1746,5.1912,5.2376,5.3003,5.3599,5.4063,5.4229,5.4858,5.6183,5.5984,5.5951,5.6249,5.668,5.6912,5.6912,5.6912,5.6614,5.6051,5.6895,5.7227,5.7144,5.7565,5.7692,5.7541,5.7243,5.7227,5.7387,5.712,5.7139,5.736,5.785,5.7652,5.711,5.7502,5.7067,5.6219,6.7823,6.8104,6.8272,6.8384,6.7814,6.7345,6.7278,6.6489,6.5934,6.6052,6.6095,6.6095,6.6095,6.5459,6.4638,6.3724,6.2115,6.121,6.1383,6.0084,5.9404,5.9494,5.804,5.7082,5.6719,5.6051,5.5355,5.4626,5.4083,5.3492,5.2859,5.2901,5.2971,5.3038,5.2762,5.2624,5.2624,5.2624,5.2762,5.3004,5.2762,5.2797,5.3004,5.2587,5.2478,5.2544,5.2587,5.2584,5.2544,5.2587,5.2981,5.3337,5.2641,5.3337,5.4295,5.3699,5.396,5.4523,5.4655,5.5185,5.5516,5.4754,5.4096,5.3434,5.2738,5.2646,5.2988,5.3656,5.329,5.2988,5.369,5.3147,5.2608,5.2608,5.2572,5.2539,5.2473,5.2473,5.244,5.2409,5.2409,5.2407,5.2473,5.3169,5.4494,5.6614,5.6183,5.6713,5.88,5.8237,5.8204,5.8866,5.8899,5.8899,5.8899,5.894,5.8243,5.6879,5.7614,5.7945,5.7906,5.8641,5.894,5.8866,5.8171,5.7991,5.8191,5.7492,5.7339,5.7633,5.8492,5.7917,5.6727,5.8477,5.7704,5.5943,6.751,6.7688,6.8021,6.8803,6.8638,6.8169,6.7598,6.7012,6.6535,6.6119,6.5965,6.5955,6.6095,6.5459,6.468,6.3902,6.2291,6.1342,6.1383,6.0712,6.0063,5.9494,5.9314,5.8461,5.6982,5.6591,5.6193,5.5613,5.5065,5.4812,5.4789,5.3648,5.3549,5.4192,5.3241,5.2834,5.2834,5.2834,5.3203,5.3742,5.3276,5.3445,5.3917,5.3276,5.3306,5.3567,5.3034,5.3096,5.3354,5.2788,5.3055,5.3518,5.2786,5.3152,5.3914,5.4199,5.4357,5.4759,5.5918,5.6349,5.6282,5.5554,5.5218,5.492,5.4229,5.4063,5.417,5.4486,5.4456,5.4389,5.4522,5.4419,5.4246,5.4063,5.4063,5.3864,5.3268,5.3202,5.3003,5.2475,5.2409,5.2605,5.3135,5.4357,5.5819,5.7442,5.7409,5.7773,5.8833,5.8734,5.8734,5.8899,5.8899,5.8899,5.8899,5.9059,5.8893,5.8436,5.8727,5.8794,5.8668,5.8993,5.9059,5.8899,5.8734,5.8867,5.9187,5.902,5.9185,5.9528,5.9734,5.9561,5.9291,5.9704,5.9502,5.913,6.6969,6.7165,6.7395,6.7886,6.7868,6.7646,6.7285,6.6949,6.6641,6.6464,6.6259,6.6215,6.6397,6.5371,6.4179,6.2948,6.2022,6.1588,6.1709,6.1086,6.0466,5.9804,5.9472,5.8656,5.7323,5.7101,5.6545,5.5771,5.5666,5.5484,5.5259,5.4627,5.4632,5.5108,5.4424,5.4082,5.4082,5.3976,5.401,5.4149,5.4116,5.4186,5.4289,5.4151,5.408,5.401,5.4047,5.4246,5.4443,5.3968,5.43,5.4768,5.4033,5.4534,5.5365,5.5322,5.5514,5.5871,5.6635,5.6834,5.6696,5.6254,5.6226,5.5966,5.4759,5.4564,5.4775,5.5218,5.5055,5.4922,5.5288,5.4981,5.4638,5.4527,5.449,5.4394,5.3997,5.393,5.3798,5.3434,5.34,5.3831,5.4858,5.5984,5.7276,5.8734,5.8582,5.892,5.9893,5.9717,5.9724,6.0089,6.0089,6.013,6.0251,6.0331,6.0331,6.0251,5.9964,5.9798,5.9718,6.0084,6.0211,6.0089,5.9603,5.9638,6.0002,5.9667,5.9732,6.0148,6.052,6.0452,6.0148,6.052,6.0419,6.0114,6.655,6.672,6.6812,6.6812,6.6812,6.6812,6.6812,6.6635,6.6592,6.677,6.6635,6.6592,6.677,6.5327,6.3646,6.1924,6.175,6.183,6.1997,6.1425,6.0796,6.0148,5.949,5.8669,5.7621,5.7573,5.7009,5.597,5.6174,5.6023,5.559,5.5677,5.5749,5.585,5.5574,5.5435,5.54,5.5221,5.4988,5.4692,5.502,5.4991,5.4762,5.5056,5.4919,5.4586,5.5366,5.5604,5.5568,5.5255,5.5551,5.5953,5.5317,5.599,5.6858,5.6352,5.6508,5.6858,5.6992,5.7025,5.6987,5.6796,5.701,5.682,5.5339,5.5077,5.5318,5.5917,5.5721,5.5521,5.6021,5.5539,5.5061,5.4924,5.4891,5.4858,5.4688,5.4688,5.4692,5.473,5.4962,5.5591,5.6746,5.7674,5.8668,5.9926,5.9724,5.9997,6.1061,6.0736,6.0791,6.1432,6.1465,6.1547,6.1709,6.175,6.175,6.175,6.1153,6.0885,6.0805,6.128,6.1465,6.1391,6.0628,6.0484,6.0818,6.0175,6.0141,6.0554,6.1231,6.1061,6.0554,6.1231,6.1061,6.0486,6.677,6.677,6.6812,6.6812,6.6812,6.6812,6.6812,6.6635,6.6592,6.677,6.6635,6.6592,6.677,6.5452,6.385,6.2131,6.1957,6.1957,6.1997,6.1896,6.134,6.0148,6.0617,5.9899,5.7621,5.819,5.8119,5.7342,5.674,5.6816,5.7471,5.6256,5.6055,5.663,5.5952,5.5542,5.54,5.54,5.5703,5.6174,5.5566,5.5774,5.6391,5.5849,5.595,5.6423,5.6594,5.652,5.6241,5.5566,5.5432,5.5499,5.5398,5.5499,5.5732,5.6087,5.6248,5.6412,5.6858,5.7139,5.7214,5.7025,5.7568,5.7988,5.7114,5.6649,5.653,5.6782,5.7287,5.7486,5.6954,5.7248,5.7338,5.652,5.6382,5.6183,5.5516,5.545,5.5492,5.5684,5.6849,5.7604,5.768,5.8899,5.9794,5.9993,6.049,6.1011,6.1342,6.1283,6.1365,6.1669,6.1669,6.1669,6.1709,6.1877,6.1957,6.1957,6.2088,6.1936,6.1575,6.1635,6.1669,6.1669,6.1528,6.1582,6.1789,6.1688,6.1846,6.2076,6.2212,6.2178,6.2076,6.2212,6.2178,6.2076,6.6812,6.6812,6.6812,6.6812,6.6812,6.6812,6.6812,6.6728,6.6686,6.677,6.6728,6.6686,6.677,6.5493,6.3964,6.2364,6.2229,6.2229,6.2229,6.2229,6.1795,6.0825,6.0689,5.9941,5.841,5.8275,5.8275,5.8376,5.7413,5.7248,5.7735,5.7094,5.6995,5.7408,5.707,5.6898,5.6793,5.6793,5.6759,5.6655,5.6759,5.6795,5.6799,5.69,5.6867,5.6867,5.7273,5.7913,5.8376,5.7671,5.7398,5.7398,5.7398,5.7398,5.7533,5.8201,5.8291,5.8245,5.8504,5.8643,5.8681,5.8451,5.8801,5.9084,5.8634,5.8413,5.8125,5.7686,5.8108,5.8462,5.8129,5.8329,5.8422,5.8011,5.7906,5.7806,5.7508,5.752,5.7676,5.7873,5.8847,5.9476,5.9358,6.0324,6.0958,6.0958,6.1258,6.1465,6.1547,6.1547,6.1669,6.1837,6.1877,6.1951,6.2104,6.215,6.2229,6.2229,6.2341,6.2302,6.2104,6.1951,6.1877,6.1837,6.175,6.1797,6.1997,6.1997,6.215,6.2381,6.2381,6.2381,6.2381,6.2381,6.2381,6.2381]}]]